GFSGL_con_lsi_000.txt.gz
Lid_Strength_Index
2 1 1 2 2 2 2 2 1 1 1 1 1 2 2 2 1 2 2 2 2 2 2 2 2 3 3 3 2 3 3 3 4 3 3 1 1 1 0 -0 -1 -0 -0
2 1 1 2 2 2 2 2 2 2 2 1 1 1 1 1 1 2 2 2 2 2 2 2 2 2 3 3 3 3 3 3 3 4 2 2 2 1 1 0 0 -0 -0
2 2 3 4 4 3 2 2 2 2 2 2 2 2 2 2 2 1 1 1 2 2 2 2 2 3 3 4 3 3 3 2 3 3 3 2 1 1 1 1 1 1 -0
2 2 4 4 3 2 2 2 2 2 2 2 2 2 2 1 1 1 1 2 2 2 2 2 2 3 3 3 3 3 3 3 4 3 3 3 2 2 1 2 2 1 1
2 2 3 3 3 2 2 2 2 2 2 2 2 2 2 2 1 2 1 1 2 2 1 2 2 1 1 2 2 2 3 3 2 3 3 3 3 3 3 2 3 2 2
3 2 3 2 2 2 1 1 2 2 3 2 2 2 2 1 2 1 1 2 2 2 2 1 1 0 0 0 0 0 1 3 3 3 3 4 3 3 2 3 3 3 5
3 3 2 2 2 2 1 2 2 2 3 2 2 3 1 2 2 3 1 3 3 3 3 2 2 1 1 1 1 1 1 0 1 2 3 3 3 3 3 3 3 3 4
4 3 2 2 2 2 2 2 2 2 2 2 3 2 2 2 2 3 2 3 3 3 2 2 1 2 2 2 3 3 3 2 2 1 2 2 2 2 3 3 3 3 3
4 2 2 2 2 2 2 2 2 2 3 3 2 1 2 2 3 4 3 3 3 3 2 2 1 2 2 2 3 4 3 3 1 1 2 2 2 3 2 3 3 4 5
3 2 2 2 2 2 2 2 1 2 3 2 2 2 3 2 4 4 3 3 4 4 3 2 2 3 4 4 4 4 3 2 2 3 3 3 2 3 2 2 4 5 5
3 2 2 2 2 2 2 2 2 3 4 4 3 2 2 3 3 4 4 4 4 3 4 4 3 4 5 5 5 5 4 2 3 3 3 3 3 4 3 4 4 4 5
3 3 3 4 2 1 2 3 3 4 4 3 2 3 3 4 5 4 4 5 3 4 4 4 5 5 5 5 5 4 4 2 3 4 4 5 4 4 5 4 4 3 2
4 4 4 3 2 2 3 3 4 4 4 4 3 4 5 5 6 5 5 4 4 5 4 5 5 6 5 5 4 3 2 3 4 5 6 6 5 5 5 4 4 3 3
4 4 3 3 2 1 3 3 3 4 4 4 4 5 6 7 7 6 5 6 4 5 5 7 5 4 4 4 4 4 3 3 4 5 5 5 5 5 6 4 5 5 4
3 2 2 2 2 4 6 7 5 8 6 5 5 5 5 6 7 8 7 6 5 6 8 6 6 6 6 7 7 6 4 5 6 5 4 6 6 6 6 5 5 5 6
4 3 2 2 3 7 8 9 10 10 11 10 9 8 8 8 9 9 10 10 10 9 7 7 8 8 8 8 9 8 7 6 7 6 5 5 6 7 7 6 6 6 6
3 3 3 4 5 7 7 7 7 7 9 10 11 10 9 9 9 9 10 10 8 8 8 10 11 11 11 11 11 10 9 7 7 6 5 5 6 7 7 7 8 7 7
3 6 5 4 4 5 6 7 7 7 8 8 9 9 9 9 9 9 8 7 8 9 10 12 12 13 13 12 12 11 10 9 7 8 7 7 7 6 7 8 8 8 8
3 4 4 4 4 4 4 4 5 6 6 7 7 7 8 8 8 9 8 7 9 11 11 12 12 12 13 13 12 12 11 11 9 9 9 8 8 7 7 8 8 9 9
3 3 4 5 5 5 5 5 5 6 6 6 6 7 7 7 7 8 8 8 9 10 10 11 11 12 12 12 13 13 12 11 11 11 10 9 9 8 8 8 9 9 9
3 4 2 4 4 5 5 5 5 5 5 6 7 7 8 8 8 8 9 9 9 9 10 10 11 11 13 14 15 14 13 13 13 12 11 10 10 10 9 8 8 8 8
4 4 3 3 4 4 5 5 5 4 5 6 8 7 9 8 8 8 8 8 9 9 10 11 12 13 14 15 15 15 15 14 14 13 13 11 10 10 10 10 9 9 8
4 3 4 4 5 5 4 4 3 3 5 5 6 6 7 8 8 8 8 7 8 10 11 11 12 14 14 14 14 15 15 15 15 14 14 12 11 11 10 11 10 10 9
5 5 5 5 5 6 6 5 5 5 3 4 5 5 7 7 8 8 8 9 10 10 11 12 13 14 15 15 15 16 16 15 15 15 13 12 11 11 11 11 11 10 10
5 5 4 5 4 5 5 4 5 6 6 5 4 6 6 7 7 8 8 9 10 10 11 12 13 13 14 15 15 15 14 13 14 13 12 12 12 11 11 11 11 11 10
6 5 4 4 4 4 5 5 5 6 6 7 7 7 6 6 7 7 9 10 11 11 11 11 12 12 12 13 13 13 13 13 13 13 11 11 12 12 11 11 11 11 11

GFSGL_con_lsi_003.txt.gz
Lid_Strength_Index
4 5 5 3 2 2 3 3 3 2 3 2 2 2 2 2 2 2 2 2 2 3 2 2 2 3 3 3 3 4 5 4 4 4 3 2 2 1 1 1 -0 0 -0
3 5 4 3 2 3 3 3 2 2 2 2 2 2 2 2 1 1 2 2 2 3 2 2 2 2 3 4 4 4 4 4 4 4 3 3 3 1 1 1 1 -0 -0
3 4 3 3 2 3 3 2 2 2 2 3 2 3 3 2 2 2 2 2 2 2 2 3 2 3 3 4 4 4 4 3 4 3 3 1 1 1 2 1 1 1 -0
3 4 4 3 2 3 3 3 3 3 3 3 3 2 2 2 2 2 2 2 2 2 2 3 2 3 3 3 3 3 3 4 4 4 3 2 2 2 2 3 3 1 2
2 3 4 3 2 3 3 3 2 2 2 3 3 3 2 2 2 2 2 2 2 2 2 1 1 1 0 1 2 3 3 4 4 4 3 3 3 3 4 3 2 2 2
2 3 3 4 3 4 3 2 2 2 2 3 3 2 2 2 2 1 1 2 2 2 3 2 2 0 0 0 0 0 1 3 4 4 3 4 3 3 2 3 3 4 4
2 3 4 3 3 3 3 3 2 2 2 3 3 3 2 2 3 2 0 3 3 4 4 3 2 1 1 1 1 1 1 0 0 2 3 3 3 3 3 4 4 4 4
3 3 3 3 2 3 3 3 2 2 2 3 3 3 3 2 3 3 2 3 4 4 3 3 3 3 2 2 3 3 4 3 3 2 2 2 2 2 2 3 3 3 3
3 4 3 2 2 3 3 2 2 3 3 3 3 3 3 3 3 4 3 3 4 3 4 4 3 3 2 2 4 4 4 4 2 0 0 1 1 2 2 3 4 5 5
3 3 3 2 2 3 2 2 2 2 3 3 2 4 3 2 4 5 4 4 4 4 4 3 3 3 3 4 5 6 4 5 4 3 1 2 2 2 2 3 3 5 6
4 4 4 3 3 2 2 3 3 2 3 3 2 2 2 3 2 5 5 4 4 4 5 5 4 3 5 5 5 5 5 5 3 2 2 3 3 3 3 3 4 5 6
4 4 6 4 2 3 4 4 3 2 2 4 3 4 3 3 5 5 5 4 3 4 4 4 4 4 5 5 5 4 4 3 4 3 4 4 4 4 4 4 4 5 3
4 5 4 3 3 3 3 3 3 2 3 4 4 3 3 5 6 6 6 5 4 5 5 5 4 5 6 5 4 4 4 6 5 5 5 4 4 4 4 4 4 4 4
4 5 4 4 3 2 2 2 2 3 4 4 3 4 5 7 7 7 6 6 5 6 6 7 5 4 4 5 6 7 7 6 6 6 5 4 4 5 5 5 6 5 5
4 3 3 3 3 2 5 7 5 7 6 4 5 5 6 7 7 7 7 7 7 8 8 5 5 6 7 8 9 9 8 7 8 8 7 6 5 6 6 6 5 6 6
4 3 3 3 2 2 6 9 11 11 12 12 9 7 8 8 9 10 10 10 10 9 6 6 8 9 10 11 11 11 10 9 9 8 7 6 6 7 7 6 6 7 6
3 3 3 4 3 5 8 9 9 9 11 12 11 11 10 10 10 10 10 10 9 8 7 8 10 11 12 13 13 12 12 11 10 9 9 8 7 7 7 7 8 8 7
3 4 3 3 4 5 6 7 7 8 8 8 10 10 10 9 9 9 9 8 8 8 10 11 12 13 13 14 13 13 13 12 11 11 10 9 9 8 7 9 8 9 8
4 5 5 4 5 6 7 6 7 7 7 8 8 9 9 8 10 9 8 8 9 11 12 12 12 13 13 12 13 14 13 13 12 12 11 10 10 9 9 8 8 9 8
4 4 4 4 5 5 5 4 6 7 7 7 7 7 7 7 8 8 9 9 10 11 11 11 11 12 12 13 14 15 14 13 13 13 12 12 11 10 10 9 9 8 9
4 4 4 5 5 5 6 5 5 4 6 6 6 7 7 6 7 8 9 10 10 10 10 11 12 13 15 15 15 14 15 14 14 14 13 12 11 11 10 10 9 8 9
5 5 5 5 5 4 4 4 5 6 6 6 6 7 9 7 7 8 9 9 9 9 10 12 14 15 15 15 15 15 15 15 14 14 14 13 12 12 11 11 10 9 9
5 4 5 5 5 5 6 6 6 5 5 5 7 6 7 7 8 8 8 8 8 10 12 13 14 15 15 15 15 15 16 15 15 15 14 12 12 12 12 12 11 11 11
4 4 5 6 6 6 5 5 3 5 4 5 5 6 7 7 8 8 8 8 9 11 12 13 14 15 16 16 16 16 16 16 15 15 13 13 12 12 12 12 12 12 11
5 5 5 6 6 6 6 6 6 5 4 5 6 5 7 8 8 8 8 10 10 11 12 13 14 14 15 16 16 16 14 13 13 12 12 13 12 12 12 13 12 12 12
6 5 5 5 5 5 5 5 5 6 6 6 6 7 7 7 8 8 8 10 11 11 12 12 13 13 13 13 14 13 13 13 12 12 12 12 12 12 12 12 12 12 12

GFSGL_con_lsi_006.txt.gz
Lid_Strength_Index
2 3 4 6 6 2 1 1 3 3 2 1 1 1 1 0 0 1 0 0 1 1 0 1 1 0 1 2 2 2 2 3 4 2 2 1 0 -0 -0 -1 -1 -1 -1
2 3 4 5 5 3 2 2 2 2 2 2 1 1 0 1 1 0 1 0 1 1 1 1 1 1 1 1 2 2 2 2 3 3 1 1 1 -0 -0 -0 -0 -1 -1
2 4 5 5 4 3 2 1 2 2 2 2 1 1 1 1 1 0 0 0 1 1 1 1 1 1 1 1 1 1 1 1 2 2 3 1 1 0 0 -0 -0 -0 -1
2 4 5 5 5 3 2 2 2 1 2 2 1 1 1 1 0 0 0 0 1 0 0 0 0 1 1 1 1 1 1 1 1 2 2 2 1 1 1 2 2 0 1
3 3 4 4 4 4 3 1 2 1 2 1 1 1 1 1 0 0 0 1 1 1 0 0 0 0 0 0 1 1 1 2 2 2 3 2 2 2 3 2 2 1 1
2 3 2 3 3 3 2 2 2 2 2 2 2 1 1 1 1 1 0 1 1 1 1 0 0 0 -0 0 0 0 0 1 2 2 3 3 3 2 1 2 2 3 4
2 2 2 3 4 4 3 1 3 3 3 2 2 1 1 1 3 2 1 0 1 1 1 1 1 0 0 0 0 0 0 0 0 1 2 2 2 1 1 2 2 3 3
2 2 2 4 4 4 3 2 2 3 2 2 1 1 1 1 3 3 2 0 1 1 2 2 1 1 1 0 1 1 1 1 1 1 1 1 0 0 0 1 2 3 3
3 3 3 3 4 3 2 2 2 3 2 1 1 1 1 1 4 4 3 1 1 1 2 2 2 1 2 2 1 2 2 2 1 2 1 1 0 1 1 1 3 4 5
3 2 3 3 4 4 3 2 2 2 2 1 1 1 3 2 4 4 3 1 2 2 2 1 2 2 3 3 1 2 2 2 2 2 1 1 1 1 1 0 1 4 5
2 2 2 2 3 3 2 2 3 2 2 2 2 2 1 1 1 5 5 2 2 2 2 2 2 3 4 5 5 2 3 3 3 3 3 2 2 2 1 0 1 4 5
3 4 4 4 3 3 4 3 3 3 3 2 1 2 3 1 4 4 6 4 3 2 2 2 2 5 5 5 3 4 4 4 4 4 4 4 3 3 2 2 3 4 4
5 5 4 4 3 3 3 3 3 2 2 2 2 2 2 3 4 6 6 7 5 4 3 3 4 6 6 4 4 4 4 4 5 6 6 5 3 2 2 3 3 4 4
5 4 4 3 4 4 3 2 2 2 3 3 3 3 2 4 4 5 5 5 5 4 5 5 4 4 4 4 5 5 5 5 5 5 6 4 3 3 4 4 5 5 6
4 4 3 4 3 3 3 4 3 4 4 2 2 2 4 5 5 6 6 4 4 5 6 3 2 3 5 6 6 7 7 6 7 6 6 6 5 5 5 5 6 6 7
3 3 3 3 3 2 6 7 10 11 11 11 11 6 6 8 9 10 10 11 11 9 5 3 4 6 6 7 8 8 8 8 8 8 8 7 7 6 6 5 6 7 7
3 3 4 3 2 3 4 5 5 8 12 12 11 11 10 10 11 11 11 10 10 8 4 5 6 7 8 8 9 9 10 9 9 9 8 8 8 7 7 6 6 7 7
2 5 2 2 2 3 4 4 6 6 6 7 10 9 11 10 10 10 10 8 6 6 6 6 7 9 9 9 9 10 9 9 9 10 9 9 8 8 8 7 7 8 8
2 2 2 2 3 4 4 5 5 6 6 6 7 8 10 10 10 10 9 5 6 7 8 9 9 9 8 8 9 10 10 9 10 10 10 10 9 9 8 7 8 8 6
3 4 4 3 4 5 5 5 5 5 5 6 5 5 5 6 5 5 6 6 7 8 8 8 8 8 8 9 11 11 10 10 10 10 10 10 9 9 8 8 7 8 7
3 3 3 3 3 4 4 4 4 4 5 4 4 4 7 4 5 5 6 6 7 7 7 7 8 9 10 11 11 10 9 9 10 10 10 9 9 9 8 8 8 7 7
3 3 2 3 3 3 3 3 3 3 4 4 4 5 8 4 4 5 6 6 6 6 7 8 9 10 11 11 10 10 10 10 9 10 9 9 9 8 8 8 8 8 7
3 3 3 3 3 4 4 3 3 3 4 3 4 5 6 5 4 5 5 6 5 6 7 9 10 11 11 11 10 10 10 10 10 10 10 9 9 8 8 8 8 8 8
3 3 3 4 4 4 4 4 3 5 3 4 4 6 6 5 5 5 5 5 5 7 8 9 9 10 11 11 11 11 11 11 10 9 9 9 9 9 8 8 8 8 8
4 4 3 3 3 4 3 3 2 2 3 4 3 4 4 4 4 5 5 5 6 7 8 9 9 10 11 11 11 11 11 13 10 11 8 8 8 8 8 8 8 8 8
4 3 3 3 3 3 3 4 4 3 3 2 2 3 3 4 4 4 5 5 6 7 8 8 9 10 10 11 10 11 13 13 10 12 8 7 7 7 8 8 8 8 8

GFSGL_con_lsi_009.txt.gz
Lid_Strength_Index
1 1 1 1 1 0 0 2 0 -0 -0 -0 -0 -0 -0 -0 -1 -0 -0 -1 -0 -0 -0 -0 0 -0 0 -0 -0 0 1 1 3 1 0 -1 -1 -1 -1 -2 -2 -2 -2
1 1 1 1 1 1 1 2 -0 1 -0 -0 -0 -0 -0 -0 -1 -0 0 -0 0 0 0 0 0 0 0 -0 0 0 0 0 2 3 1 1 0 -1 -1 -1 -1 -1 -2
1 1 1 1 1 1 2 1 0 0 -0 -0 -0 -0 -0 -0 -0 -0 -0 -0 -0 0 -0 0 0 0 1 0 0 1 0 0 1 2 2 1 0 -0 -0 -1 -1 -1 -1
1 1 2 1 1 2 2 1 0 0 0 -0 -0 -0 -0 -0 -0 -0 -0 -0 -0 -0 -0 -0 -0 0 0 0 0 0 0 1 1 1 2 1 1 -0 0 1 1 -0 0
1 2 2 1 1 1 1 3 2 0 0 0 0 0 -0 -0 0 -0 -0 -0 0 0 -0 -0 -0 -0 -0 -0 0 0 0 1 1 2 2 2 2 2 2 1 2 1 0
2 2 1 1 1 1 2 2 2 2 1 0 1 1 1 0 1 1 -0 0 -0 0 0 -0 -0 -0 -0 0 0 0 -0 1 1 2 2 2 2 1 1 1 2 2 3
2 2 1 1 1 1 2 2 2 2 2 1 1 1 1 0 2 1 0 -0 0 0 0 0 0 -0 -0 -0 0 0 0 0 0 0 2 2 2 1 1 1 1 2 3
2 2 1 1 1 1 1 2 2 2 1 1 1 1 1 0 3 3 2 -0 0 -0 -0 -0 0 0 -0 -0 0 0 -0 -0 -0 -0 -0 -0 -0 -1 -0 0 1 1 1
2 2 2 1 2 1 2 2 1 1 1 1 1 1 0 0 3 4 2 1 1 1 -0 -0 -0 -0 1 2 0 1 1 0 0 1 1 1 1 1 1 0 2 3 3
2 2 1 1 1 2 2 2 1 1 1 1 1 0 1 1 4 5 2 1 1 1 0 0 2 0 3 3 0 1 1 1 0 -0 -0 0 0 -0 1 -1 1 3 3
1 1 1 1 1 1 2 1 1 1 2 2 1 1 1 1 0 5 4 0 1 1 1 1 -0 4 4 4 4 0 1 1 0 0 1 0 1 1 0 -1 -1 1 2
1 1 2 1 2 2 3 2 1 1 2 2 2 2 1 0 4 5 5 5 2 1 1 0 0 5 5 5 3 3 3 3 1 1 2 2 2 2 1 0 -0 -1 0
2 2 2 1 1 2 3 2 2 2 2 2 3 2 2 1 0 6 7 6 5 1 1 3 5 6 6 5 3 4 4 2 2 3 3 3 2 2 1 1 0 -1 0
2 2 2 2 2 1 1 1 2 2 2 3 2 2 2 2 1 1 1 3 5 3 4 1 3 4 4 2 3 3 3 2 3 4 4 4 3 3 3 3 2 1 3
2 2 2 2 2 2 3 2 1 1 3 2 2 2 2 2 1 3 3 1 0 3 3 1 0 1 1 1 2 2 2 3 4 5 5 5 5 5 5 4 2 2 3
2 2 2 2 2 2 3 5 12 11 12 12 11 4 3 8 10 10 9 10 10 9 3 1 2 1 1 1 2 3 3 5 5 5 6 6 6 6 5 4 2 2 3
2 2 2 2 2 2 2 2 3 7 12 13 12 10 8 10 11 11 11 11 10 8 2 1 1 2 2 3 3 4 5 5 5 5 6 6 6 6 6 4 4 4 5
1 5 2 2 2 2 2 2 2 2 3 4 10 8 11 11 11 11 10 8 4 4 1 2 2 3 4 4 4 5 5 6 6 6 6 6 6 6 6 5 4 5 4
2 1 1 1 1 2 1 2 2 2 2 3 4 7 9 11 10 9 9 1 1 2 2 3 3 4 4 4 4 5 6 7 7 6 6 6 6 6 6 6 5 5 4
1 3 2 1 2 2 2 2 2 2 2 2 2 2 3 4 2 2 1 1 2 2 3 3 4 4 3 4 5 6 6 6 6 6 6 5 5 5 6 6 5 5 4
1 1 2 1 2 2 2 2 2 2 2 2 2 1 5 1 1 1 1 1 2 3 3 3 3 4 4 5 6 6 5 5 5 5 5 5 5 5 5 5 5 5 5
1 2 1 1 1 2 2 1 2 2 1 2 1 2 9 1 1 1 1 2 2 2 2 3 4 5 5 6 6 5 5 5 5 6 6 6 5 5 5 5 5 5 5
1 1 1 1 1 2 2 1 2 1 2 1 1 1 2 1 2 2 1 1 2 2 2 4 5 5 6 6 5 5 5 5 6 6 6 6 6 6 5 6 6 6 6
1 1 1 1 1 1 2 2 1 3 1 1 1 1 1 2 3 2 1 1 1 2 3 4 5 6 6 7 6 5 5 5 5 5 5 5 5 5 5 5 5 5 6
1 1 1 1 1 1 2 1 1 1 1 1 1 2 2 1 1 1 1 1 1 2 3 4 4 6 7 8 8 7 10 12 8 10 5 5 5 4 5 5 5 5 6
1 1 1 1 1 1 1 1 1 1 1 1 1 1 1 1 0 0 1 2 2 2 3 4 4 5 6 7 7 10 13 13 8 12 6 4 5 5 5 5 5 5 6

GFSGL_con_lsi_012.txt.gz
Lid_Strength_Index
1 1 1 0 0 0 0 0 -0 -1 -1 -1 -1 -1 -1 -1 -1 -1 -1 -1 -0 -1 -1 -1 -0 -1 0 -0 -0 -0 0 1 3 1 0 -1 -1 -1 -1 -2 -2 -2 -2
1 0 1 0 0 0 1 0 0 0 -1 -1 -1 -0 -1 -1 -1 -1 -0 -1 -0 -0 -0 -0 -0 -0 -1 -1 0 -1 -0 -0 1 2 1 1 -0 -1 -1 -1 -1 -1 -2
1 1 1 1 1 1 0 0 0 -0 0 0 -0 0 -0 -0 -0 -1 -1 -0 -0 -0 -0 -0 -0 -0 -0 -0 -0 0 0 -0 0 1 2 0 -0 -0 -0 -1 -1 -1 -1
1 1 1 1 1 1 0 1 0 1 0 0 0 0 -0 -0 -0 -0 -0 -0 -0 -1 -1 -1 -0 -0 -0 -0 -0 -0 -0 1 0 1 2 1 1 -0 0 1 1 -0 -0
1 1 1 1 0 0 0 0 0 0 0 0 1 0 -0 0 0 -0 -0 -0 -0 -0 -1 -1 -1 -1 -0 -0 0 -0 -0 1 1 1 2 2 2 2 2 1 1 1 0
1 1 1 1 1 1 1 0 0 0 0 1 1 1 1 1 1 1 0 -0 -0 -0 0 -0 -1 -0 -0 0 0 0 -0 1 1 2 2 2 2 1 1 1 1 2 3
1 1 1 1 1 1 1 1 1 1 1 2 2 2 1 0 2 2 1 -0 -0 -0 -0 -0 0 0 -0 -0 0 1 0 1 0 0 1 1 1 0 1 1 1 1 2
2 1 1 1 1 1 1 1 1 1 2 1 1 0 1 1 3 3 1 -0 -0 -0 -0 -0 0 1 -0 -0 -0 -0 -0 -1 -1 -0 -0 -0 -1 -1 -1 -0 0 1 1
2 2 1 1 1 2 2 2 1 1 2 2 1 0 0 1 4 5 2 0 0 1 0 0 0 0 2 2 -0 0 0 -0 0 1 1 1 1 1 0 0 1 2 3
2 1 1 1 1 2 1 1 1 2 2 2 1 0 2 1 4 6 4 1 1 1 0 -0 3 1 3 3 0 0 1 0 -0 -0 -1 -0 -1 -1 -0 -0 1 3 3
1 1 1 1 1 1 1 1 1 2 2 1 1 1 1 1 1 6 5 1 1 1 1 1 1 4 5 5 4 -0 0 0 0 0 0 -0 -0 -1 -0 -1 -1 0 2
1 1 1 1 1 1 2 2 2 2 1 1 1 1 1 0 3 6 6 4 2 1 1 1 2 6 5 5 3 3 3 3 0 0 1 1 1 1 0 -0 -1 -1 -1
1 1 2 1 1 1 2 2 2 2 2 2 2 2 2 1 0 6 6 6 4 1 0 3 6 6 6 5 4 3 4 0 1 1 1 1 1 1 1 -0 -1 -2 -1
2 2 2 2 2 2 2 2 2 2 2 2 2 2 2 2 1 0 2 1 4 2 4 1 2 3 4 3 1 2 -0 -0 1 1 1 1 1 2 3 3 3 2 1
2 2 2 2 2 2 6 5 2 1 4 2 2 2 2 3 2 3 3 0 0 2 1 0 1 1 1 1 0 -0 0 -0 1 1 2 2 3 3 4 4 4 1 2
2 2 2 2 2 2 2 2 13 11 11 11 11 5 4 8 10 10 11 11 10 8 2 1 1 1 1 1 1 1 0 2 1 2 2 2 3 4 4 4 3 2 2
2 1 2 2 2 2 2 2 2 6 12 13 13 12 9 9 11 12 12 11 10 8 1 1 1 1 1 1 1 1 2 2 2 3 3 3 4 4 4 4 4 2 2
1 5 1 1 1 1 1 2 1 2 2 2 9 8 12 12 12 11 10 8 2 3 1 1 1 1 1 1 1 2 2 3 3 4 4 4 4 4 4 5 4 3 2
1 1 1 1 1 1 1 1 1 1 2 2 4 7 9 11 11 10 9 1 0 0 -0 1 1 1 1 1 1 2 3 4 5 4 4 4 4 4 4 4 4 5 4
1 3 1 1 1 1 1 1 2 2 2 2 2 1 3 4 1 1 0 -0 -0 -0 -1 0 1 1 1 1 2 3 4 4 4 4 4 4 4 4 4 4 4 4 3
1 1 2 1 1 1 1 1 1 1 2 1 1 1 4 1 1 1 1 0 0 -1 -0 1 0 1 1 2 3 4 4 4 4 4 4 4 4 4 4 4 4 4 4
1 1 1 1 1 1 1 0 1 1 1 1 1 2 7 1 1 1 0 0 -0 -1 -1 -0 1 2 2 3 4 4 4 4 3 4 4 4 4 4 4 4 4 4 4
1 1 1 1 1 2 1 1 1 1 1 1 1 1 1 1 1 0 0 -0 -1 -0 -0 1 1 3 2 4 4 4 4 3 3 4 4 4 4 4 4 4 4 4 4
1 1 1 1 1 1 1 1 1 3 1 1 1 1 1 1 0 0 0 -0 -0 -0 0 1 1 2 3 5 4 4 3 3 3 3 4 3 3 4 3 3 4 4 4
1 1 1 0 1 1 1 1 1 1 1 1 1 1 0 0 0 0 -0 -0 -0 0 1 1 2 3 4 5 5 5 10 12 7 11 4 3 3 3 3 3 3 4 4
0 -0 -0 -0 0 0 1 1 1 1 1 1 1 1 1 1 1 0 -0 -0 0 0 1 1 2 3 4 5 5 10 13 12 8 12 6 3 3 3 4 3 4 4 4

GFSGL_con_lsi_015.txt.gz
Lid_Strength_Index
1 1 1 1 0 0 0 0 -0 -0 -0 -1 -0 -0 -0 -0 -1 -1 -1 -1 -0 -0 -0 -1 -1 -1 0 -0 -0 -0 0 1 2 1 0 -1 -1 -1 -1 -2 -2 -2 -2
1 1 1 0 0 1 1 0 -0 0 -0 -0 -0 -0 -0 0 -0 -0 -0 -0 -0 0 -0 -0 0 -0 -0 -0 0 1 1 -0 1 2 1 1 -0 -1 -1 -1 -1 -1 -2
1 1 1 1 1 1 1 0 0 0 0 -0 -0 0 0 0 1 0 0 0 0 -0 -0 0 0 -0 0 0 0 0 0 0 0 1 2 0 0 -0 -0 -0 0 -0 -1
1 1 1 1 1 1 0 0 0 0 0 0 0 0 0 0 0 0 0 1 0 0 -0 -0 -0 0 0 0 0 0 0 1 1 1 1 1 1 1 0 1 2 1 0
1 1 1 1 1 1 1 0 0 0 0 0 0 0 0 0 1 1 0 1 1 0 -0 -0 -0 -0 0 -0 0 0 0 1 1 2 2 2 2 2 2 1 2 1 1
1 1 1 1 1 1 1 1 1 1 0 0 1 1 1 1 2 1 1 1 0 0 1 0 -0 -0 -0 0 0 0 -0 1 2 2 2 2 2 1 1 1 2 2 3
1 1 1 1 1 1 1 1 1 1 1 1 1 0 1 0 2 3 1 0 1 1 1 0 0 0 -0 -0 1 1 1 1 1 0 2 2 2 1 1 1 1 2 2
2 1 1 1 1 1 1 1 1 1 1 1 1 0 1 0 4 4 2 0 0 0 0 -0 -0 0 -0 -0 0 1 1 -0 -0 0 0 0 -0 -1 -0 0 1 1 1
2 2 1 1 1 1 2 2 1 1 2 1 1 1 1 1 5 5 3 1 1 1 0 -0 -0 0 1 2 1 1 1 0 0 1 1 1 1 1 -0 0 1 2 3
2 2 1 1 1 1 2 2 1 1 1 1 2 2 3 0 5 5 3 1 1 1 0 0 2 1 4 4 1 1 2 1 0 -0 -0 -0 1 -0 0 -0 0 2 2
1 1 1 1 1 1 1 1 1 1 1 2 2 1 0 1 0 7 6 1 1 2 1 1 1 5 5 5 4 0 1 0 0 0 0 1 0 -0 -0 -0 -0 1 2
1 1 1 1 1 1 1 1 1 2 2 2 2 2 1 -0 4 7 6 5 2 1 1 1 0 6 7 6 5 2 3 3 0 1 1 1 1 0 -0 -1 -1 -1 -1
1 2 1 1 1 1 2 2 2 2 2 3 2 2 2 1 0 7 7 6 5 2 0 3 5 6 6 6 5 3 3 0 1 1 1 1 0 -0 -1 -1 -1 -2 -1
2 2 2 2 2 1 1 2 2 2 3 3 3 2 2 2 1 0 0 1 4 3 3 2 2 2 2 2 1 2 0 0 1 1 1 1 0 1 1 1 2 2 3
2 2 2 2 2 2 4 3 2 3 3 2 2 2 2 2 1 4 3 1 0 2 1 0 1 1 1 1 1 1 1 1 1 0 1 1 2 2 2 2 3 3 3
2 2 2 2 2 2 3 3 13 11 13 13 12 4 4 8 10 11 11 10 9 7 1 1 1 1 1 2 1 2 1 0 0 0 1 2 3 3 3 3 3 3 2
2 2 2 2 2 2 2 2 3 7 12 13 12 10 8 10 11 12 12 12 10 8 1 1 1 1 1 1 1 1 1 0 -0 1 2 2 3 3 3 4 3 3 3
1 4 1 1 1 1 2 2 2 2 2 2 9 7 12 12 12 12 11 9 3 4 1 1 1 1 1 1 1 1 1 1 2 2 3 3 3 3 4 4 4 4 4
1 1 1 1 1 1 1 1 1 1 2 2 2 6 9 12 11 11 10 1 1 1 1 0 0 0 0 0 1 1 1 2 3 3 3 3 3 4 4 3 3 5 4
1 3 1 1 1 1 1 1 1 1 2 2 2 1 3 5 3 2 1 1 1 1 -0 0 0 -0 0 0 0 1 2 2 3 3 3 3 3 3 4 4 4 4 4
1 1 1 1 1 1 1 1 1 1 2 2 2 1 5 1 1 2 1 1 1 0 -0 -0 -0 -1 -0 0 1 2 3 3 3 3 3 3 3 4 3 3 3 4 4
1 1 1 1 1 1 1 1 1 1 1 1 2 2 8 1 1 1 1 1 0 -1 -1 -1 -0 0 1 2 2 3 3 3 3 3 3 3 3 3 3 3 3 3 4
1 1 1 1 1 2 1 1 1 1 1 1 2 2 1 1 1 1 1 0 -0 -1 -1 -1 0 1 1 2 3 3 3 3 3 3 3 3 3 3 3 3 3 3 3
1 1 2 2 2 1 1 1 1 4 1 1 2 1 1 1 1 1 1 0 -0 -0 -1 -1 0 1 2 3 4 3 3 3 3 3 3 3 3 3 2 3 3 3 3
1 1 2 2 1 1 1 1 1 1 1 1 1 1 1 1 1 1 0 0 0 -0 -0 -0 1 1 2 3 4 4 10 11 6 11 4 3 2 2 3 3 3 3 3
1 1 1 0 1 1 1 1 1 1 2 1 1 1 1 1 1 0 0 0 0 -0 -0 0 1 1 2 3 4 11 13 12 8 12 6 4 3 3 4 3 3 3 3

GFSGL_con_lsi_018.txt.gz
Lid_Strength_Index
1 1 1 1 1 1 1 1 1 0 0 0 0 0 0 0 0 0 1 1 1 1 1 1 1 0 1 1 1 1 1 2 4 2 1 0 0 0 -0 -1 -2 -1 -1
1 1 1 1 1 1 1 1 0 1 0 0 0 0 0 0 0 1 1 1 1 1 1 1 1 1 1 1 1 1 1 1 2 3 2 1 1 0 0 0 -0 -0 -1
1 2 1 1 1 1 1 1 1 1 1 0 0 1 1 1 1 0 1 1 1 1 1 1 1 1 1 1 1 1 1 1 1 2 3 1 1 1 1 0 0 0 -1
1 2 2 2 1 1 1 1 1 1 1 1 1 1 1 1 1 0 1 1 1 1 1 1 1 1 1 1 1 1 1 2 2 2 2 2 2 1 1 2 2 1 1
2 2 2 1 1 1 1 1 1 1 1 1 1 1 1 1 1 1 1 1 1 1 1 1 0 0 0 0 1 1 1 2 2 3 3 2 2 2 3 2 2 2 1
2 2 2 2 1 1 1 1 1 1 1 1 1 1 1 1 2 2 1 1 1 1 1 1 0 0 0 0 0 1 1 2 2 3 3 3 3 2 2 2 2 3 4
2 2 2 2 2 2 1 1 1 1 1 1 1 1 1 1 4 3 1 0 1 1 1 1 1 0 0 0 1 1 1 1 1 2 2 2 2 1 1 2 2 2 3
2 2 2 2 2 2 2 2 1 1 1 1 1 2 1 1 5 4 2 0 1 1 1 1 1 1 1 1 0 1 1 0 0 0 1 1 1 0 0 1 1 1 1
2 2 2 2 2 2 2 2 2 2 2 2 2 2 2 2 6 6 3 1 1 1 1 1 0 1 1 2 1 2 1 1 1 2 1 1 2 3 1 1 2 3 3
2 2 2 1 2 2 2 2 1 1 2 2 2 2 3 2 7 7 4 2 2 1 1 1 1 1 2 4 1 1 2 2 1 1 0 0 1 1 0 0 1 3 3
2 2 2 1 2 1 1 1 2 2 2 2 2 2 2 3 1 7 6 1 1 2 2 1 1 3 5 6 4 1 1 2 1 1 1 1 1 0 0 0 0 1 2
2 2 2 1 1 1 2 2 2 2 2 2 2 2 1 1 4 7 7 6 2 1 2 1 1 6 7 6 5 3 4 3 1 1 1 2 2 1 1 0 -0 -0 -0
2 2 2 2 2 2 2 2 2 2 2 3 3 3 2 1 1 7 8 7 6 2 0 4 5 6 6 6 5 4 3 1 1 2 2 2 1 0 0 0 -0 -0 -0
2 2 2 2 2 2 2 2 2 2 3 3 3 3 2 2 1 2 2 3 5 3 4 3 3 3 3 2 2 3 2 1 1 2 2 1 1 1 1 1 2 2 3
2 2 2 3 2 5 8 6 2 4 3 2 2 2 3 3 2 2 2 1 1 2 1 1 1 2 2 2 1 1 2 1 2 1 1 1 1 1 2 2 2 4 4
3 3 3 2 2 3 4 6 13 12 14 13 12 3 5 8 11 11 11 9 8 6 2 2 2 2 3 2 2 2 1 1 1 1 1 1 2 2 3 3 3 3 3
3 2 2 3 2 2 2 3 4 8 13 14 13 11 8 10 12 12 11 11 9 6 1 2 2 2 2 2 2 2 2 1 1 1 1 1 2 2 3 3 3 3 3
2 4 2 2 2 2 2 2 2 3 3 5 12 9 12 12 12 12 12 8 4 4 1 2 2 1 1 1 1 1 1 1 1 1 2 2 2 2 3 3 3 3 3
2 2 2 2 2 2 2 2 2 2 2 2 4 7 10 12 11 11 10 1 2 2 2 2 1 1 1 1 1 1 1 1 2 2 2 2 2 3 3 3 4 5 4
2 3 2 2 2 2 2 2 2 2 2 2 2 3 4 5 4 3 2 1 1 1 1 1 1 1 1 1 1 1 1 1 1 1 1 2 2 2 4 4 4 4 3
2 1 3 1 2 2 2 2 2 2 2 2 2 2 5 2 2 2 1 1 1 1 1 1 1 0 0 0 0 1 1 2 2 2 2 2 2 3 2 3 3 3 3
1 2 1 2 2 2 1 1 1 1 2 3 2 4 8 1 1 1 2 1 1 0 -0 0 0 0 -0 0 1 2 3 3 2 2 2 3 2 3 2 3 3 3 3
1 2 2 2 3 2 2 1 1 2 2 2 2 3 3 1 1 1 1 1 1 1 0 -0 -1 0 -0 1 2 2 4 3 3 2 3 3 3 2 3 3 3 3 3
1 2 2 2 2 2 2 2 2 3 2 2 2 1 1 1 1 1 1 1 1 0 0 -0 -1 1 1 2 2 3 4 3 4 4 4 4 4 3 3 3 3 3 3
1 2 2 2 2 2 2 2 2 1 1 2 2 1 1 1 1 1 1 0 0 0 0 -0 -0 -0 1 2 3 6 11 11 7 10 5 4 4 3 2 4 3 4 3
1 2 2 2 2 2 2 2 1 2 2 1 1 1 1 1 1 1 1 1 1 0 0 -0 -0 -0 1 2 5 11 14 12 9 12 8 6 5 3 3 4 3 4 3

GFSGL_con_lsi_021.txt.gz
Lid_Strength_Index
2 2 1 1 1 1 1 1 1 1 1 1 1 1 1 1 0 1 2 1 1 2 1 1 1 1 2 2 1 2 2 2 4 3 2 2 1 1 0 1 -0 0 1
2 2 2 1 1 1 1 1 1 1 1 1 1 1 1 2 1 1 2 1 1 2 1 2 1 1 1 1 1 2 2 2 3 4 3 2 2 1 0 1 0 -0 1
2 2 2 2 2 2 1 1 1 1 1 1 1 1 1 1 1 1 2 2 2 1 1 1 1 1 2 1 1 2 2 2 2 3 3 2 2 1 2 2 1 1 0
2 2 2 2 2 1 1 1 1 1 1 1 1 1 1 1 1 1 2 2 1 1 1 2 1 1 1 1 1 2 2 2 2 3 3 3 3 2 2 3 3 2 2
2 2 2 2 1 1 1 1 1 1 1 1 1 1 1 1 1 2 1 1 1 1 1 1 0 0 0 0 1 1 1 2 2 3 3 4 3 2 4 3 3 3 2
2 2 2 2 2 2 1 1 1 1 1 2 2 2 2 1 3 3 1 1 1 1 2 1 1 0 0 1 1 1 1 2 2 3 4 4 3 2 3 3 3 4 4
2 2 2 2 2 2 2 2 2 2 1 2 2 2 2 2 5 5 3 2 1 1 2 1 1 0 0 1 1 1 1 1 1 2 4 4 3 2 2 3 3 3 4
3 3 2 2 2 2 2 2 2 2 2 2 2 3 3 3 6 6 4 3 2 1 1 1 2 2 1 1 1 1 1 1 1 1 2 1 1 1 2 2 3 3 3
3 3 2 2 2 2 2 2 2 2 2 2 2 3 3 4 8 7 5 4 2 3 2 2 3 3 1 2 1 2 2 1 1 2 1 2 2 2 1 4 4 4 5
3 2 2 2 2 2 2 2 2 2 2 2 3 3 5 4 8 8 6 4 3 3 2 1 3 2 2 3 2 2 2 2 2 2 2 2 2 2 1 2 2 4 5
2 2 2 2 2 2 2 2 2 2 4 4 4 4 4 4 6 8 8 3 2 3 2 2 1 3 5 5 4 2 3 4 3 4 4 3 3 2 1 1 1 2 3
2 2 2 2 2 2 2 2 3 3 4 4 4 4 3 3 5 8 7 5 3 2 3 2 2 4 6 6 5 4 5 4 4 4 4 4 3 3 3 2 2 1 1
3 3 2 2 2 2 3 4 4 4 4 4 4 3 3 2 2 7 8 7 6 3 3 5 6 6 7 6 5 4 5 5 4 4 3 3 3 2 2 4 3 4 4
3 3 3 3 4 4 4 3 4 5 4 4 4 3 3 2 3 5 6 7 6 5 5 5 5 5 5 4 5 5 5 4 4 3 2 3 3 4 4 4 5 6 7
3 4 4 4 6 9 12 9 5 7 4 3 3 2 3 3 3 5 5 5 4 4 5 4 4 4 5 5 5 4 4 4 4 2 2 4 5 5 4 5 6 7 8
4 4 5 5 7 8 9 10 15 14 14 12 9 5 7 8 9 10 9 8 7 6 4 3 5 5 5 4 4 4 3 2 2 2 3 5 5 5 5 5 6 7 7
4 4 4 5 5 6 5 6 8 11 14 14 13 11 10 12 12 12 12 10 8 7 4 3 4 4 4 3 3 3 3 3 3 5 4 5 6 6 5 6 7 7 7
3 7 3 3 3 3 4 5 6 6 7 8 12 12 13 13 12 12 11 8 6 6 4 4 4 4 4 4 5 4 5 5 5 7 7 7 6 6 6 7 7 7 8
3 3 2 2 2 3 2 3 3 4 5 7 10 11 12 12 12 11 10 5 4 4 4 4 3 4 5 5 4 4 5 5 6 6 7 6 5 7 7 7 6 6 6
4 4 3 2 2 2 2 3 3 3 4 6 7 7 9 9 8 8 6 5 4 4 4 4 4 4 5 5 4 4 5 5 5 5 5 6 6 6 7 7 6 7 7
3 4 4 4 4 4 4 3 2 3 4 4 4 5 8 6 5 5 5 4 3 3 4 4 4 5 4 4 4 5 6 6 7 7 7 7 7 7 6 6 7 6 6
3 4 4 4 3 3 3 3 3 3 3 4 4 6 9 5 3 3 3 3 2 2 2 3 4 5 4 5 6 7 8 8 7 7 7 7 7 7 7 7 6 6 7
4 3 3 3 3 4 4 4 4 3 3 3 4 5 6 5 3 3 3 3 2 2 2 2 4 5 5 6 7 8 9 8 7 7 7 8 8 7 7 7 7 7 8
3 2 2 3 3 3 3 4 4 5 4 4 4 5 5 4 3 3 2 3 2 2 2 2 3 5 6 6 8 9 8 8 8 9 9 9 8 8 7 7 7 7 7
3 2 2 3 3 3 3 3 3 3 2 3 3 4 4 3 3 3 2 2 3 2 2 2 4 4 5 8 10 11 11 11 11 10 9 9 9 9 8 8 8 7 7
2 2 3 2 2 3 3 4 3 2 2 3 3 3 3 3 3 3 3 3 3 2 2 3 3 4 5 7 9 12 13 12 11 12 11 11 10 9 8 8 7 7 7

GFSGL_con_lsi_024.txt.gz
Lid_Strength_Index
2 2 1 1 1 1 1 1 1 2 2 1 1 1 2 2 2 1 2 2 2 2 1 2 2 2 2 3 2 2 3 3 4 4 3 3 1 2 1 1 0 1 0
2 2 2 1 1 1 1 1 2 2 2 1 1 1 2 2 2 1 2 2 2 2 2 2 2 1 2 2 2 2 2 3 3 4 3 3 2 2 2 1 0 -0 0
2 2 2 2 2 2 1 1 2 2 2 2 1 1 2 2 2 2 1 2 2 2 2 2 2 3 2 3 1 2 2 2 2 3 4 3 3 3 3 3 2 2 1
2 2 2 2 2 1 1 1 1 1 2 2 2 1 1 2 2 1 1 2 2 2 1 2 2 2 2 1 1 1 2 2 2 2 2 2 3 2 2 4 4 4 3
2 2 2 2 1 1 1 1 1 1 2 2 2 2 2 2 2 2 2 2 2 3 2 2 2 1 1 2 1 1 1 2 2 3 3 3 3 4 3 3 4 4 3
2 3 2 2 2 2 2 1 1 1 1 2 2 2 3 2 3 3 2 2 2 2 2 2 1 0 1 1 1 1 1 2 2 3 3 3 3 3 3 3 4 5 5
3 2 2 2 2 2 2 2 2 2 1 2 3 4 4 3 5 5 4 3 3 3 3 3 1 0 1 1 2 2 1 1 1 1 2 3 4 4 3 4 4 4 4
3 3 2 2 2 2 2 2 2 2 2 2 2 3 3 3 7 7 5 3 3 3 2 2 2 1 2 2 1 2 1 1 1 1 1 1 2 2 3 3 3 4 5
3 3 2 2 2 2 2 2 2 2 2 2 1 3 3 3 8 8 6 4 4 3 2 2 1 2 4 3 2 2 2 2 1 2 2 2 2 2 1 3 3 5 6
3 3 2 2 2 3 2 2 2 2 2 2 2 2 5 3 10 10 6 5 5 4 3 2 4 4 5 5 2 2 3 3 2 2 3 2 2 2 1 1 3 4 4
2 2 2 2 2 2 2 2 2 2 2 2 2 3 4 5 9 11 9 5 4 4 3 3 2 5 6 6 5 2 2 3 3 3 4 3 3 4 2 2 2 2 3
2 2 2 2 2 2 2 2 2 2 2 3 5 5 5 5 9 11 9 7 5 4 4 2 2 5 6 6 6 5 5 4 4 5 5 4 3 3 3 3 3 2 0
2 3 3 2 2 2 2 2 3 3 3 4 4 5 5 4 5 9 9 8 6 2 2 3 6 7 8 6 6 5 5 5 5 6 5 4 3 4 4 4 4 4 5
3 3 3 3 3 2 2 2 3 3 4 4 4 5 4 4 3 5 6 7 6 4 5 6 6 6 6 5 5 5 5 6 5 5 5 4 4 6 6 5 6 6 7
3 3 3 3 3 6 10 6 4 6 5 4 5 4 3 4 4 6 6 6 6 6 6 6 6 5 6 5 5 5 6 5 5 4 4 4 5 7 6 6 6 7 8
4 4 5 7 8 9 9 11 14 12 12 12 10 6 7 8 10 12 13 12 11 9 6 6 6 6 5 5 5 5 5 4 5 4 4 5 6 6 6 7 7 8 8
5 6 7 7 6 6 6 6 9 11 14 14 12 11 9 9 12 12 12 12 10 7 4 4 4 5 5 5 5 5 5 4 4 5 7 7 7 7 7 7 7 8 7
5 8 4 4 4 3 4 6 6 5 7 9 14 12 14 13 13 13 12 9 6 6 5 5 5 5 5 4 5 5 5 5 7 9 8 8 8 7 7 8 8 8 8
4 4 4 4 4 5 5 6 6 7 6 8 10 11 13 14 13 13 10 5 5 5 6 6 5 5 6 6 6 6 6 6 6 7 8 8 7 8 8 8 8 6 7
4 5 4 3 4 4 5 5 5 6 7 7 7 8 11 8 7 7 7 6 5 5 4 5 6 6 6 6 6 6 7 6 7 7 7 7 8 8 9 8 8 8 8
4 3 4 3 3 3 3 3 3 4 6 7 6 8 10 6 7 7 7 6 5 5 6 5 6 6 6 6 7 7 7 8 9 8 8 8 9 9 8 9 9 8 8
5 5 4 4 3 3 3 2 3 3 4 5 5 8 12 6 6 6 6 5 4 3 4 4 5 5 5 5 6 7 8 9 8 8 9 9 9 8 8 8 8 8 8
4 5 5 5 5 6 6 5 3 3 4 4 6 7 7 5 5 4 4 4 4 3 4 5 6 6 7 7 7 8 9 8 8 8 8 9 9 9 9 9 8 9 9
3 4 4 4 4 4 4 4 4 6 4 5 5 6 6 5 4 4 3 3 4 4 3 4 4 6 7 8 9 9 8 8 9 9 9 10 10 10 9 9 9 9 9
3 3 3 3 3 4 4 4 4 4 4 4 4 4 5 5 5 3 4 4 4 3 3 4 5 6 7 8 9 9 10 11 11 11 10 10 11 10 10 9 9 9 9
3 3 3 3 4 4 3 3 3 3 3 4 4 5 4 4 4 4 5 5 5 5 4 4 5 6 7 9 9 10 13 12 11 12 12 12 12 11 10 9 9 9 9

GFSGL_con_lsi_027.txt.gz
Lid_Strength_Index
2 2 2 1 1 1 1 1 1 2 3 2 2 2 3 4 3 3 2 2 3 2 2 2 2 2 3 2 3 3 4 4 5 3 3 3 3 3 2 2 0 1 1
2 2 2 1 1 1 1 1 1 2 3 2 2 2 2 3 3 2 2 2 3 3 3 2 2 2 3 3 3 3 3 3 3 4 3 2 2 3 3 2 1 1 1
2 2 2 2 2 2 1 1 1 2 3 2 2 2 2 2 3 3 2 2 2 2 3 2 2 3 3 3 4 3 3 2 2 3 3 2 2 2 2 3 2 2 2
2 2 2 2 2 2 1 1 1 1 2 3 2 2 2 2 2 3 3 3 3 3 2 2 2 2 3 3 3 3 2 3 2 2 2 2 2 2 2 2 2 3 2
2 2 2 2 2 1 1 1 1 1 1 2 3 3 2 2 2 2 3 3 3 3 3 2 2 1 1 2 3 2 2 3 2 3 3 3 3 3 3 2 3 4 3
2 3 2 2 2 2 2 2 1 1 1 2 3 3 3 2 4 4 2 2 3 3 3 3 2 1 1 2 2 2 2 2 4 3 3 3 3 3 2 2 3 3 5
3 2 2 2 2 2 2 2 2 2 1 2 2 2 3 3 6 5 4 3 4 4 4 3 2 1 1 1 2 2 2 2 1 2 3 2 3 2 2 4 4 4 5
3 3 2 2 2 2 2 2 2 2 2 2 2 2 2 3 6 7 5 4 5 4 3 3 3 2 1 2 3 3 3 2 2 1 1 1 1 1 2 3 3 4 4
3 3 2 2 2 2 2 2 2 2 2 2 2 2 3 3 8 8 7 4 4 4 3 3 3 2 3 3 2 4 3 3 2 3 2 2 2 2 2 3 4 5 5
3 3 2 2 2 3 2 2 2 2 2 2 2 2 4 2 9 9 7 4 5 5 4 3 4 3 5 5 3 3 3 3 2 2 3 3 3 3 2 2 2 3 5
2 2 2 2 2 2 2 2 2 2 2 2 2 2 2 3 6 11 9 5 5 5 4 4 3 7 8 7 6 4 4 2 3 3 4 4 5 4 4 3 2 3 4
2 2 2 2 2 2 2 2 2 2 3 3 2 2 3 4 10 12 10 8 6 5 5 5 4 7 8 8 7 5 5 4 4 5 6 6 6 4 3 4 4 3 2
2 3 2 2 2 2 2 3 3 2 3 3 3 3 5 6 8 11 10 9 8 5 5 5 5 7 8 7 7 6 6 5 5 6 6 6 4 3 4 5 5 6 6
3 3 3 3 3 2 2 2 3 3 3 3 3 4 4 5 6 7 6 7 7 5 5 5 6 6 6 6 6 6 5 5 6 6 6 5 4 5 7 6 7 7 8
3 3 3 3 3 4 9 4 3 3 3 3 3 3 4 4 5 7 7 6 5 5 5 5 6 6 6 6 6 5 6 6 6 6 5 5 5 6 7 7 7 8 8
4 4 3 4 6 7 6 9 15 11 11 10 10 6 4 7 11 12 12 12 11 10 5 5 5 6 6 6 6 6 6 5 6 6 6 5 6 7 7 8 8 8 9
6 6 6 6 6 5 5 6 8 11 11 12 12 10 10 8 12 13 14 13 12 9 6 6 6 7 6 5 6 6 5 5 5 5 5 6 7 9 8 8 8 9 9
3 5 3 4 5 5 6 6 5 4 4 5 13 13 14 14 14 15 14 11 7 6 6 6 5 5 5 5 5 5 5 5 6 6 8 9 9 9 8 9 9 10 9
3 3 3 3 3 5 4 4 3 3 3 6 9 12 14 15 15 14 11 4 5 6 5 5 5 6 6 6 6 6 6 7 8 8 8 8 8 8 9 9 9 7 8
3 3 3 3 3 4 3 3 3 5 6 7 7 9 11 9 7 7 6 6 6 6 6 6 7 6 6 6 6 7 7 8 8 8 8 9 9 9 10 9 9 9 9
3 3 4 3 3 3 4 5 5 6 7 6 7 8 10 5 6 7 7 6 6 6 6 6 6 6 6 6 7 7 7 8 8 9 9 9 9 10 9 9 9 9 9
3 4 4 4 4 4 5 5 5 5 6 6 7 10 12 7 7 7 7 7 5 5 5 6 6 6 6 6 7 7 8 9 9 9 9 10 10 9 9 9 9 9 10
5 4 4 4 4 5 4 4 4 4 5 5 7 9 8 7 7 7 6 5 5 5 6 6 6 6 6 6 7 7 9 9 9 9 10 10 10 10 10 10 10 10 10
4 5 5 5 4 4 4 4 4 6 5 5 6 7 6 6 6 6 6 5 5 5 6 6 5 5 6 7 8 9 10 9 9 9 9 10 10 10 10 10 10 11 10
3 4 4 4 4 5 5 5 4 4 4 4 5 7 6 6 6 5 5 5 5 6 5 5 5 5 6 8 9 10 11 11 9 11 11 11 11 11 11 10 10 10 10
3 3 4 4 5 4 5 4 5 4 4 4 4 5 6 6 5 5 5 5 5 5 5 5 6 6 7 8 9 10 13 12 11 12 12 12 12 12 11 10 9 10 11

GFSGL_con_lsi_030.txt.gz
Lid_Strength_Index
2 1 1 1 1 1 1 1 1 1 1 0 1 1 1 2 2 2 3 2 2 1 1 1 1 0 1 1 1 2 2 2 3 2 1 0 0 -0 -1 -1 -1 -1 -1
2 2 2 1 1 1 1 1 1 1 1 0 1 1 1 2 2 3 3 2 2 1 1 1 1 1 1 0 1 1 1 1 2 3 1 1 0 1 -0 -0 -0 -0 -1
2 2 2 2 2 1 1 1 1 1 1 1 1 1 2 2 2 2 2 2 2 1 1 1 1 1 1 1 1 1 1 1 1 2 2 1 0 -0 -0 1 -0 -1 -0
2 2 2 2 2 1 1 1 1 1 1 1 1 1 2 2 2 2 2 2 2 2 2 1 1 1 1 1 1 1 1 1 1 2 2 1 1 0 0 2 1 0 1
2 2 2 2 1 1 1 1 1 1 1 1 1 2 1 2 2 2 2 2 2 2 1 1 1 2 1 1 1 1 1 1 2 2 2 2 2 2 2 1 2 2 0
2 2 2 2 2 2 1 1 1 1 1 1 1 2 2 1 4 4 2 2 2 2 2 2 2 2 1 2 2 2 1 1 2 2 2 3 2 1 1 1 2 2 3
3 2 2 2 2 2 2 2 2 2 1 1 1 1 1 1 5 5 4 2 2 3 3 3 3 2 2 1 2 2 2 2 2 1 2 2 2 1 1 1 1 2 2
3 3 2 2 2 2 2 2 2 2 2 2 1 1 1 1 6 7 5 2 2 2 2 3 2 2 2 2 0 1 1 0 1 0 0 0 -0 -1 -0 0 1 1 1
3 3 2 2 2 2 2 2 2 2 2 2 1 1 2 1 7 7 6 3 3 3 3 3 3 3 4 5 2 1 1 1 3 3 2 2 3 2 1 1 2 2 3
3 3 2 2 2 2 2 2 2 2 2 1 2 1 3 1 7 8 6 3 4 3 3 4 6 3 7 7 1 2 2 2 1 1 -0 1 2 1 2 -0 0 2 2
2 2 2 2 2 2 2 2 2 2 2 2 2 2 1 2 3 9 8 2 3 4 4 4 4 7 8 8 5 1 1 1 2 1 1 1 2 2 2 0 -1 0 2
2 2 2 2 2 2 2 2 2 2 2 3 2 2 2 1 6 10 10 6 5 4 4 4 4 8 9 8 6 6 7 4 1 1 2 2 3 2 1 0 -1 -1 -1
2 3 2 2 2 2 2 2 3 2 3 3 3 3 3 2 5 11 11 9 9 4 4 6 8 10 10 8 7 7 6 2 2 2 2 2 3 1 0 1 1 1 1
3 3 2 3 3 2 2 2 2 3 3 3 3 3 3 4 6 8 7 6 7 7 8 7 7 6 5 4 5 5 2 2 2 2 2 3 1 1 1 2 2 3 3
3 2 3 2 3 3 4 3 2 2 3 3 3 3 3 6 6 8 8 5 5 6 6 5 4 4 4 4 4 3 3 3 3 3 4 3 2 2 2 3 3 4 4
3 3 3 3 3 6 6 8 14 12 13 12 11 7 6 9 11 10 9 11 12 10 5 4 3 4 3 3 3 4 3 3 3 3 3 2 2 2 3 4 4 4 4
3 4 5 4 4 4 4 6 8 12 14 14 14 11 9 8 11 11 12 12 11 9 3 3 3 3 4 4 3 3 3 2 2 3 2 2 2 3 5 5 4 5 5
2 7 3 4 4 4 3 5 6 6 7 8 12 10 11 9 12 13 13 12 9 6 3 3 3 3 4 4 3 3 2 2 3 2 2 2 4 4 5 4 5 5 5
3 3 2 2 3 5 4 6 6 6 6 5 7 10 12 13 14 15 12 4 5 5 5 4 3 3 4 3 2 3 2 2 2 3 4 5 5 4 4 5 5 7 6
3 5 3 3 3 4 4 5 6 6 7 7 5 6 9 9 8 7 5 4 4 4 4 3 3 3 3 3 4 3 3 4 4 4 4 5 4 5 5 5 5 5 5
2 2 3 2 3 3 4 4 4 3 5 3 4 6 10 4 6 5 5 5 4 4 4 4 5 5 4 4 4 4 4 4 4 4 4 4 5 5 5 5 5 5 5
2 2 2 3 3 3 3 3 3 3 3 5 8 9 11 4 5 5 4 4 4 4 4 4 4 3 4 3 3 3 3 4 4 5 5 5 5 6 5 5 5 5 6
3 3 3 3 3 5 3 4 4 5 5 6 7 7 6 5 5 4 4 4 4 5 5 4 3 4 4 3 3 3 4 4 4 5 5 6 6 6 5 6 6 6 6
3 3 3 4 3 3 4 4 4 7 5 5 5 6 6 6 5 5 4 4 4 5 4 4 3 4 4 4 3 3 4 4 5 5 5 6 6 7 6 6 6 6 6
3 3 3 3 3 3 3 3 3 3 4 4 5 5 5 5 4 4 4 4 4 4 4 4 4 4 4 4 3 4 7 11 6 8 6 5 6 6 7 6 6 6 6
2 2 3 3 3 4 3 3 3 3 4 4 4 5 5 5 4 5 4 4 4 3 3 4 4 4 5 4 4 8 13 12 9 11 6 7 7 8 7 6 6 6 6

GFSGL_con_lsi_033.txt.gz
Lid_Strength_Index
1 1 1 1 1 0 1 0 0 -0 -0 -0 -0 -0 -0 -0 -0 -0 -0 -0 0 0 -0 0 0 -1 0 -0 -0 0 1 1 2 1 -0 -1 -1 -1 -2 -2 -2 -2 -2
1 1 1 1 1 1 1 0 -0 0 -0 -0 0 0 0 -0 -0 0 0 0 0 1 0 0 0 0 0 -0 0 0 0 -0 1 2 0 0 -0 -1 -1 -1 -1 -2 -2
1 1 1 1 1 1 1 0 0 0 0 0 0 0 0 0 0 -0 0 0 0 0 0 0 0 0 1 0 0 0 0 0 0 1 1 0 -0 -1 -0 -1 -1 -2 -1
1 1 2 1 1 1 1 1 0 0 0 0 0 0 0 0 0 0 0 0 0 0 -0 0 0 0 0 0 1 0 0 1 1 1 1 1 1 -0 -0 1 1 -0 -0
2 2 2 1 1 1 1 1 1 0 0 0 0 0 0 0 0 0 0 0 0 1 0 0 -0 -0 0 0 1 0 0 1 1 2 2 2 2 1 1 0 1 0 -0
2 2 2 1 1 1 1 1 1 1 1 1 1 1 1 1 3 3 1 1 0 1 1 0 -0 1 1 3 2 1 0 1 1 2 2 2 1 1 1 1 1 2 2
2 2 2 1 2 1 1 1 1 1 1 1 1 1 1 1 5 4 3 0 1 1 1 1 1 0 1 0 3 3 1 1 1 0 1 1 1 0 -0 1 1 1 2
2 2 2 2 2 1 1 2 1 1 1 1 1 1 1 1 6 5 4 0 0 0 0 0 0 0 0 0 0 0 0 -0 -0 -0 -0 -0 -1 -1 -1 -0 -0 0 0
2 2 2 2 2 2 2 2 1 1 1 1 1 1 1 1 6 7 4 1 1 1 0 0 0 0 2 5 1 1 1 0 2 2 2 3 2 1 0 -0 1 2 2
2 2 2 1 2 2 2 2 1 1 1 1 1 1 2 1 7 8 5 1 1 1 1 0 5 1 6 8 1 1 2 1 0 0 -0 1 1 1 2 -1 -0 2 2
1 1 1 1 2 1 1 1 1 2 1 2 2 1 1 1 1 8 8 1 1 2 2 1 1 7 9 9 6 1 1 0 1 0 0 0 -0 -0 -0 -1 -1 0 1
1 2 2 2 2 1 2 2 2 1 2 2 2 2 1 1 5 9 9 7 3 1 2 1 1 9 10 11 7 6 8 3 0 1 1 1 1 1 -0 -1 -2 -2 -2
2 2 2 1 2 1 2 2 2 2 2 3 3 3 2 2 1 8 10 9 8 1 1 3 7 11 11 10 7 8 6 0 1 1 2 1 0 -0 -1 -1 -2 -2 -2
2 2 2 2 2 2 2 2 2 2 3 3 3 3 3 2 2 6 7 8 9 5 7 7 7 7 6 5 5 6 1 0 1 1 1 0 -0 0 0 -0 0 0 0
2 2 2 2 2 2 2 2 2 2 2 2 2 2 3 4 6 9 8 6 7 8 6 4 5 5 4 4 3 3 1 0 1 1 1 1 1 1 1 -0 0 0 1
3 2 2 2 2 2 3 3 13 14 12 11 11 4 2 10 13 14 14 14 12 11 5 4 4 3 4 3 2 2 1 1 1 1 1 1 1 1 1 1 0 1 1
2 3 2 3 2 3 3 3 4 7 15 15 14 14 12 12 14 14 14 12 11 8 3 3 3 3 2 2 2 2 2 1 -0 1 1 1 1 1 1 1 1 2 1
2 6 2 3 2 3 3 3 3 4 6 10 14 13 14 15 15 14 13 10 8 4 2 3 3 2 2 2 1 1 1 1 1 1 1 1 1 1 1 1 1 1 2
2 2 2 2 3 4 4 4 4 4 4 6 8 12 15 16 17 16 13 3 4 3 2 2 2 2 2 1 1 1 1 1 1 1 1 1 1 1 1 1 2 5 4
2 4 3 2 3 4 4 4 5 6 6 6 6 6 10 10 8 8 4 2 2 2 2 2 2 1 1 1 1 1 1 1 1 1 1 0 0 0 1 2 3 3 3
2 2 3 1 2 2 2 3 3 4 5 5 5 6 10 5 6 5 2 2 2 2 2 1 1 1 1 1 1 1 1 1 1 0 1 1 1 2 2 2 3 3 3
2 2 2 2 2 2 2 2 2 3 3 3 5 7 11 3 3 3 2 2 1 1 1 1 1 1 1 2 1 1 1 2 1 1 1 2 2 2 2 3 3 3 4
2 2 2 2 2 3 2 2 2 2 3 4 4 4 3 2 2 2 2 2 2 1 0 1 1 1 2 1 1 1 1 1 1 1 2 2 3 3 3 3 3 4 4
1 2 2 2 2 2 3 3 3 6 4 4 4 3 2 2 3 2 2 2 2 2 1 1 1 2 2 2 1 1 1 1 2 2 2 3 3 4 3 3 3 4 4
1 2 2 2 2 2 3 2 2 2 2 3 3 3 3 3 2 1 2 2 2 2 2 1 2 2 2 1 1 1 7 10 4 6 2 3 3 3 3 3 4 4 4
1 2 2 2 2 2 2 3 3 2 2 3 3 3 2 2 2 2 2 1 1 2 2 2 2 2 1 1 1 7 14 13 7 10 3 3 3 4 4 4 4 4 4

GFSGL_con_lsi_036.txt.gz
Lid_Strength_Index
1 1 1 1 0 0 0 0 0 -0 -0 -0 -0 -0 -0 -0 -1 -0 -0 -0 -0 -0 -1 -0 -0 -1 -0 -0 -0 -0 0 0 2 1 -0 -1 -1 -1 -2 -2 -2 -2 -2
1 1 1 1 1 1 0 0 -0 0 -0 -0 -0 -0 -0 -0 -0 0 0 -0 0 0 0 -0 0 -0 -0 -1 -0 -1 -0 -1 1 1 -0 0 -0 -1 -1 -1 -1 -2 -2
1 1 1 1 1 1 1 0 0 0 0 -0 -0 0 0 -0 -0 -0 -0 0 0 0 0 0 0 -0 0 0 -0 0 0 0 0 1 1 0 -0 -1 -0 -1 -1 -2 -1
1 1 1 1 1 1 1 0 0 0 0 0 0 0 0 0 -0 0 -0 0 0 0 -0 -0 -0 0 0 0 0 0 -0 0 0 1 1 1 1 -1 -0 1 1 -0 -0
1 1 1 1 1 1 1 1 0 0 0 0 0 0 0 0 0 0 0 0 0 0 0 -0 -0 -0 1 0 0 0 0 1 1 1 2 1 1 1 1 0 1 0 -0
1 2 1 1 1 1 1 1 1 1 0 0 1 1 1 0 3 3 1 0 0 0 1 0 -0 0 0 2 2 1 0 1 1 1 1 2 1 1 0 1 1 1 2
1 1 1 1 1 1 1 1 1 1 1 1 1 1 1 0 5 4 3 0 0 1 0 0 0 0 0 -0 2 3 2 2 1 0 1 1 0 0 -0 0 0 1 1
2 2 1 1 2 1 1 1 1 1 1 1 1 1 1 1 6 6 4 0 0 0 0 0 0 0 0 0 0 0 0 -0 -0 -0 -0 -0 -1 -1 -1 -1 -0 -0 -0
2 2 2 1 2 1 2 2 1 1 1 1 1 1 1 1 7 8 4 0 1 1 0 0 0 0 2 4 0 1 1 0 2 3 2 2 3 2 0 -0 1 1 2
2 2 1 1 1 2 1 1 1 1 1 1 1 1 2 1 7 8 5 1 1 1 0 0 4 1 6 7 1 1 2 1 1 0 -0 1 2 1 2 -1 -0 2 2
1 1 1 1 1 1 1 1 1 1 1 1 1 1 1 1 1 10 8 1 1 1 1 1 1 6 9 9 5 1 2 1 1 1 1 0 -0 -0 -0 -1 -1 0 1
1 1 1 1 1 1 1 1 1 2 2 2 2 2 1 1 4 9 10 5 2 1 2 1 1 9 9 10 7 6 8 4 1 1 1 1 1 1 -0 -1 -2 -2 -2
1 2 1 1 1 1 2 2 2 2 2 2 3 3 2 1 1 8 11 9 6 2 1 2 7 11 11 10 8 8 7 1 1 2 2 1 1 0 -1 -1 -2 -2 -2
2 2 1 2 2 1 1 2 2 2 2 2 3 3 2 2 1 1 4 7 8 5 6 4 7 7 7 6 7 6 2 1 1 2 2 1 0 0 0 -0 0 0 0
2 2 2 2 2 2 2 2 2 1 2 2 2 2 2 2 2 4 7 6 4 6 7 6 6 6 6 5 4 3 1 1 1 1 1 1 1 1 1 -0 0 0 1
2 2 2 2 2 2 2 2 11 12 14 16 15 8 1 9 14 14 14 14 13 12 6 6 6 5 5 4 3 3 2 2 1 1 1 1 1 1 1 1 0 1 1
2 2 1 3 2 2 2 2 3 6 15 16 17 16 13 13 15 16 16 15 13 11 6 7 6 5 4 3 2 2 2 1 0 1 1 1 1 1 1 1 1 1 1
2 6 2 2 2 2 3 3 3 3 3 3 11 16 17 17 16 16 16 13 11 9 5 6 5 4 2 2 2 2 2 1 1 1 1 1 1 1 1 1 1 1 1
2 2 2 2 2 3 2 3 4 5 5 6 7 11 12 15 14 16 16 5 6 5 3 3 2 2 2 2 2 1 1 1 1 1 1 1 1 1 1 1 1 4 3
2 3 3 2 2 2 2 2 3 3 4 5 5 7 7 8 7 7 7 6 3 2 2 2 1 1 1 1 1 1 1 1 1 1 1 1 0 0 1 1 1 1 2
2 1 3 1 2 1 1 2 2 2 3 4 5 5 11 5 6 5 5 4 3 2 1 1 1 1 1 1 1 1 1 1 1 1 1 0 0 1 0 0 1 2 2
2 2 1 2 1 1 2 1 1 1 1 2 2 6 12 2 3 4 4 3 2 1 1 1 1 1 1 1 1 1 1 1 0 0 0 0 0 0 1 1 2 2 3
1 2 2 2 2 3 2 2 2 2 2 2 2 2 2 2 2 2 2 2 1 1 1 1 1 1 0 -0 -0 0 1 1 1 -0 0 0 1 1 1 2 3 3 3
1 1 2 2 2 2 2 2 2 6 4 4 2 2 2 2 2 2 2 1 1 0 0 0 0 0 0 0 0 1 1 1 -0 -0 -0 0 1 3 2 2 3 3 3
1 1 2 2 2 2 2 2 2 2 2 2 3 2 2 2 2 1 1 1 1 1 1 1 1 1 1 1 1 1 9 9 2 5 1 1 2 2 2 2 3 3 3
1 1 1 2 2 2 2 2 2 2 2 2 1 1 1 1 1 1 0 1 1 1 1 1 1 1 1 1 2 10 15 13 6 10 2 2 2 2 2 3 3 4 4

GFSGL_con_lsi_039.txt.gz
Lid_Strength_Index
1 1 1 1 1 0 0 0 0 -0 -0 -0 -0 -0 -0 -0 -0 -0 -0 -0 0 0 -0 -0 0 -1 0 -0 -0 -0 0 1 2 1 -0 -1 -1 -1 -2 -2 -2 -2 -2
1 1 1 1 1 1 1 0 -0 0 -0 -0 -0 0 -0 0 -0 0 0 0 1 1 1 0 0 0 0 -0 0 -0 0 -1 1 1 0 0 0 -1 -1 -1 -1 -1 -2
1 1 1 1 1 1 1 0 0 0 0 0 0 0 0 0 0 0 0 0 0 0 0 1 0 0 1 0 0 0 0 0 0 1 1 0 -0 -0 -0 -1 -1 -2 -1
1 1 1 1 1 1 1 1 0 0 0 0 0 0 0 0 0 0 0 0 0 0 0 0 0 0 0 1 0 0 0 1 1 1 1 1 1 -1 -0 1 1 0 0
1 1 1 1 1 1 1 1 0 0 0 0 0 0 0 0 0 0 0 1 1 1 0 0 0 0 1 1 1 0 0 1 1 1 2 2 1 1 2 1 1 1 -0
1 1 1 1 1 1 1 1 1 1 1 1 1 1 1 1 3 4 1 1 1 1 1 0 0 1 1 2 2 1 0 1 1 2 2 2 1 1 0 1 1 2 3
1 1 1 1 1 1 1 1 1 1 1 1 1 1 1 1 5 5 4 0 1 1 1 1 1 0 1 0 2 2 2 2 1 1 2 1 1 -0 -0 0 1 1 2
2 2 1 1 2 1 1 1 1 1 1 1 1 1 1 1 6 7 5 0 1 1 0 1 1 1 0 0 0 1 0 0 0 0 0 0 -0 -1 -1 -0 -0 -0 0
2 2 1 1 2 2 2 2 1 1 1 1 1 1 1 1 7 8 6 1 1 1 0 0 0 1 2 4 1 1 1 1 2 3 3 3 3 2 1 0 1 2 3
2 2 1 1 1 2 2 2 1 1 1 1 1 1 2 1 6 9 7 1 1 1 1 0 4 1 5 7 1 1 2 2 1 1 1 2 1 1 3 -0 0 2 2
1 1 1 1 1 1 1 1 1 1 1 1 1 1 1 1 1 10 10 1 1 2 1 1 1 7 8 10 5 1 2 1 1 1 1 1 0 0 0 -0 -1 0 2
1 1 1 1 1 1 1 1 1 2 2 2 2 2 1 1 5 9 11 8 3 1 2 1 1 9 10 11 8 5 8 4 1 1 2 2 1 1 0 -0 -1 -1 -1
1 1 1 1 1 1 2 2 2 2 2 3 2 3 2 1 1 9 12 11 8 2 1 3 9 11 11 10 9 9 7 1 1 2 2 2 1 1 0 -0 -1 -2 -2
2 2 1 2 2 1 1 2 2 2 2 2 3 3 2 2 1 1 2 5 9 6 4 1 4 6 7 4 7 6 2 1 2 2 2 1 1 1 1 0 1 1 1
2 2 2 2 2 2 2 1 2 1 2 2 2 2 2 2 2 4 3 1 1 4 3 4 5 4 5 6 5 4 2 2 2 2 2 2 2 1 2 1 1 1 2
2 2 2 2 2 2 2 2 12 10 15 16 16 7 2 9 13 14 14 13 12 12 5 5 5 5 5 5 5 4 3 2 2 1 1 2 2 2 2 1 1 1 2
1 1 2 3 2 2 2 2 3 7 16 17 16 16 17 17 15 16 15 15 15 13 5 5 5 5 6 5 5 4 3 2 1 1 2 2 2 2 2 2 2 1 1
2 8 1 1 2 2 2 2 2 2 3 2 11 13 16 16 17 18 18 15 10 9 4 4 5 5 5 5 4 4 2 2 2 1 2 2 2 2 2 2 2 2 2
1 2 1 1 2 2 2 2 2 2 2 2 2 7 10 16 16 17 16 6 7 6 5 6 5 4 4 3 3 3 2 2 2 2 2 2 2 2 2 1 1 3 2
1 4 3 2 2 2 2 2 2 2 2 2 2 2 3 4 3 5 4 5 5 4 4 4 2 3 2 2 2 2 2 2 2 2 2 2 1 1 1 1 1 1 1
1 1 3 2 2 2 2 2 2 2 2 2 1 4 11 2 3 3 2 4 3 3 3 2 2 2 2 1 1 2 2 2 1 1 1 1 1 1 1 1 1 1 1
1 1 1 2 1 2 2 1 2 2 2 2 2 2 10 1 1 1 1 1 1 1 1 1 1 2 1 1 1 1 1 2 1 1 1 1 1 1 2 1 1 1 2
1 2 2 2 2 3 2 2 2 2 2 2 2 2 1 2 1 1 2 1 1 1 0 1 1 1 1 1 0 1 1 1 1 0 1 1 1 2 2 1 2 3 3
2 2 2 2 2 2 2 2 2 4 2 2 2 2 2 2 1 2 1 1 1 1 0 1 1 1 1 0 0 -0 -0 -0 -0 -0 0 1 2 3 1 2 2 3 3
1 2 2 2 2 2 2 2 2 2 2 2 2 2 2 1 1 0 1 1 1 1 1 1 0 0 0 -0 -0 1 11 10 2 5 1 1 1 -0 2 2 3 3 3
4 3 2 3 3 3 2 3 3 2 2 2 2 2 2 2 1 1 1 0 0 0 0 0 0 0 0 0 3 12 15 12 6 11 2 2 2 2 2 3 3 3 3

GFSGL_con_lsi_042.txt.gz
Lid_Strength_Index
1 1 1 1 1 1 1 1 0 0 0 0 0 0 0 0 0 0 1 1 1 1 1 1 1 0 1 1 0 1 1 2 3 2 1 0 0 0 -0 -1 -2 -1 -1
1 1 1 1 1 1 1 1 0 1 0 0 0 0 1 0 0 1 1 1 1 1 1 1 1 1 1 1 1 1 1 1 2 3 2 1 1 0 -0 0 -0 -1 -1
1 1 1 1 1 1 1 1 1 1 1 0 0 1 1 1 1 1 1 1 1 1 1 1 1 1 1 1 1 1 1 1 1 2 2 1 1 0 1 0 0 -0 -1
1 2 2 2 1 1 1 1 1 1 1 1 1 1 1 1 1 1 1 1 1 1 1 1 1 1 1 1 1 1 1 1 2 2 2 2 2 1 1 2 2 0 1
2 2 2 1 1 1 1 1 1 1 1 1 1 1 1 1 1 1 1 1 1 1 1 1 0 1 1 1 1 1 1 2 2 2 3 2 2 2 2 1 2 1 1
2 2 2 2 1 1 1 1 1 1 1 1 1 1 1 1 3 4 1 1 1 1 1 1 1 2 2 3 2 2 1 2 2 2 3 3 3 2 2 2 2 3 4
2 2 2 2 2 2 1 1 2 1 1 1 1 1 1 1 5 6 4 1 1 1 1 1 1 1 1 1 3 3 3 2 1 1 2 2 2 1 1 2 2 2 3
2 2 2 2 2 2 2 2 2 1 2 2 1 1 1 1 6 7 6 1 1 1 1 1 1 1 1 1 1 2 1 1 1 1 1 1 1 0 1 1 1 1 1
2 2 2 2 2 2 2 2 2 2 2 2 1 1 1 1 7 8 7 1 1 1 1 1 1 1 2 5 1 2 2 1 2 3 2 3 2 2 1 1 2 3 3
2 2 2 2 2 2 2 2 1 1 2 1 2 1 2 1 6 9 8 1 2 2 1 1 5 2 6 8 2 2 2 2 1 1 1 3 2 2 3 0 1 3 3
2 2 2 1 2 2 2 2 2 2 2 2 2 1 1 1 1 10 11 1 2 2 2 2 1 7 9 10 8 1 2 1 2 1 1 1 1 1 2 0 0 1 2
1 2 2 2 2 2 2 2 2 2 2 2 2 2 1 1 6 8 12 10 4 2 2 1 1 8 10 11 9 6 8 5 1 2 2 2 2 2 1 1 -0 -0 0
1 2 2 2 2 1 2 2 2 2 2 3 3 3 2 2 1 9 11 12 11 5 1 2 8 11 11 10 10 8 9 2 2 2 3 2 2 2 1 0 0 0 0
2 2 2 2 2 2 2 2 2 2 3 3 3 3 3 2 2 1 4 7 10 8 5 3 4 6 7 6 6 7 3 1 2 2 2 2 2 2 1 1 1 1 2
2 2 2 2 2 2 2 2 2 2 2 2 2 2 3 3 2 7 5 2 2 5 4 2 2 2 2 3 3 4 2 2 2 2 2 3 3 2 2 1 1 2 3
2 2 2 2 2 2 2 2 15 14 15 16 15 8 4 13 16 15 12 12 12 13 4 3 3 3 3 3 4 4 3 2 2 2 2 2 4 3 2 2 1 2 3
2 2 2 3 2 3 3 3 3 12 17 17 17 17 17 17 18 17 19 18 16 12 3 3 3 3 5 4 5 4 4 2 2 2 3 4 3 2 2 2 2 2 3
1 9 2 2 2 2 2 2 2 3 3 3 14 14 18 18 18 18 16 13 5 7 3 4 3 3 3 4 4 4 2 2 2 2 3 4 3 2 3 3 3 3 3
1 2 2 2 3 4 3 3 3 3 4 4 3 7 9 13 14 14 15 3 4 5 5 6 5 5 4 4 4 4 3 3 3 2 3 3 2 2 3 3 3 5 4
2 4 3 2 2 2 2 2 3 3 3 2 2 2 2 2 3 3 2 2 3 3 4 5 4 3 3 2 3 3 3 3 2 2 2 2 2 2 2 2 3 3 3
2 2 3 2 2 2 2 2 2 2 3 2 2 3 10 2 2 2 2 2 2 2 1 1 1 1 1 2 2 2 2 2 2 2 2 2 2 2 2 2 2 3 3
2 2 2 2 2 2 2 2 2 2 2 2 2 4 9 2 2 2 2 2 1 1 1 1 1 1 1 1 1 2 2 2 2 2 2 2 2 2 2 2 2 3 4
2 2 2 2 2 3 2 2 2 2 2 2 2 2 2 2 2 2 2 1 1 1 0 0 1 1 1 1 1 1 2 2 1 1 1 2 2 2 2 3 3 4 5
2 2 2 2 2 2 2 2 2 4 2 2 2 2 2 2 2 2 1 1 1 1 0 0 0 1 0 1 0 0 1 0 0 0 1 1 1 3 2 3 4 4 5
3 2 2 3 3 2 2 2 2 3 3 4 3 3 2 2 2 1 1 1 1 1 1 0 0 0 0 0 0 0 5 8 1 5 1 1 1 2 2 3 4 4 4
4 3 3 3 3 3 4 4 4 4 4 5 5 5 5 4 3 1 1 1 2 1 0 0 0 0 0 0 5 13 16 13 9 10 2 2 2 2 3 3 3 4 4

GFSGL_con_lsi_045.txt.gz
Lid_Strength_Index
2 1 1 1 1 1 1 2 1 1 1 1 1 1 1 1 0 1 1 1 1 1 1 1 1 1 1 2 2 1 2 2 4 3 2 1 1 1 0 0 -1 0 1
2 1 1 1 1 1 1 1 1 1 1 1 1 1 1 1 1 1 1 1 2 2 2 2 2 1 3 1 1 2 2 2 3 4 2 2 1 1 1 1 0 -1 0
2 2 2 2 1 2 1 1 1 1 1 1 1 1 1 1 1 1 1 1 1 1 1 1 1 1 2 2 1 2 2 1 2 3 3 1 1 1 1 0 1 1 0
2 2 2 2 2 1 1 1 1 1 1 1 1 1 1 1 1 1 1 1 1 1 1 1 1 1 2 2 3 1 2 3 3 3 3 3 2 1 1 2 2 1 1
2 2 2 2 1 1 1 1 1 1 1 1 1 1 1 1 1 1 1 1 1 1 1 1 1 1 2 2 1 2 1 2 3 3 3 3 3 3 3 2 2 2 1
2 2 2 2 2 2 1 1 1 1 1 1 1 1 1 1 3 4 1 1 1 1 1 1 1 2 3 4 3 2 1 2 2 3 3 3 3 2 2 2 2 3 4
2 2 2 2 2 2 2 2 2 2 1 1 1 1 1 1 5 6 4 1 1 1 1 1 1 1 2 2 4 4 3 2 1 1 3 2 2 2 2 2 2 2 3
2 2 2 2 2 2 2 2 2 2 2 2 2 1 1 1 6 7 6 1 1 1 1 1 1 1 1 1 2 3 3 2 2 2 1 1 1 1 1 1 2 2 2
3 3 2 2 2 2 2 2 2 2 2 2 1 1 2 1 7 8 7 2 1 1 1 1 1 1 3 6 2 2 3 3 4 5 4 3 2 2 1 1 2 3 4
3 2 2 2 2 2 2 2 2 2 2 2 2 1 3 1 7 9 7 2 2 2 1 1 5 2 6 8 2 2 3 3 2 3 4 4 3 2 2 0 2 3 4
2 2 2 2 2 2 2 2 2 2 2 2 2 2 1 2 2 10 10 2 2 2 2 2 1 7 9 10 8 1 2 2 3 2 3 3 2 2 2 1 1 1 3
2 2 2 2 2 2 2 2 2 2 2 2 2 2 2 1 7 9 11 10 4 2 2 1 1 8 10 10 9 6 8 7 2 3 3 4 4 3 2 1 1 1 1
3 3 3 2 2 2 2 2 3 2 3 3 3 3 3 2 1 9 11 11 10 4 1 2 6 10 11 10 9 8 9 4 2 2 3 3 4 3 2 2 1 1 1
3 3 3 3 3 2 2 2 2 3 3 3 3 3 3 2 2 1 4 8 10 8 6 4 5 6 7 7 8 8 6 3 2 2 2 2 3 3 4 3 3 2 2
3 3 3 3 3 3 4 8 3 2 3 3 3 3 3 3 4 11 9 4 5 7 6 4 3 3 3 3 6 6 6 5 3 2 2 2 2 3 4 4 3 3 3
3 3 3 3 3 3 5 9 16 16 17 16 17 8 10 15 18 18 17 16 15 14 7 4 3 3 3 3 3 3 5 5 4 2 2 2 2 3 3 3 3 4 3
4 3 3 4 3 3 3 3 8 12 17 19 18 17 16 17 17 18 18 18 16 13 5 4 4 3 3 3 3 3 4 3 3 2 2 2 2 2 3 3 3 4 3
4 8 4 3 4 3 3 3 5 8 8 11 15 15 18 19 19 19 17 14 7 7 5 5 6 4 4 4 4 3 2 2 2 2 3 3 3 4 3 3 3 4 3
2 3 5 5 5 6 6 6 5 6 6 7 10 14 16 18 17 15 11 3 4 4 4 4 5 5 4 4 4 3 3 3 3 3 4 4 3 3 4 4 3 6 5
3 6 6 5 6 6 6 7 7 7 8 8 8 8 8 6 5 4 4 4 4 4 4 4 4 3 3 3 3 3 3 3 3 4 4 3 3 2 3 3 3 4 4
3 4 4 3 4 5 6 6 6 5 6 6 7 7 10 4 4 4 3 3 3 3 3 3 3 3 3 3 3 3 3 3 3 2 2 2 2 3 2 2 3 3 3
2 3 3 3 3 3 3 3 4 5 4 4 5 5 10 3 3 4 4 3 3 3 2 2 3 2 2 2 2 2 2 2 2 2 2 2 2 2 2 2 3 3 3
3 4 3 3 3 4 4 4 4 4 3 3 2 2 2 2 2 2 3 2 2 2 2 2 2 2 2 2 2 2 2 2 2 2 2 2 3 2 3 3 4 4 5
4 4 3 3 3 4 4 4 5 6 4 3 4 4 3 2 3 3 3 3 2 2 2 2 2 2 2 2 2 2 2 2 2 2 2 2 2 4 4 4 4 4 5
5 5 5 5 5 5 4 4 4 4 5 5 5 5 5 5 5 5 6 5 5 6 6 3 1 2 2 2 2 1 6 10 3 5 2 3 3 4 4 5 5 7 7
9 8 5 6 6 6 6 6 6 6 6 6 6 7 7 7 7 7 8 8 7 7 8 8 9 9 5 2 4 11 15 13 6 9 3 3 4 4 5 5 6 8 8

GFSGL_con_lsi_048.txt.gz
Lid_Strength_Index
2 1 1 1 1 1 2 2 1 1 2 1 1 1 1 1 1 1 1 1 2 1 1 2 2 1 1 2 2 3 3 3 4 4 2 2 2 1 1 1 2 2 2
2 1 1 1 1 1 1 2 2 1 1 1 1 1 1 1 1 1 1 1 1 2 1 2 2 1 2 2 2 3 3 3 4 5 3 2 2 2 1 1 2 1 1
2 2 2 2 1 1 1 1 1 2 1 1 1 1 1 1 1 1 1 1 1 1 1 2 2 2 2 2 4 2 2 3 3 4 4 2 2 2 2 2 2 1 0
2 2 2 2 2 1 1 1 1 1 2 1 1 1 1 1 1 1 1 1 1 1 1 1 1 2 2 2 3 3 2 2 3 3 4 2 2 1 2 2 2 2 2
2 2 2 2 1 1 1 1 1 1 1 2 1 1 1 1 1 1 1 1 1 1 1 1 1 1 2 2 2 3 3 3 3 4 4 4 3 3 3 2 2 1 1
2 2 2 2 2 2 1 1 1 1 1 1 1 1 1 1 3 4 1 1 1 1 1 1 1 2 3 4 4 4 3 4 3 3 3 3 3 2 2 2 2 3 4
2 2 2 2 2 2 2 2 2 2 1 1 1 1 1 1 5 5 4 1 1 1 1 1 1 1 2 1 4 5 5 5 4 4 2 2 2 2 2 2 2 2 3
2 2 2 2 2 2 2 2 2 1 2 2 2 1 1 1 6 7 5 1 1 1 1 1 1 1 1 1 1 2 3 3 4 4 3 4 2 1 1 1 1 2 2
3 2 2 2 2 2 2 2 2 2 2 2 1 1 2 1 7 7 6 2 1 1 1 1 1 1 3 6 1 2 2 2 3 6 5 5 6 5 3 2 3 3 4
3 2 2 2 2 2 2 2 2 2 2 1 2 1 3 1 7 9 7 2 2 2 1 1 5 2 6 8 3 2 3 2 2 2 4 5 6 5 5 3 3 3 3
2 2 2 2 2 2 2 2 2 2 2 2 2 2 1 2 2 10 10 2 2 2 2 2 1 7 9 10 8 2 2 2 2 2 2 3 3 4 4 3 2 2 3
2 2 2 2 2 2 2 2 2 2 2 2 2 2 2 1 7 10 11 9 4 2 2 1 1 8 10 10 9 7 8 7 2 2 2 2 3 4 4 3 3 2 1
3 3 3 2 2 2 2 2 3 2 3 3 3 3 3 2 1 10 11 11 10 4 1 3 7 10 11 10 11 9 9 4 2 2 3 2 3 2 3 3 3 2 2
4 3 3 3 3 3 2 2 2 3 3 3 3 3 3 2 2 2 5 8 10 9 7 4 5 7 9 7 7 9 7 5 4 3 2 2 1 2 3 4 4 4 4
3 3 3 3 3 3 8 8 3 3 4 3 3 2 3 3 2 6 5 4 5 6 6 5 4 3 3 3 3 5 6 6 6 4 3 2 2 2 2 3 4 4 4
3 3 3 3 4 5 9 11 16 17 18 16 12 7 11 15 17 17 17 17 16 14 7 6 5 4 4 3 3 2 4 5 4 4 3 2 2 2 2 2 3 3 4
3 4 4 4 3 4 7 7 9 12 17 19 19 18 16 16 18 18 17 17 16 13 6 5 5 4 4 4 3 2 3 4 4 4 3 2 2 2 3 3 3 3 3
3 6 5 3 3 3 3 6 8 8 10 11 15 16 18 19 18 18 16 13 8 8 7 7 6 4 3 3 3 3 2 2 2 2 3 4 3 3 3 3 3 4 4
3 3 4 5 6 6 5 5 7 7 10 11 12 13 16 18 18 17 16 8 7 7 4 4 4 5 5 4 5 5 4 3 2 3 3 3 3 4 4 4 4 6 5
4 5 5 4 4 6 6 6 6 7 9 8 8 9 10 12 11 10 10 7 5 5 4 5 5 4 4 4 3 3 3 3 3 2 3 3 3 3 3 3 3 4 4
4 4 4 4 4 4 5 6 7 7 7 8 9 10 14 9 8 8 5 4 4 4 4 4 4 4 3 4 4 3 2 3 3 3 3 2 2 2 2 3 3 4 4
3 3 4 4 4 5 5 5 6 6 8 8 9 12 16 7 7 4 4 4 3 3 3 4 4 3 3 3 2 2 2 2 2 2 2 2 3 2 3 3 3 3 4
4 4 4 5 5 6 5 5 5 5 7 6 6 6 4 5 5 4 4 5 5 3 2 3 3 3 2 3 3 2 3 3 2 1 2 2 3 3 3 4 4 4 5
5 4 5 5 5 5 6 6 6 8 6 6 5 5 5 6 7 6 6 7 7 7 7 6 6 5 3 2 3 3 3 2 2 2 3 3 4 5 5 5 5 6 6
6 6 5 6 6 7 7 7 8 8 8 7 7 7 7 7 7 8 8 8 8 9 9 9 10 12 11 10 11 11 12 16 8 7 2 3 3 3 4 5 5 5 5
8 9 8 7 8 8 8 9 9 9 9 9 9 9 9 9 9 9 9 9 9 9 9 10 10 12 13 14 15 17 19 18 11 12 2 3 3 4 5 6 5 6 6

GFSGL_con_lsi_051.txt.gz
Lid_Strength_Index
2 1 1 1 1 1 1 1 1 2 2 1 0 1 1 0 1 1 1 1 1 1 2 2 2 2 2 2 2 3 5 4 5 4 3 2 3 2 1 0 1 2 2
2 2 1 1 1 1 1 1 1 1 2 1 0 1 1 1 1 1 1 1 1 2 1 2 2 2 3 3 3 3 3 4 5 5 5 2 3 2 1 1 1 2 3
2 2 2 2 1 1 1 1 1 2 2 1 2 1 1 1 1 1 1 1 1 1 1 2 1 2 2 3 4 4 3 3 4 5 4 4 2 3 3 2 2 2 2
2 2 2 2 2 1 1 1 1 1 2 2 1 1 1 1 1 1 1 1 1 1 1 1 1 1 2 2 3 3 4 4 4 4 4 4 3 2 3 3 3 3 2
2 2 2 2 1 1 1 1 1 1 1 1 1 1 1 1 1 1 1 1 1 1 1 1 0 1 2 2 1 2 3 4 4 4 3 4 4 4 3 3 2 2 2
2 2 2 2 1 2 1 1 1 1 1 1 1 1 1 1 3 4 1 1 1 1 1 1 1 2 2 4 4 3 2 3 4 5 4 3 3 3 2 2 3 4 4
2 2 2 2 2 2 1 1 2 2 1 1 1 1 1 1 4 5 4 1 1 1 1 1 1 1 2 1 3 4 4 5 4 2 4 3 3 3 2 3 2 2 3
3 2 2 2 2 2 2 2 2 1 2 2 1 1 1 1 5 6 5 1 1 1 1 1 1 1 1 2 1 2 2 2 3 3 2 2 2 2 3 3 3 3 2
3 3 2 2 2 2 2 2 2 2 2 2 1 1 1 1 6 7 6 2 1 1 1 1 1 1 3 6 2 2 2 2 4 6 5 5 5 6 5 4 5 5 5
3 2 2 2 2 2 2 2 2 1 2 1 2 1 3 2 6 8 7 2 2 2 1 1 5 2 6 7 3 2 3 2 1 2 3 5 6 5 7 5 4 5 5
2 2 2 2 2 2 2 2 2 2 2 2 2 1 1 2 2 9 10 2 2 2 2 2 1 7 9 9 8 1 2 2 2 2 1 1 1 3 3 3 4 4 4
2 3 2 2 2 2 2 2 2 2 2 2 2 2 2 1 6 9 10 9 4 2 2 1 2 8 10 10 9 7 8 7 2 2 2 2 2 2 2 2 3 4 3
3 3 3 2 2 2 2 2 2 2 3 3 3 3 3 2 1 9 11 11 10 4 1 3 7 10 11 11 11 10 10 5 4 3 3 2 2 1 1 2 3 3 3
3 3 3 3 3 2 2 2 2 3 3 3 3 3 3 2 2 2 6 7 9 8 6 4 5 7 9 7 7 9 8 6 5 4 3 2 1 1 2 2 3 3 3
3 3 3 4 4 3 6 7 3 2 4 3 3 2 3 3 2 5 4 3 4 5 5 4 4 3 3 3 3 4 5 5 5 4 4 2 2 2 2 1 2 2 3
3 3 4 4 3 5 8 10 15 17 18 17 14 6 7 12 13 14 15 14 14 14 6 5 4 4 4 4 4 3 4 4 4 4 3 3 3 2 2 2 2 3 3
4 3 4 6 3 6 8 8 9 12 17 19 19 16 14 14 18 19 19 18 17 12 4 6 6 5 5 5 4 3 3 2 3 3 2 2 2 4 3 3 3 3 4
4 7 3 4 4 3 6 7 9 9 8 10 15 18 20 19 19 19 18 14 8 8 6 7 6 6 5 3 4 4 4 4 3 3 2 3 3 3 4 3 3 3 3
3 4 4 4 5 5 3 7 8 9 9 10 10 13 16 19 18 19 17 7 7 7 7 7 8 5 5 5 5 5 4 3 2 2 2 2 3 5 4 4 4 7 5
3 5 5 4 5 6 4 6 6 8 9 9 9 9 10 10 8 8 8 8 9 10 9 6 5 5 4 4 5 5 3 3 3 3 2 2 4 4 4 3 3 3 3
3 3 5 4 4 5 6 6 6 7 8 8 8 9 13 8 8 8 9 10 8 7 5 5 4 4 4 4 4 2 2 2 4 4 4 4 3 3 2 3 3 3 3
3 3 4 4 5 5 6 6 6 7 8 8 8 11 15 7 8 8 8 8 7 5 4 4 4 4 4 3 3 3 2 3 3 3 3 2 2 2 2 2 3 3 4
4 3 5 5 6 7 6 6 7 8 7 8 8 8 9 9 9 10 10 9 8 9 6 4 4 4 3 3 3 3 3 3 3 2 2 2 2 3 3 3 3 3 5
4 4 5 6 6 5 5 6 7 9 7 8 8 9 10 10 9 9 8 9 9 9 9 10 11 11 10 9 8 8 6 8 6 3 2 2 3 5 2 3 3 4 6
5 5 5 6 6 7 7 7 8 8 9 9 9 9 9 9 9 9 10 10 10 10 10 10 12 13 12 12 13 15 16 18 15 12 3 3 3 4 5 5 6 6 7
9 9 9 9 10 10 10 11 11 11 12 12 11 12 11 11 11 10 10 9 9 10 10 10 10 11 12 13 14 16 18 18 16 17 5 3 3 4 4 4 5 5 6

GFSGL_con_lsi_054.txt.gz
Lid_Strength_Index
1 1 1 1 1 1 1 1 1 1 0 0 0 0 0 0 -0 0 0 0 1 0 0 1 1 1 0 1 1 1 2 3 3 2 2 -0 -0 -0 -1 -1 -1 -1 -1
1 1 1 1 1 1 1 1 0 1 1 0 0 0 0 0 0 0 1 0 1 1 1 1 1 1 1 1 1 2 1 2 2 3 2 1 0 -0 -1 -0 -1 -0 -0
1 2 1 1 1 1 1 1 0 0 0 1 0 1 0 0 0 0 0 1 0 1 1 1 1 1 1 1 1 2 2 2 2 2 2 2 1 0 0 -0 -0 -1 -1
2 2 2 2 1 1 1 1 1 1 1 0 0 0 0 0 0 0 0 0 1 0 0 0 0 1 1 1 1 1 1 2 3 3 3 2 1 0 0 1 2 1 0
2 2 2 1 1 1 1 1 1 1 1 0 0 0 0 0 0 0 0 1 1 1 0 0 0 0 1 1 1 1 1 2 2 3 3 3 3 3 2 1 2 1 1
2 2 2 1 1 1 1 1 1 1 1 1 1 1 1 1 2 3 1 1 1 1 1 1 0 1 1 3 3 3 1 1 2 2 2 3 2 2 1 2 2 2 3
2 2 2 2 2 2 1 1 1 1 1 1 1 1 1 1 4 4 3 0 1 1 1 1 1 0 1 0 3 4 4 4 3 1 2 2 2 1 1 2 2 2 3
2 2 2 2 2 2 2 2 1 1 1 1 1 1 1 1 4 5 4 0 1 1 1 1 1 1 0 0 1 1 1 1 2 2 1 1 0 0 1 1 2 3 3
3 2 2 2 2 2 2 2 1 1 1 1 1 1 1 1 6 6 5 1 1 1 1 0 0 1 3 5 1 1 1 1 3 6 5 5 6 6 4 2 3 5 5
3 2 2 2 2 2 2 2 1 1 1 1 1 1 2 1 6 7 6 1 2 1 1 0 4 1 5 7 2 1 2 2 1 1 1 4 5 4 6 4 3 4 5
2 2 2 2 2 1 1 1 1 1 1 2 2 1 1 2 2 9 9 2 2 2 2 1 1 7 9 9 9 1 2 1 1 1 1 1 1 1 2 3 3 3 4
2 2 2 2 2 1 2 2 1 2 2 2 2 2 1 1 6 8 10 9 4 2 2 1 1 8 10 11 10 7 8 8 2 2 2 2 2 1 1 1 2 3 3
2 2 2 2 2 2 2 2 2 2 2 3 3 3 2 1 1 9 10 10 10 4 1 3 7 10 11 10 11 10 10 5 4 3 2 2 1 1 1 1 0 1 2
3 2 2 2 2 2 2 2 2 2 3 3 3 3 2 2 2 1 3 6 9 7 6 4 5 6 8 6 6 8 7 6 5 4 3 2 2 1 1 1 2 1 2
3 3 2 2 2 2 2 3 2 1 3 2 2 2 3 3 2 4 4 2 2 4 5 3 3 3 2 2 2 2 3 4 5 4 3 3 3 2 2 1 1 2 3
3 3 3 3 2 3 5 8 15 15 16 16 15 8 2 10 11 13 14 14 14 13 5 3 4 3 3 3 2 2 2 4 3 3 3 2 2 2 2 1 1 2 3
3 3 2 4 3 3 5 6 6 10 17 18 18 16 15 10 14 15 17 17 17 14 3 3 4 3 3 3 3 2 3 3 2 2 2 2 2 2 2 2 2 2 2
2 8 2 3 3 2 3 5 6 6 6 6 16 16 19 19 19 20 19 14 8 8 5 5 4 4 4 4 4 4 4 2 2 1 1 1 1 2 2 2 2 2 2
2 2 2 2 3 5 2 3 5 6 6 7 9 13 17 19 19 19 18 6 6 6 6 6 6 5 5 5 3 2 2 2 1 1 1 1 1 2 2 2 2 6 4
2 4 5 2 2 3 2 4 5 6 7 7 7 7 9 9 7 7 6 7 7 7 6 6 6 6 4 2 1 1 1 2 2 2 2 1 1 1 2 2 2 2 2
2 2 4 2 2 2 2 3 4 6 7 8 8 9 14 6 7 7 7 7 7 7 6 6 5 3 1 1 1 1 1 1 1 1 1 1 1 2 1 1 2 2 2
3 2 2 2 2 3 3 3 4 5 5 7 9 11 13 6 7 8 8 8 7 7 7 5 5 4 2 2 2 2 1 1 1 1 1 1 1 1 1 2 2 3 2
4 2 2 2 3 6 4 4 5 5 6 6 7 8 10 9 10 10 10 10 11 11 12 11 10 9 10 8 7 7 4 3 2 1 1 1 1 1 1 2 2 3 3
4 2 2 2 4 4 4 5 6 9 8 8 8 9 10 10 11 11 11 11 12 12 12 11 11 11 11 11 11 11 10 11 10 5 2 1 1 3 1 2 2 2 3
5 3 3 4 5 6 7 7 8 9 9 9 10 11 10 10 10 10 10 10 10 9 10 10 10 11 11 11 11 12 15 18 13 14 7 1 1 1 1 1 3 2 4
8 8 9 9 10 11 12 12 13 12 12 12 13 12 11 11 11 11 10 10 10 10 10 10 10 11 11 11 13 15 18 17 14 16 6 1 1 1 1 1 1 2 2

GFSGL_con_lsi_057.txt.gz
Lid_Strength_Index
1 1 1 1 0 0 0 0 -0 -0 -0 -0 -0 -0 -0 -0 -1 -0 -0 -0 0 -0 -0 -0 0 -0 0 0 -0 0 1 1 2 1 0 -1 -1 -1 -2 -2 -2 -2 -2
1 1 1 0 0 0 0 0 -0 -0 -0 -0 -0 -0 -0 -0 -0 -0 0 -0 0 1 0 0 0 0 0 -0 0 0 0 0 1 2 1 0 -0 -1 -1 -1 -1 -1 -2
1 1 1 1 1 1 0 0 -0 -0 -0 -0 -0 -0 -0 -0 -0 -0 -0 -0 0 0 0 0 0 0 0 0 0 0 0 0 0 2 2 0 0 -0 -0 -1 -1 -1 -1
1 1 1 1 1 1 0 0 0 -0 0 0 -0 -0 -0 -0 -0 -0 -0 -0 0 -0 -0 -0 0 0 0 0 0 0 0 1 1 1 2 1 1 -0 0 1 1 -0 0
1 1 2 1 1 0 1 0 0 0 0 -0 -0 -0 -0 -0 0 -0 -0 0 0 0 -0 -0 -0 0 1 1 0 0 0 1 1 2 2 2 2 2 2 1 1 1 0
2 2 1 1 1 1 1 1 0 0 0 -0 0 0 0 0 2 3 0 0 0 0 1 0 -0 0 1 3 3 3 0 1 1 2 2 2 2 1 1 1 2 2 3
2 2 1 1 1 1 1 1 1 1 0 1 1 0 1 0 4 4 2 0 0 0 0 0 0 0 0 -0 2 4 4 4 3 1 2 2 2 1 1 1 1 2 2
2 2 1 1 2 1 1 1 1 1 1 1 1 0 1 0 5 5 4 -0 0 0 0 0 0 0 0 0 0 0 0 0 -0 0 0 0 0 -0 -0 0 1 1 1
2 2 2 1 2 1 2 1 1 1 1 1 1 1 1 0 6 6 4 0 1 1 0 -0 0 0 2 5 0 1 1 0 2 5 4 5 6 6 4 1 2 3 3
2 2 1 1 1 2 1 1 1 1 1 1 1 0 2 1 5 7 5 1 1 1 0 0 4 1 5 7 1 1 2 1 0 0 0 3 5 2 6 3 2 3 3
1 1 1 1 1 1 1 1 1 1 1 1 1 1 1 1 1 8 8 1 1 1 1 1 0 6 8 8 8 1 1 1 1 1 1 1 0 0 0 -0 1 3 3
1 1 1 1 1 1 1 1 1 1 2 2 1 1 1 0 5 7 9 8 3 1 1 1 1 8 10 11 9 7 8 7 1 1 1 2 2 1 0 0 -0 1 2
2 2 2 1 1 1 1 2 2 2 2 2 2 2 2 1 1 9 10 10 9 3 0 2 6 10 11 9 11 10 10 5 4 3 3 2 1 1 0 1 -0 -0 -1
2 2 2 2 2 1 1 1 2 2 2 2 2 2 2 2 1 1 1 4 9 7 6 2 3 6 7 4 3 6 4 3 3 3 2 2 1 2 1 1 1 1 1
2 2 2 2 2 2 1 1 2 1 2 2 2 2 2 2 2 3 3 1 1 2 3 1 1 1 2 2 1 1 1 3 4 4 4 3 2 2 2 1 1 1 2
2 2 2 2 2 2 2 3 15 14 15 15 15 7 1 8 11 13 13 13 13 12 3 2 2 2 2 2 2 2 2 3 2 1 1 2 2 2 2 1 1 1 2
2 2 2 3 2 2 2 2 3 7 16 17 17 16 15 13 13 15 16 17 16 13 2 2 3 2 2 2 2 2 2 1 1 1 1 1 1 1 2 2 1 2 2
2 7 2 2 2 2 2 2 2 3 3 2 14 15 17 17 16 17 18 14 7 10 3 2 2 2 3 2 2 2 1 1 2 1 1 1 1 1 2 2 2 2 2
2 1 1 1 1 2 2 2 2 2 2 2 5 11 16 19 20 20 19 4 2 3 4 5 5 5 4 3 2 2 2 1 0 1 1 1 1 1 2 1 1 4 3
2 4 3 1 1 1 1 2 2 2 2 2 2 2 7 9 5 6 5 5 5 5 6 5 5 5 4 3 3 3 1 1 1 1 1 1 1 1 1 1 1 2 2
4 2 3 2 2 2 1 1 2 2 3 3 3 5 13 3 3 3 3 4 4 5 4 4 4 3 3 3 2 1 1 1 1 1 1 1 1 1 1 1 1 1 2
4 3 1 2 2 2 2 1 2 2 2 2 6 8 15 6 5 5 5 6 6 6 6 3 4 5 5 4 3 3 2 1 1 1 1 1 1 1 1 1 1 2 2
4 3 2 2 2 3 2 2 2 2 2 2 3 6 5 6 6 6 8 8 9 9 9 8 7 8 10 10 10 9 5 2 2 1 1 1 1 1 1 1 1 2 2
5 4 2 2 2 2 2 2 1 5 2 2 3 4 5 5 7 8 8 9 9 10 10 10 10 10 11 12 10 9 8 7 6 2 -0 1 1 2 1 1 1 1 2
7 7 7 6 3 2 3 4 5 6 7 8 9 8 8 8 8 9 9 9 10 10 10 11 11 10 9 8 7 8 13 17 12 13 4 1 0 1 1 1 1 1 1
10 11 11 11 11 11 12 12 12 12 11 12 11 11 11 11 10 10 10 9 10 10 9 8 8 7 7 8 10 15 18 17 11 17 6 -0 0 1 1 1 1 1 2

GFSGL_con_lsi_060.txt.gz
Lid_Strength_Index
1 0 0 0 -0 -0 -0 -0 -0 -1 -1 -1 -1 -1 -1 -1 -1 -1 -1 -1 -0 -0 -1 -0 -0 -1 0 -0 -0 -0 0 1 2 1 -0 -1 -1 -1 -1 -2 -2 -2 -2
1 0 0 0 0 0 0 -0 -1 -0 -1 -1 -1 -1 -1 -1 -1 -0 -0 -0 -0 0 -0 -0 0 -0 -0 -0 0 -0 -0 -0 1 2 0 0 -0 -1 -1 -1 -1 -1 -2
1 1 1 1 0 0 0 -0 -0 -0 -0 -0 -1 -0 -0 -0 -0 -1 -0 -0 -0 -0 -0 -0 -0 -0 0 0 -0 0 0 0 0 1 2 0 -0 -1 -0 -1 -1 -1 -1
1 1 1 1 1 0 0 -0 -0 -0 -0 -0 -0 -0 -0 -1 -1 -1 -0 -0 -0 -0 -0 -0 -0 -0 0 0 0 0 0 1 1 1 1 1 1 -1 -0 1 1 -0 -0
1 1 1 1 0 0 0 0 -0 -0 -0 -0 -0 -0 -0 -0 -0 -0 -0 -0 -0 -0 -0 -0 -1 -0 2 1 0 0 0 1 1 1 2 1 1 1 1 0 1 1 0
1 1 1 1 1 1 0 0 0 0 -0 -0 0 0 0 0 2 3 0 -0 -0 0 0 -0 -0 0 1 4 4 3 1 1 1 2 2 2 1 1 1 1 1 2 3
1 1 1 1 1 1 1 1 1 1 0 0 0 0 0 -0 4 4 2 -0 -0 0 -0 0 0 -0 0 -0 3 4 4 4 3 1 2 2 1 1 1 1 1 2 2
2 1 1 1 1 1 1 1 1 1 1 1 0 0 0 0 5 6 4 -0 -0 -0 -0 -0 0 -0 -0 -0 -0 0 -0 -0 -0 0 0 0 -0 -0 -0 0 0 1 1
2 2 1 1 1 1 1 1 1 1 1 1 1 1 1 0 6 6 4 -0 0 0 -0 -0 -0 -0 2 5 0 1 1 0 1 4 4 4 4 5 3 0 2 2 3
2 2 1 1 1 1 1 1 1 1 1 1 1 0 2 0 6 8 4 0 1 1 0 -0 4 1 5 7 0 1 2 1 0 0 -0 2 6 3 7 1 1 2 3
1 1 1 1 1 1 1 1 1 1 1 1 1 1 0 1 0 9 9 0 1 1 1 1 0 6 7 7 7 0 1 1 1 1 1 0 0 -0 -0 -0 -0 1 2
1 1 1 1 1 1 1 1 1 1 1 1 1 1 1 0 5 8 10 8 2 1 1 0 0 8 10 10 7 6 8 6 0 1 1 1 1 1 0 -0 -1 -0 1
1 1 1 1 1 1 1 1 2 1 2 2 2 2 2 1 0 8 10 10 8 1 0 2 8 10 12 9 11 9 10 1 1 2 2 2 1 0 -0 0 -0 -0 -1
2 2 1 2 2 1 1 1 1 2 2 2 2 2 2 1 1 0 1 4 9 5 4 1 2 5 7 5 3 3 1 0 1 1 2 1 0 1 2 1 1 1 1
2 2 2 2 1 2 1 1 1 1 2 2 1 1 2 2 1 3 3 1 1 2 1 1 1 1 2 1 1 1 1 1 1 1 1 2 2 2 1 1 1 1 2
2 2 2 2 2 2 2 2 14 13 14 14 14 8 1 7 10 12 12 12 14 12 2 2 2 2 2 2 2 2 1 2 1 2 2 1 2 2 2 1 1 1 2
3 2 2 3 2 2 2 2 3 6 15 16 15 15 15 13 14 15 16 16 15 10 2 2 2 2 2 2 2 2 2 1 1 1 1 1 2 1 2 1 1 1 2
2 8 1 1 2 2 2 2 2 2 3 2 12 12 16 16 16 16 16 13 4 7 2 2 2 2 2 2 2 2 1 1 1 1 1 1 1 1 1 1 1 2 2
1 2 2 1 2 2 2 2 2 2 2 2 1 9 14 19 18 18 18 1 2 2 2 2 2 2 3 2 2 2 1 1 1 1 1 1 1 1 1 1 1 4 3
1 4 4 2 2 2 2 2 2 2 3 2 2 2 3 8 4 4 6 4 3 2 1 1 2 3 2 3 2 2 1 2 2 2 1 1 1 1 1 1 1 2 2
3 2 4 1 1 2 2 2 2 2 2 2 2 3 12 2 2 2 3 2 1 1 1 1 1 1 1 1 1 1 2 2 1 1 1 1 1 1 1 1 1 1 2
4 3 2 1 1 1 1 1 1 2 2 2 2 4 14 2 1 1 1 2 4 4 4 3 2 3 4 3 2 2 2 2 1 1 1 1 1 1 1 1 1 2 2
3 3 2 1 1 3 1 1 1 1 1 1 0 1 2 2 3 4 5 4 5 5 5 5 5 4 5 4 3 3 3 3 2 1 1 1 1 1 1 2 2 2 2
4 4 3 2 1 1 1 1 1 4 2 1 1 1 1 0 3 3 5 5 7 7 8 8 7 7 6 6 5 5 7 9 7 1 1 1 1 2 1 1 1 1 2
8 8 8 9 8 7 4 5 5 4 6 6 4 3 3 3 4 4 5 5 6 8 9 8 8 8 8 8 7 8 13 18 12 13 4 -0 0 1 1 1 1 1 1
11 11 12 12 12 12 12 13 13 12 13 13 12 11 10 9 9 8 8 9 8 9 9 9 9 8 8 10 13 16 19 18 12 17 7 1 0 1 1 1 1 1 1

GFSGL_con_lsi_063.txt.gz
Lid_Strength_Index
1 1 1 0 0 -0 0 -0 -0 -1 -1 -1 -1 -1 -1 -1 -1 -0 -0 -1 -0 -0 -0 -1 -0 -1 0 -0 -0 -0 0 1 2 1 -0 -1 -2 -1 -1 -2 -2 -2 -1
1 1 1 0 0 0 0 0 -0 -0 -1 -1 -1 -0 -0 -0 -1 -0 0 -0 0 0 0 0 0 0 0 -0 0 -0 -0 -0 1 2 0 0 -0 -1 -1 -1 -1 -1 -1
1 1 1 1 1 1 0 0 -0 -0 -0 -0 -0 -0 -0 -0 -0 -0 -0 -0 -0 0 -0 0 0 0 0 0 0 0 0 0 1 1 2 0 0 -0 -0 -1 -0 -1 -1
1 1 1 1 1 1 0 0 0 -0 0 -0 -0 -0 -0 -0 -0 -0 -0 0 -0 -0 -0 -0 -0 0 0 0 0 0 0 1 1 1 1 1 1 -0 -0 1 1 -0 0
1 1 1 1 1 0 0 0 0 0 0 -0 0 -0 -0 -0 0 -0 -0 0 0 0 -0 -0 -0 0 1 1 0 0 0 1 1 2 2 2 1 1 2 1 1 1 0
1 1 1 1 1 1 1 0 0 0 0 0 0 0 0 0 2 3 0 0 0 0 1 0 -0 0 1 3 4 4 1 1 1 2 2 2 2 1 1 1 2 2 3
1 1 1 1 1 1 1 1 1 1 0 1 1 0 0 0 4 5 3 -0 0 0 0 0 0 -0 0 -0 3 4 4 4 3 1 2 2 2 1 1 1 1 2 2
2 1 1 1 1 1 1 1 1 1 1 1 1 0 0 0 5 6 4 -0 0 -0 -0 -0 0 0 -0 -0 0 0 0 0 0 0 0 0 0 -0 -0 0 1 1 1
2 2 1 1 1 1 1 1 1 1 1 1 1 1 1 1 6 7 5 0 0 0 -0 -0 -0 0 2 5 0 1 1 0 2 5 4 4 4 5 2 1 2 2 3
2 2 1 1 1 1 1 1 1 1 1 1 1 0 2 1 6 8 5 0 1 1 0 0 4 1 4 7 1 1 2 1 0 0 -0 0 5 3 7 2 1 3 3
1 1 1 1 1 1 1 1 1 1 1 1 1 1 0 1 1 9 9 1 1 1 1 1 0 6 7 7 7 0 1 1 1 0 1 1 0 0 0 -0 -0 1 2
1 1 1 1 1 1 1 1 1 1 2 2 2 1 1 0 5 9 10 8 2 1 1 0 0 6 8 8 7 6 7 6 1 1 1 1 1 1 1 -0 -1 -1 -1
1 2 1 1 1 1 1 2 2 1 2 2 2 2 2 1 0 8 10 10 8 2 0 2 6 9 12 10 11 9 9 1 1 2 2 2 1 0 -0 -0 -0 -1 -0
2 2 1 2 2 1 1 1 2 2 2 2 2 2 2 1 1 1 1 5 8 5 3 1 2 5 8 5 3 5 1 1 1 2 1 1 0 1 1 0 1 1 1
2 2 2 2 2 2 1 1 2 1 2 2 1 1 2 2 1 3 3 1 1 2 2 1 1 1 1 1 1 1 1 1 1 1 1 1 1 1 1 1 1 1 2
3 2 2 2 2 2 2 2 13 10 14 13 14 6 1 10 12 14 14 13 11 12 2 2 2 2 2 2 2 2 1 2 1 1 1 1 2 2 2 1 1 2 2
2 2 2 2 2 2 2 2 3 7 14 15 14 14 14 15 14 15 14 15 14 10 2 2 2 2 2 2 2 2 2 1 1 1 1 1 1 2 2 2 2 1 2
3 8 2 2 2 2 2 2 2 2 3 2 11 11 15 16 15 15 15 12 2 3 2 2 2 1 1 1 2 2 1 1 1 1 1 1 1 1 2 2 2 2 2
5 4 4 2 2 2 2 2 2 2 2 2 1 8 13 17 16 15 16 1 2 2 2 2 1 1 1 1 1 1 1 1 1 1 1 1 1 1 1 1 1 6 3
5 6 5 2 2 2 2 2 2 2 2 2 3 2 4 4 2 2 3 1 2 2 1 1 1 1 1 1 1 1 1 1 1 1 1 1 1 1 1 1 1 2 2
3 2 3 2 2 2 2 2 2 2 2 3 3 6 10 2 2 2 2 2 1 2 2 1 2 1 1 2 1 1 1 1 1 1 1 1 1 1 1 1 1 1 1
4 4 3 3 2 1 2 2 2 2 2 2 2 5 11 1 2 2 1 2 2 2 2 0 0 0 1 1 1 1 1 1 1 1 1 1 1 1 1 1 1 1 2
4 4 4 2 2 3 2 1 1 2 2 1 1 1 1 3 2 3 3 2 2 2 2 1 1 2 3 2 2 3 3 2 1 1 1 1 1 1 1 2 2 2 2
7 8 7 6 5 3 3 3 2 4 3 2 2 1 2 2 3 4 5 5 6 6 5 5 5 5 5 5 5 5 9 9 8 6 3 1 1 2 1 1 2 1 2
11 11 11 11 9 9 9 9 8 8 8 7 7 6 6 4 3 4 5 6 6 7 7 7 7 8 9 10 10 10 16 20 13 14 7 2 0 1 1 1 1 1 1
13 13 13 13 13 13 13 13 14 14 14 13 13 13 12 10 9 8 8 9 9 10 11 10 10 10 10 12 14 17 19 18 14 18 10 4 2 0 1 1 1 1 2

GFSGL_con_lsi_066.txt.gz
Lid_Strength_Index
1 1 1 1 1 0 0 0 0 -0 -0 -0 -0 -0 0 0 -0 0 0 0 1 1 0 0 1 0 1 1 0 1 1 1 3 2 1 0 0 0 -0 -1 -1 -1 -1
1 1 1 1 1 1 1 0 0 0 -0 -0 -0 -0 0 0 0 0 1 0 1 1 1 1 1 1 1 0 1 1 1 1 2 3 2 1 1 0 0 0 -0 -0 -0
1 1 1 1 1 1 1 0 0 0 0 0 0 0 0 0 0 0 0 0 1 1 1 1 1 1 1 1 1 1 1 1 1 2 2 1 1 0 1 0 0 0 -0
1 1 2 1 1 1 1 1 0 0 1 0 0 0 0 0 0 0 0 1 1 0 0 0 0 1 1 1 1 1 1 1 1 2 2 2 1 1 1 2 2 1 1
2 2 2 1 1 1 1 1 0 0 0 0 0 0 0 0 0 0 0 1 1 1 0 0 0 0 1 1 1 1 1 2 2 2 3 2 2 2 2 1 2 1 1
2 2 1 1 1 1 1 1 1 1 1 1 1 1 1 1 3 3 1 1 1 1 1 1 0 1 1 3 4 4 2 1 2 2 2 3 2 2 1 2 2 3 4
2 2 2 1 2 1 1 1 1 1 1 1 1 1 1 1 5 5 3 0 1 1 1 1 1 0 1 0 3 4 4 4 3 1 2 2 2 1 1 2 2 2 3
2 2 2 2 2 1 1 1 1 1 1 1 1 1 1 1 5 7 4 0 1 1 1 1 1 1 0 1 1 1 1 0 0 1 1 1 0 0 0 1 1 1 1
2 2 2 1 2 2 2 2 1 1 1 1 1 1 1 1 7 7 6 1 1 1 0 0 0 1 2 4 1 1 1 1 3 5 4 4 4 4 3 1 2 3 3
2 2 1 1 2 2 2 2 1 1 1 1 1 1 2 1 6 8 6 1 1 1 1 0 4 1 4 7 1 1 2 2 1 1 0 1 4 3 7 5 3 3 3
1 1 1 1 1 1 1 1 1 1 1 1 1 1 1 1 1 9 10 1 1 2 1 1 1 6 8 8 7 1 2 1 1 1 1 1 1 0 0 0 1 1 2
2 2 2 1 1 1 2 1 1 2 2 2 2 2 1 1 5 9 11 8 3 1 2 1 1 6 8 8 7 6 6 6 1 1 2 2 1 1 1 0 -0 -0 -0
2 2 2 2 1 1 2 2 2 2 2 2 2 2 2 1 1 8 11 11 9 2 1 2 8 9 10 10 9 8 8 3 2 2 2 2 1 1 0 0 -0 -0 0
2 2 2 2 2 2 1 2 2 2 2 2 3 3 2 2 1 1 4 7 9 6 4 2 4 4 7 4 3 8 4 1 1 2 2 1 1 1 1 1 1 1 2
2 2 2 2 2 2 2 2 2 1 2 2 2 2 2 3 2 4 3 1 2 4 2 1 1 2 2 2 1 1 1 1 1 1 1 2 1 1 2 1 1 1 2
3 2 2 2 2 2 2 2 14 12 14 12 10 5 5 12 15 15 15 9 9 11 3 2 2 2 2 2 2 2 1 2 1 1 1 1 2 2 2 1 1 2 3
3 3 2 3 2 2 2 3 3 8 16 16 16 13 11 12 15 15 14 14 14 11 2 2 2 2 2 2 2 2 2 1 1 1 1 2 2 2 2 2 2 2 2
5 9 3 3 2 2 2 2 2 3 3 3 13 11 14 14 15 16 14 11 3 5 2 2 2 2 2 2 2 2 1 1 1 1 1 1 2 2 2 2 2 2 2
6 6 5 3 4 4 2 2 2 2 3 2 5 11 14 16 15 15 13 2 2 2 2 2 2 1 1 1 1 1 1 1 1 1 1 2 2 2 2 2 2 5 4
7 7 7 4 3 3 3 3 3 3 3 3 2 2 2 5 2 2 2 2 2 2 2 2 1 1 1 1 1 1 1 1 1 1 1 1 1 1 2 2 2 2 2
8 5 6 3 3 3 2 3 3 3 3 3 2 2 8 2 2 2 2 2 2 2 1 1 1 1 2 1 1 1 1 1 1 1 1 1 1 2 1 1 2 2 2
6 6 5 6 6 5 4 3 2 2 2 2 2 3 11 3 2 2 2 2 2 3 2 1 2 2 2 2 1 1 1 1 1 1 1 1 1 1 1 1 2 2 2
8 9 8 7 8 9 7 6 6 5 2 2 2 2 2 3 4 4 4 4 4 5 5 6 7 6 6 4 5 8 9 9 8 7 4 2 1 1 1 2 2 2 2
11 11 11 10 10 9 9 9 9 11 10 7 6 5 3 4 5 6 6 6 7 6 8 9 10 13 13 13 13 12 15 16 12 8 7 5 3 2 1 2 2 2 2
12 13 13 13 13 13 12 13 13 12 11 11 11 9 8 6 7 9 8 10 11 11 12 13 12 13 15 16 17 17 20 21 15 16 7 5 3 1 1 1 1 2 2
13 14 14 14 14 14 15 15 15 15 15 14 14 13 13 13 13 11 10 10 11 13 15 16 16 16 15 16 17 19 20 19 16 18 11 6 4 3 3 3 2 1 1

GFSGL_con_lsi_069.txt.gz
Lid_Strength_Index
1 1 1 1 1 1 1 1 1 1 1 1 0 1 1 0 0 0 1 1 1 1 1 1 1 1 1 1 1 1 3 2 4 3 2 1 1 1 0 0 0 1 1
1 1 1 1 1 1 2 1 1 1 1 0 0 1 1 1 1 1 1 1 1 1 1 1 1 1 1 1 1 1 2 2 3 4 2 2 2 2 2 1 0 -0 0
1 1 2 1 1 1 1 1 1 1 1 1 0 1 1 1 1 1 1 1 1 1 1 1 1 1 2 1 1 2 2 2 2 4 4 2 2 1 1 1 1 0 0
2 2 2 2 1 1 1 1 1 1 1 1 1 1 1 1 1 1 1 1 1 1 1 1 1 1 1 1 1 1 1 2 2 2 2 3 3 2 2 2 2 2 2
2 2 2 1 1 1 1 1 1 1 1 1 1 1 1 1 1 1 1 1 1 1 1 1 0 1 1 1 1 1 1 2 2 3 3 3 4 4 3 2 3 2 1
2 2 2 1 1 1 1 1 2 1 1 1 1 1 1 1 3 3 1 1 1 1 1 1 1 1 2 3 3 3 2 2 2 3 3 3 3 3 2 2 2 3 4
2 2 2 2 2 2 1 1 1 2 1 2 1 1 1 1 5 5 3 1 1 1 1 1 1 0 2 1 3 4 4 4 3 1 2 2 2 2 2 2 2 2 3
2 2 2 2 2 2 2 2 2 1 1 1 1 1 1 1 5 6 5 2 1 1 1 1 1 1 1 1 1 1 1 2 2 2 2 1 1 1 1 1 1 1 1
3 2 2 2 2 2 2 2 2 2 2 1 1 1 1 1 6 7 7 4 2 1 1 0 1 1 3 5 2 2 2 2 3 6 6 5 4 4 3 1 2 3 3
2 2 2 2 2 2 2 2 1 1 2 1 1 1 2 1 6 7 7 2 3 2 1 1 4 2 5 6 2 2 2 2 2 1 1 4 5 4 6 4 2 3 4
2 2 2 2 2 2 2 1 1 2 2 2 2 1 1 1 1 8 9 2 1 2 2 1 1 5 7 8 7 1 2 1 2 2 2 1 2 1 0 2 4 3 3
3 2 2 2 2 1 2 2 2 2 2 2 2 2 1 1 5 8 10 9 4 1 2 1 1 6 8 8 7 6 7 6 2 2 2 2 2 2 1 1 1 1 1
5 2 2 2 2 2 2 2 2 2 2 3 3 3 2 1 1 8 10 11 9 3 1 3 5 8 10 10 9 8 9 5 3 3 2 2 2 1 1 1 1 1 1
5 3 2 2 2 2 2 2 2 2 3 3 3 3 2 2 2 1 5 8 9 8 5 4 6 5 5 4 5 9 7 4 3 2 2 2 1 2 1 1 2 3 3
7 4 3 2 3 2 2 2 2 2 2 2 2 2 3 3 2 4 3 3 3 5 4 3 3 3 2 2 2 2 5 4 3 2 2 2 2 2 3 3 3 3 3
8 5 3 2 2 2 3 4 15 13 12 12 9 4 4 10 9 10 12 11 11 11 5 3 3 2 3 2 2 2 2 3 2 2 2 2 2 2 3 2 2 2 3
9 8 6 4 3 3 3 3 4 9 15 17 16 11 11 10 16 16 16 15 15 10 4 2 3 3 2 2 2 2 2 2 1 2 2 2 3 2 2 2 2 2 3
8 9 7 4 3 3 3 3 3 5 5 6 14 14 16 15 15 15 15 12 7 6 3 3 3 2 2 2 2 2 2 2 2 2 2 2 2 3 3 3 3 3 3
8 8 7 6 4 5 2 2 3 3 4 5 9 11 15 17 17 16 15 3 3 3 2 3 2 2 2 2 2 2 2 2 2 2 2 2 2 3 3 2 2 6 5
7 8 7 5 4 3 3 4 3 3 3 6 6 6 8 9 6 6 6 5 4 3 2 2 2 2 2 5 3 1 2 3 3 3 3 2 3 2 3 3 4 4 4
8 7 8 6 6 6 6 5 5 4 4 5 4 5 10 5 4 3 4 3 2 2 2 2 2 3 1 1 1 1 1 2 2 2 2 2 2 3 3 3 3 3 3
9 8 8 9 9 8 8 8 6 4 4 4 3 7 9 2 3 2 3 4 5 7 8 6 9 8 8 9 9 8 9 9 9 7 5 4 4 4 4 4 3 3 3
11 10 10 10 10 10 9 10 10 9 8 5 3 2 4 6 6 7 8 8 8 10 11 12 12 13 13 13 13 14 13 13 12 9 8 6 5 4 4 4 4 3 3
12 13 12 13 12 13 13 12 12 12 12 12 10 8 8 8 8 9 10 11 12 12 12 13 15 16 15 16 16 14 16 18 14 11 11 9 7 8 5 4 3 2 2
14 14 14 15 15 15 15 16 15 14 14 13 13 14 13 13 12 12 14 13 15 16 16 17 17 17 18 18 19 20 21 21 17 19 14 10 7 5 4 3 3 2 2
14 15 15 15 15 16 16 16 16 16 15 15 15 15 15 16 16 16 15 15 17 17 18 17 17 18 17 18 19 20 21 19 17 17 11 9 9 7 6 5 4 4 3

GFSGL_con_lsi_072.txt.gz
Lid_Strength_Index
1 1 1 1 1 1 1 1 1 2 1 1 0 1 1 0 1 1 2 1 1 2 1 2 1 1 2 2 1 1 3 4 4 4 3 1 1 1 2 2 1 2 2
1 1 1 1 1 1 2 1 1 1 1 0 0 0 0 0 1 1 1 1 1 2 1 1 1 1 2 2 1 2 2 2 3 4 3 3 4 3 2 1 1 0 1
1 1 1 1 1 1 1 1 2 1 1 1 0 1 1 1 1 1 1 1 1 1 2 2 1 1 1 2 2 2 2 2 3 4 4 3 2 1 2 2 2 1 0
2 2 2 2 1 1 1 1 1 2 1 1 1 1 1 1 1 1 1 1 2 1 1 1 1 1 1 1 2 2 2 2 3 3 3 2 3 2 3 3 3 3 1
2 2 2 1 1 1 1 1 1 1 1 1 1 1 1 1 0 1 1 1 1 1 1 1 1 1 2 2 1 1 2 2 3 3 3 3 3 4 4 3 3 1 2
2 2 2 1 1 1 1 2 1 1 1 1 1 1 1 1 3 3 1 1 1 1 1 1 1 1 2 3 4 3 2 2 2 3 3 3 3 4 3 2 3 4 4
2 2 2 2 2 2 1 2 2 1 1 1 1 1 1 1 5 5 3 1 1 1 1 1 1 0 2 1 3 5 5 4 3 1 2 2 3 2 2 3 3 3 3
2 2 2 2 2 2 1 2 1 2 3 2 1 1 1 1 5 6 4 1 1 1 1 1 1 1 1 2 2 1 2 2 3 3 2 1 1 1 2 2 2 2 2
3 3 2 2 2 2 2 2 2 2 2 3 2 1 1 1 5 6 5 2 2 2 2 1 1 1 3 5 2 2 2 1 3 5 6 6 6 6 5 2 2 3 3
3 4 2 1 2 2 2 2 1 1 2 1 2 1 2 1 6 7 6 1 2 2 2 2 5 2 5 6 2 2 2 2 2 2 2 4 5 3 5 4 2 4 3
3 3 3 2 2 1 1 1 1 2 2 2 2 1 1 1 1 8 9 1 1 2 2 2 1 6 7 8 7 1 2 1 2 2 2 2 1 1 1 2 3 3 4
3 3 3 3 1 1 2 2 1 2 2 2 2 2 1 1 5 7 9 8 3 1 2 1 1 7 8 9 9 7 7 7 3 2 2 2 2 2 1 2 1 3 2
4 3 3 3 2 1 2 2 2 2 2 3 3 3 2 1 1 8 9 10 9 3 1 2 6 8 10 9 9 8 9 6 4 4 3 2 1 1 2 2 1 1 1
5 4 5 4 2 2 1 2 2 2 3 3 3 3 2 2 2 1 4 6 9 7 4 3 5 6 7 6 6 7 7 5 4 3 2 2 2 1 2 2 1 2 3
5 5 5 3 2 2 2 2 2 2 2 2 2 2 3 3 2 4 3 2 3 5 5 3 5 5 4 4 4 3 4 6 5 4 3 3 2 3 2 2 3 3 4
6 6 6 7 5 2 2 5 13 12 11 10 10 4 2 6 9 10 11 12 11 13 6 3 3 3 3 3 2 3 2 4 3 3 2 2 2 2 2 2 3 4 3
6 6 7 8 7 3 3 3 4 9 14 15 14 12 11 7 14 14 14 14 16 13 3 3 3 3 3 2 2 2 2 2 1 2 2 2 2 2 3 3 3 3 3
6 7 6 6 7 5 3 3 3 4 4 5 14 12 15 16 14 15 17 13 11 10 3 3 3 3 3 2 2 2 2 3 2 2 2 2 3 3 3 3 3 3 3
6 6 6 6 5 5 4 3 3 4 4 4 9 13 16 17 18 18 17 5 5 5 4 3 3 2 2 2 2 2 3 3 3 2 2 2 2 2 2 2 3 8 6
6 7 6 7 6 6 5 4 3 3 3 5 5 4 10 10 6 6 6 5 4 4 3 2 2 3 3 5 6 4 3 2 2 2 2 2 2 2 2 2 3 4 4
8 8 8 8 9 8 8 5 4 3 3 5 5 6 12 4 4 4 6 6 6 6 5 3 4 5 5 4 3 3 3 2 2 2 2 2 2 2 2 4 4 4 4
9 9 10 10 11 11 10 9 8 5 4 4 6 8 12 5 4 5 8 10 11 11 11 12 13 14 12 10 9 7 5 6 6 4 4 2 2 3 4 4 4 5 5
10 11 11 12 12 12 14 13 12 12 9 6 6 7 7 8 9 11 12 12 12 12 12 13 13 14 14 13 13 13 12 11 10 8 7 6 4 4 4 4 4 5 5
11 13 13 13 13 14 15 16 15 14 13 13 13 12 13 13 13 14 15 15 15 16 16 16 16 16 16 16 15 15 16 15 13 12 9 8 7 7 6 6 5 5 5
12 14 14 15 15 15 15 15 17 16 16 15 15 16 16 15 16 16 16 17 17 18 17 17 18 17 17 17 17 17 17 18 15 16 11 9 8 8 7 8 6 5 3
13 14 15 15 16 16 16 16 17 17 17 17 17 17 17 16 16 16 16 16 17 17 18 17 17 17 18 18 18 19 20 19 16 18 13 14 13 12 9 7 6 6 5

GFSGL_con_lsi_075.txt.gz
Lid_Strength_Index
1 1 1 1 1 1 2 1 1 1 2 1 0 1 2 2 1 1 1 2 1 1 2 2 2 2 2 2 2 2 3 4 5 4 4 2 2 3 2 2 1 2 2
1 1 1 1 1 1 1 1 1 1 1 1 1 0 1 1 1 1 1 1 2 2 2 2 2 1 2 2 3 2 2 2 3 4 3 3 4 2 1 1 1 1 1
1 1 1 1 1 1 1 1 1 2 1 0 1 1 1 1 1 1 1 1 2 1 1 2 2 2 2 2 2 2 2 2 3 4 3 3 2 2 2 2 3 2 0
2 2 2 1 2 1 1 1 1 1 1 1 1 1 0 0 0 0 1 1 2 1 1 1 1 1 2 2 2 2 2 2 2 3 3 4 3 2 3 3 2 2 1
2 2 2 1 1 2 2 1 1 1 1 1 1 1 1 1 1 1 1 1 1 2 2 1 1 1 2 2 2 2 2 3 3 3 4 4 3 3 3 3 3 2 2
2 2 2 1 1 2 2 2 1 1 1 2 1 1 1 1 3 3 1 1 2 2 2 1 1 1 2 3 3 4 2 2 3 3 3 3 3 3 3 3 3 4 4
2 2 2 2 2 2 2 3 3 2 1 1 1 1 1 1 4 5 3 1 1 1 1 1 1 0 1 0 3 4 4 5 4 2 2 2 2 2 3 4 3 4 4
2 2 2 2 2 2 1 2 2 2 2 2 2 1 1 1 4 4 4 1 1 1 1 1 1 1 1 1 1 2 2 2 3 3 2 1 1 1 2 2 3 4 2
2 3 2 2 2 2 2 2 2 2 2 2 3 2 1 1 5 5 5 2 2 1 1 1 1 1 3 5 2 2 2 2 3 5 5 5 5 6 5 4 3 3 3
4 2 2 2 2 2 2 2 1 1 2 2 2 3 3 1 5 6 5 1 2 1 1 1 5 2 5 7 3 2 2 2 1 2 2 4 5 3 5 3 2 3 3
5 4 4 3 2 2 2 1 1 1 2 2 2 2 2 2 1 8 8 1 1 2 2 1 1 6 8 9 8 1 2 2 2 2 2 2 2 2 1 2 3 3 4
5 4 4 4 3 1 2 2 1 2 2 2 2 2 1 2 6 7 8 7 3 1 2 1 1 7 8 9 9 7 7 7 3 3 3 3 2 1 1 1 1 2 2
6 6 4 3 3 3 2 2 2 2 2 3 3 3 2 1 1 8 9 9 8 2 1 2 6 9 10 9 9 8 8 5 3 4 3 3 2 2 2 2 1 2 2
6 6 5 4 3 2 2 2 2 2 3 3 3 3 2 2 2 1 4 6 8 6 4 3 4 6 7 6 6 8 7 5 5 4 3 3 3 3 2 2 2 2 2
7 7 6 5 5 3 3 2 2 2 2 2 2 2 3 3 2 4 3 2 2 4 4 2 2 4 3 3 4 4 5 6 6 5 5 5 4 4 3 2 2 2 3
9 7 6 5 5 6 5 2 12 10 11 11 11 5 2 6 9 11 12 12 11 12 5 2 3 2 3 2 2 3 4 5 5 4 4 4 4 3 3 2 2 2 3
8 8 6 6 4 5 6 4 4 7 14 15 14 12 12 7 13 13 14 14 15 13 3 2 3 2 2 2 2 2 3 3 2 3 3 3 3 2 2 2 3 4 4
8 8 6 5 5 4 5 5 3 3 4 3 11 12 13 14 14 14 16 14 9 11 3 3 3 2 2 2 3 3 3 2 3 2 3 2 2 2 2 3 4 3 3
8 7 5 6 5 5 5 4 3 3 3 3 5 11 14 16 17 18 17 4 3 5 5 3 2 2 2 3 3 2 2 2 3 2 2 2 2 3 4 4 4 8 6
8 7 7 6 6 6 5 5 5 3 3 3 4 3 9 10 8 7 10 7 4 4 4 4 3 2 2 3 3 2 3 4 3 3 3 5 4 4 5 6 3 4 3
9 8 7 7 8 8 8 7 8 7 4 3 3 4 11 5 4 3 4 5 5 5 6 5 4 4 5 5 6 5 5 5 4 4 3 3 4 4 3 2 2 2 2
8 8 8 9 9 10 11 10 11 10 9 4 5 8 13 4 4 8 10 12 13 14 13 13 13 13 13 13 10 7 6 5 5 4 3 4 4 2 2 3 4 3 4
8 9 9 10 11 11 12 13 13 11 12 11 8 9 10 12 13 14 15 16 16 17 16 16 16 15 15 15 14 13 10 10 11 8 6 4 4 3 3 4 4 4 4
9 11 11 11 12 13 13 13 13 15 13 14 15 14 14 15 17 17 17 18 18 17 16 16 18 17 16 16 16 16 17 16 12 9 8 6 6 8 6 5 5 5 4
11 12 12 13 13 14 14 14 14 15 16 16 15 15 15 16 18 17 18 18 18 18 18 18 17 17 17 17 17 17 19 19 15 15 10 8 7 6 7 7 6 6 5
11 12 12 13 14 15 16 16 16 16 16 16 17 17 16 17 16 17 17 17 18 18 18 17 17 17 18 18 18 19 21 20 17 18 13 12 11 11 10 8 8 8 8

GFSGL_con_lsi_078.txt.gz
Lid_Strength_Index
1 1 1 1 1 1 1 0 0 0 -0 0 -0 0 0 0 -0 0 0 0 0 0 0 0 0 0 0 0 0 0 1 2 3 2 2 0 -0 -0 -1 -1 -1 -1 -0
1 1 1 1 1 1 1 0 0 0 -0 -0 0 0 0 0 0 0 1 0 1 1 0 0 1 0 0 0 1 1 1 0 2 3 1 1 0 -0 -1 -0 -1 -1 -1
1 1 1 1 1 1 1 0 0 0 0 -0 0 0 0 0 0 0 0 0 0 0 0 0 1 0 1 1 1 1 1 1 1 2 2 0 0 -0 0 -0 -0 -1 -1
1 1 2 1 1 1 1 1 0 0 0 0 0 0 0 0 0 0 0 0 0 0 0 0 0 0 1 1 1 1 1 1 1 2 2 2 1 0 0 1 1 0 0
2 2 2 1 1 1 1 1 0 0 0 0 0 0 0 0 0 0 0 0 1 1 0 0 -0 0 2 1 0 0 1 1 1 2 2 2 2 2 2 1 2 1 0
2 2 1 1 1 1 1 1 1 1 1 0 1 1 1 0 2 3 1 1 0 1 1 0 -0 1 1 3 3 3 1 1 2 2 2 3 2 2 1 1 2 2 3
2 2 2 1 2 1 1 1 1 1 1 1 1 1 1 1 3 3 3 0 1 1 1 1 1 0 1 -0 2 3 3 4 3 1 2 2 2 1 1 1 1 2 2
2 2 2 2 2 1 1 2 2 2 2 1 1 1 1 1 3 3 2 0 0 0 0 0 0 0 0 0 0 0 0 0 1 1 1 0 0 -0 -0 0 1 1 0
3 2 2 1 2 2 2 2 1 2 2 2 2 1 1 1 5 4 3 1 1 1 0 0 0 0 3 5 1 1 1 1 2 5 4 4 5 5 3 1 2 2 3
5 5 4 3 2 2 2 2 1 1 2 2 2 2 3 1 5 6 5 1 1 1 1 0 4 1 5 7 1 1 2 1 1 0 0 2 4 2 5 2 1 2 2
6 5 4 3 3 3 2 1 1 1 1 1 2 2 2 3 2 8 8 1 1 1 1 1 1 6 8 9 7 1 1 1 1 1 1 1 0 -0 -0 1 0 1 2
5 5 5 4 4 3 2 3 1 2 2 2 2 2 1 2 6 8 9 7 3 1 1 1 1 7 9 9 8 6 7 6 1 1 1 1 1 1 0 -0 -1 -1 -1
6 5 5 4 3 3 3 2 2 2 2 2 3 3 2 1 1 8 9 9 8 2 1 2 5 8 9 9 9 8 8 4 2 2 2 2 1 0 -0 -0 -1 -1 -1
7 6 6 5 5 4 2 1 2 2 3 3 3 3 2 2 1 1 4 6 8 6 4 2 3 4 6 4 5 7 5 3 3 2 2 2 1 1 1 0 1 0 1
7 7 7 6 6 5 4 3 2 1 2 2 2 2 3 3 2 3 3 2 2 4 4 2 1 2 2 2 2 2 2 3 4 3 3 3 2 1 1 1 1 1 2
8 9 7 6 5 5 4 4 7 10 10 11 11 5 1 6 9 12 11 12 12 12 4 2 2 2 2 2 2 2 1 2 1 2 2 3 3 3 2 1 1 2 2
9 9 8 8 6 5 5 5 4 5 11 13 15 14 13 6 14 14 14 13 15 12 2 2 3 2 2 2 2 2 2 1 1 2 2 3 2 2 2 2 2 2 2
9 9 8 7 6 6 5 4 3 3 3 3 11 12 14 14 15 14 15 13 8 10 2 2 3 2 2 2 2 2 1 1 1 1 2 2 2 2 2 2 2 2 2
11 10 9 8 7 7 7 5 4 3 3 3 2 9 13 16 14 15 15 3 3 3 4 2 2 2 2 2 2 2 1 1 1 2 2 2 2 2 2 2 2 6 5
9 9 9 8 8 7 6 6 5 4 4 4 3 3 6 9 7 8 9 6 3 2 2 2 2 1 1 1 2 1 2 2 2 2 1 1 2 2 2 2 2 3 4
8 9 9 8 9 8 8 8 7 7 7 6 6 4 10 4 3 3 4 5 4 3 2 2 2 2 1 1 1 1 1 1 2 2 2 2 2 3 3 3 3 3 3
7 8 9 9 9 9 9 9 9 9 9 9 8 5 13 6 3 5 8 11 13 13 13 12 13 13 13 12 11 7 4 4 4 3 2 2 2 3 3 2 1 2 2
8 8 9 10 10 11 10 10 10 11 10 11 11 10 12 13 14 15 15 16 15 16 16 16 15 16 16 15 14 15 12 11 11 10 7 5 3 2 3 2 2 2 2
9 9 10 11 11 12 12 11 12 13 13 12 12 13 14 14 16 16 17 17 17 17 16 16 17 18 17 16 16 15 13 14 11 10 8 6 4 5 2 2 2 2 3
9 10 10 11 12 12 13 13 13 13 13 14 14 14 15 16 16 16 16 17 17 18 18 18 18 18 18 18 17 17 19 18 14 13 9 8 7 6 5 6 6 6 5
9 10 10 11 12 12 13 13 14 14 14 14 14 16 15 15 16 16 15 17 18 18 19 18 17 18 17 17 18 18 20 19 17 18 12 11 12 12 11 10 8 8 7

GFSGL_con_lsi_081.txt.gz
Lid_Strength_Index
1 0 0 0 -0 -0 -0 -0 -0 -1 -1 -0 -1 -0 -0 -0 -1 -1 -0 -1 -0 -0 -0 -0 -0 -1 0 -0 -0 -0 1 1 2 1 0 -1 -1 -1 -1 -2 -2 -2 -1
1 1 1 0 0 0 0 -0 -1 -0 -1 -1 -1 -0 -0 -0 -1 -0 -0 -0 0 0 0 -0 0 -0 -0 -0 0 0 0 0 1 2 0 0 -0 -1 -1 -1 -1 -1 -1
1 1 1 1 1 0 0 -0 -0 -0 -0 -0 -1 -0 -0 -0 -0 -0 -0 -0 -0 -0 -0 0 0 -0 0 0 0 0 0 0 0 1 2 0 0 -0 -0 -1 -1 -1 -1
1 1 1 1 1 1 0 -0 -0 -0 -0 -0 -0 -0 -0 -0 -0 -0 -0 -0 -0 -0 -0 -0 -0 -0 0 -0 0 0 0 1 0 1 1 1 1 -0 -0 1 1 -0 0
1 1 1 0 0 0 1 0 -0 -0 -0 -0 -0 -0 -0 -0 -0 -0 -0 0 0 0 -0 -0 -0 -0 1 0 0 -0 -0 1 1 1 2 2 1 1 1 1 1 1 0
1 1 1 0 0 1 0 0 0 0 -0 -0 0 -0 -0 0 2 3 0 0 -0 0 0 -0 -0 0 0 3 3 3 0 1 1 2 2 2 1 1 1 1 1 2 3
1 1 1 1 1 1 0 0 1 0 0 0 0 -0 0 -0 4 3 1 -0 0 0 0 0 0 -0 0 -0 3 4 3 4 3 0 1 1 1 0 0 1 1 1 2
2 1 1 1 1 1 1 1 1 0 1 1 1 0 0 0 4 4 2 -0 -0 -0 -0 -0 0 -0 -0 -0 -0 0 -0 -0 -0 -0 -0 -0 -0 -1 -0 -0 0 0 0
5 3 2 3 1 1 1 1 1 1 1 1 0 0 0 0 5 5 3 0 0 0 -0 -0 -0 -0 2 5 0 1 0 0 2 4 4 4 4 4 2 0 1 2 2
6 6 4 3 2 2 1 1 1 0 1 1 1 0 1 0 4 6 4 0 1 1 0 -0 4 1 5 6 0 1 1 1 0 -0 -0 1 3 0 5 -0 0 2 2
5 6 5 4 3 2 2 1 1 1 1 1 1 0 0 0 0 7 8 0 1 1 1 1 0 5 6 8 6 0 1 0 1 0 0 0 -0 -0 -0 -1 -1 0 1
4 6 5 4 4 3 2 2 2 2 2 2 2 2 1 0 5 7 9 8 2 1 1 1 0 7 8 8 7 5 6 5 0 1 1 1 1 1 -0 -0 -1 -1 -1
6 5 5 4 4 3 3 3 2 2 2 2 2 2 2 1 1 8 9 10 8 2 0 2 5 9 10 8 9 7 7 1 1 1 2 1 0 -0 -1 -1 -1 -2 -1
5 6 5 5 5 4 2 2 2 2 2 2 2 3 2 2 1 1 1 4 8 6 4 1 2 4 5 2 2 5 1 0 1 1 1 1 -0 0 1 0 1 0 1
4 4 6 6 5 5 3 3 2 2 2 2 2 2 2 2 2 3 3 1 1 3 2 1 1 1 2 1 1 1 1 0 1 1 1 1 1 1 1 0 1 1 2
6 5 5 5 5 6 5 4 7 8 9 10 12 9 3 6 9 12 12 12 12 11 3 2 2 2 2 2 2 2 1 2 1 1 1 1 1 1 1 1 1 1 2
6 7 6 6 6 5 5 5 5 5 8 9 12 12 14 10 12 14 14 14 13 10 2 2 2 2 2 2 2 2 2 1 0 1 1 1 1 1 2 2 1 2 2
4 7 7 6 6 5 6 5 4 5 4 3 5 9 10 15 15 14 14 13 6 10 2 2 2 2 2 2 2 2 1 1 1 1 1 1 1 1 2 2 2 2 2
5 6 7 7 7 6 6 6 5 4 3 3 3 4 5 13 14 15 14 2 2 2 2 2 1 2 1 1 1 1 1 1 2 1 1 1 1 2 2 2 2 6 4
5 5 7 8 8 7 6 7 7 5 4 4 4 3 2 6 5 7 8 5 2 2 2 2 1 1 1 1 1 1 1 1 1 1 2 1 1 1 2 2 2 2 2
4 5 6 7 8 8 7 7 7 7 7 6 5 4 11 8 2 2 3 4 3 2 2 1 1 1 1 1 1 1 1 2 1 1 1 1 1 2 1 1 2 2 2
4 5 6 6 7 8 8 9 9 9 9 7 7 7 11 6 6 8 8 10 10 11 11 9 8 9 11 10 10 7 4 3 2 3 2 2 2 1 2 2 2 2 2
5 5 6 6 7 8 9 9 9 10 11 10 9 9 9 10 11 12 13 13 14 13 13 12 12 13 12 13 14 14 12 10 10 9 7 5 4 2 2 2 2 2 2
6 6 7 7 8 9 10 11 11 13 12 11 11 11 11 13 13 14 14 15 16 15 14 14 14 15 14 15 14 15 16 14 11 9 8 6 4 5 3 2 1 2 2
8 8 8 8 8 9 10 12 13 13 13 13 13 12 13 13 14 15 16 16 16 16 16 16 16 16 17 17 18 17 20 18 13 14 7 8 7 8 7 8 7 6 6
9 9 9 8 9 9 10 11 11 12 14 14 14 13 13 14 15 16 16 16 16 16 16 17 17 17 18 17 18 20 21 19 16 18 11 10 10 10 10 10 10 9 10

GFSGL_con_lsi_084.txt.gz
Lid_Strength_Index
0 -0 -0 -0 -0 -0 -0 -1 -1 -1 -1 -1 -1 -1 -1 -1 -1 -1 -1 -1 -0 -1 -1 -0 -0 -1 -0 -0 -0 -0 0 0 2 1 -0 -1 -1 -1 -1 -2 -2 -2 -2
0 0 0 -0 -0 -0 -0 -1 -1 -1 -1 -1 -1 -1 -1 -1 -1 -1 -0 -1 -0 0 -0 -0 -0 -0 -0 -1 -0 -1 -0 -0 1 2 0 0 -1 -1 -1 -1 -1 -1 -2
0 0 0 0 0 0 -0 -1 -1 -1 -1 -1 -1 -1 -1 -1 -1 -1 -1 -0 -0 -0 -0 -0 -0 -0 0 -0 -0 -0 -0 0 0 1 1 -0 -0 -1 -1 -1 -1 -2 -1
0 0 0 0 1 0 0 -1 -1 -1 -1 -1 -1 -1 -1 -1 -1 -1 -1 -0 -0 -0 -1 -1 -1 -0 -0 -0 0 -0 0 0 0 1 1 1 0 -1 -0 1 1 -0 -0
1 1 1 -0 -0 0 0 -0 -1 -1 -1 -1 -1 -1 -1 -0 -0 -0 -0 -0 -0 -0 -0 -1 -1 -0 1 0 0 -0 -0 1 1 1 1 1 1 1 1 0 1 0 -0
1 1 0 -0 -0 -0 -0 0 -0 -0 -0 -0 -0 -0 -0 -0 2 3 0 -0 -0 -0 0 -0 -1 0 0 3 2 2 -0 0 1 1 1 2 1 1 0 1 1 1 2
3 1 1 1 1 0 0 0 0 0 -0 -0 0 -0 0 -0 3 3 2 -0 -0 -0 -0 -0 0 -0 0 -1 3 3 3 4 3 0 1 1 1 -0 -0 1 1 1 1
5 5 3 1 1 0 1 1 0 0 0 0 0 -0 0 -0 4 4 3 -0 -0 -0 -0 -0 -0 -0 -0 -0 -0 -0 -0 -0 -0 -0 -0 -0 -0 -1 -1 -0 0 0 0
6 6 5 4 2 1 1 1 0 1 1 0 0 0 0 0 6 6 3 -0 0 0 -0 -0 -0 -0 2 5 0 0 0 -0 2 4 4 4 5 5 3 -0 1 1 2
4 4 5 5 3 3 1 1 0 0 1 0 1 0 1 0 5 7 4 0 1 1 -0 -0 3 1 4 6 0 0 1 1 -0 -0 -0 0 2 0 4 -1 0 2 2
2 2 3 5 5 4 3 1 0 0 0 1 1 0 0 0 0 8 8 0 1 1 1 0 -0 5 6 8 7 0 1 0 0 -0 0 -0 -0 -1 -0 -1 -1 0 1
1 1 3 2 3 4 3 2 2 1 1 1 1 1 1 0 4 6 9 8 2 1 1 0 0 7 8 7 6 4 7 5 -0 0 1 1 1 0 -0 -1 -2 -1 -1
1 1 2 3 3 3 3 2 2 1 2 2 2 2 2 1 1 8 9 9 8 2 0 1 6 9 11 9 9 7 6 0 1 1 1 1 0 -0 -1 -1 -2 -2 -2
1 1 1 2 4 4 2 3 2 2 2 2 2 3 2 1 1 0 0 3 8 5 4 1 2 4 7 4 2 4 1 0 1 1 1 0 -0 -0 0 -0 0 0 1
2 2 2 2 2 4 4 3 3 2 2 2 1 2 2 2 1 6 6 1 1 2 2 0 1 1 1 1 1 1 0 0 1 1 1 1 1 1 0 0 0 1 1
2 2 3 3 2 3 4 5 6 8 10 11 11 9 3 7 9 10 10 11 11 11 2 2 2 2 2 1 2 1 1 1 1 1 1 1 1 1 1 0 0 1 2
3 1 2 4 3 3 2 3 5 5 8 9 11 11 12 11 11 12 13 14 13 9 2 2 2 2 2 2 2 2 2 1 0 1 1 1 1 1 1 1 1 1 2
2 4 2 2 2 3 3 3 3 3 4 4 5 8 10 11 12 13 15 15 5 9 2 2 2 2 1 2 2 2 1 1 1 1 1 1 1 1 1 1 1 2 2
4 3 3 2 2 3 3 3 3 4 4 3 3 4 5 9 12 13 15 7 2 2 2 2 1 1 1 1 1 1 1 1 1 1 1 1 1 1 1 1 1 5 4
4 3 3 4 4 4 4 4 4 4 4 4 3 3 2 4 3 2 3 6 4 2 1 1 1 1 1 1 1 1 1 1 1 1 1 1 1 1 2 2 2 2 2
4 3 3 2 3 4 3 4 4 5 5 3 4 4 11 7 5 4 2 3 3 2 1 1 1 1 1 1 0 1 1 1 1 1 1 1 1 2 1 2 2 2 2
5 5 4 4 3 3 4 4 4 4 5 5 4 5 11 6 6 7 7 8 9 9 9 8 8 11 10 8 8 6 6 6 3 2 1 1 1 1 2 2 2 2 2
5 5 5 5 4 4 3 3 4 4 5 6 6 6 8 8 9 10 10 10 11 11 11 10 9 10 11 11 11 11 10 8 9 8 7 5 4 3 2 2 2 2 2
7 7 7 6 5 5 5 4 4 6 7 7 7 8 9 10 11 11 12 12 13 13 13 13 13 13 12 11 11 11 12 11 9 7 7 5 4 6 4 4 4 3 3
8 8 8 7 7 7 6 6 6 6 7 8 9 10 11 11 12 12 13 14 14 15 15 15 15 15 15 15 15 15 18 18 11 11 7 6 7 7 7 6 6 7 7
9 9 9 9 8 8 8 8 8 9 9 9 10 11 12 13 13 14 14 15 16 16 17 16 16 16 17 16 18 19 21 19 14 17 7 6 7 8 8 7 7 8 8

GFSGL_con_lsi_087.txt.gz
Lid_Strength_Index
0 0 0 0 -0 -0 -0 -1 -1 -1 -1 -1 -1 -1 -1 -1 -1 -1 -1 -1 -0 -1 -0 -1 -0 -1 0 -0 -0 -0 0 0 2 1 0 -1 -1 -1 -1 -2 -1 -2 -1
0 0 0 -0 -0 0 -0 -0 -1 -1 -1 -1 -1 -1 -1 -1 -1 -1 -0 -0 -0 0 -0 -0 -0 -0 -0 -0 0 -0 0 -0 1 2 0 0 -0 -1 -1 -1 -1 -1 -1
0 0 0 0 0 0 -0 -0 -1 -1 -0 -1 -1 -0 -0 -1 -0 -1 -0 -0 -0 -0 -0 -0 -0 -0 0 0 -0 0 0 0 0 1 1 0 -0 -0 -0 -1 -0 -1 -1
1 1 1 0 0 0 -0 -0 -0 -1 -1 -1 -0 -0 -0 -1 -1 -0 -0 -0 -0 -0 -0 -0 -0 -0 0 0 0 0 0 1 0 1 1 1 1 -1 -0 1 1 -0 -0
1 1 2 0 -0 -0 -0 -0 -0 -0 -0 -1 -0 -0 -0 -0 -0 -0 -0 -0 -0 0 -0 -0 -0 -0 1 0 0 0 -0 1 1 1 2 1 1 1 1 1 1 1 -0
2 2 1 1 1 0 -0 0 -0 -0 -0 -0 0 -0 0 -0 2 2 0 0 0 0 0 -0 -0 0 0 3 3 2 0 1 1 2 2 2 1 1 0 1 1 2 3
4 5 3 2 2 1 1 0 0 0 0 0 0 0 0 -0 3 3 2 -0 -0 0 0 0 0 -0 0 -0 2 3 2 2 2 0 2 1 1 1 0 1 1 1 2
5 5 4 4 3 2 1 1 1 1 1 1 0 0 0 0 5 5 3 -0 -0 -0 -0 -0 0 -0 -0 -0 0 0 0 -0 -0 -0 0 0 -0 -0 -0 0 0 1 0
3 4 4 4 4 3 2 2 0 1 0 1 1 0 0 0 5 6 4 0 0 0 -0 -0 -0 0 2 4 0 1 1 0 2 4 3 4 4 4 3 -0 1 2 2
1 1 1 2 3 5 4 3 2 0 1 0 0 0 2 0 4 7 5 0 1 1 0 -0 3 0 4 7 0 1 2 1 0 -0 -0 1 3 0 4 -1 0 2 2
1 1 0 0 1 2 3 3 3 2 1 1 1 0 0 0 0 8 9 0 1 1 1 1 0 5 5 6 7 0 1 0 1 0 0 0 -0 -0 -0 -0 -1 1 2
1 0 0 0 1 1 2 1 2 2 2 1 1 1 1 -0 3 6 9 8 2 1 1 0 0 7 8 7 5 4 5 5 0 1 1 1 1 0 -0 -0 -1 -1 -1
1 0 0 -0 0 0 2 1 2 1 1 2 2 2 2 0 0 5 9 10 8 2 0 1 8 9 10 9 9 8 8 1 1 2 2 1 1 -0 -1 -1 -1 -1 -1
2 1 1 0 1 0 0 2 2 3 2 2 2 2 2 3 1 -0 -0 2 6 4 4 1 2 4 8 5 3 5 2 0 1 1 1 1 0 0 0 0 1 0 1
2 2 2 1 1 0 0 1 1 1 3 3 4 3 3 3 2 8 9 6 4 6 7 2 1 1 1 1 1 1 1 1 1 1 1 1 1 1 1 0 0 1 1
1 1 2 2 2 2 2 2 5 6 7 9 10 8 4 7 9 11 13 13 13 12 6 2 2 2 2 2 2 1 1 2 1 1 1 1 1 1 1 1 1 1 2
2 1 1 2 1 2 2 3 3 3 8 9 11 11 12 10 12 13 14 14 13 12 4 2 2 2 2 1 2 2 2 1 0 1 1 1 1 1 2 1 1 1 2
3 4 3 2 2 2 2 2 3 3 3 2 7 8 8 11 12 13 13 12 4 6 3 2 2 2 2 2 1 1 1 1 1 1 1 1 1 1 2 2 2 2 2
3 3 3 3 3 2 2 2 2 2 3 3 2 4 5 9 11 11 12 5 3 2 2 2 1 2 2 1 1 1 1 1 1 1 1 1 1 1 2 2 1 5 3
3 3 3 3 3 3 3 2 2 2 2 2 2 1 1 2 1 1 1 1 2 2 2 2 1 1 1 1 1 1 1 1 1 1 1 1 1 1 2 2 2 2 2
5 4 3 4 4 4 4 4 3 2 2 2 1 1 9 2 2 2 2 2 4 5 4 4 4 1 1 1 1 1 1 1 1 1 1 1 1 2 1 1 1 2 2
4 4 4 4 5 5 5 5 4 4 3 2 1 1 7 2 2 3 3 4 5 7 7 8 8 8 7 6 6 5 4 2 2 2 1 1 1 1 1 2 2 2 2
5 5 5 5 5 6 6 6 5 5 4 2 2 2 2 2 2 4 5 6 8 8 9 10 10 9 9 9 9 9 9 7 6 5 5 5 4 4 4 3 2 2 2
6 7 7 7 7 7 8 7 6 7 6 5 4 3 3 3 4 5 7 8 9 10 10 11 13 13 12 11 10 10 11 11 10 6 5 5 4 5 3 3 4 5 5
7 8 8 9 9 8 8 8 8 7 6 6 5 5 4 5 5 7 8 9 10 12 13 13 13 14 15 15 15 15 16 19 14 13 7 5 4 4 4 4 5 6 6
6 8 9 9 10 9 9 9 9 8 8 7 7 6 6 6 7 8 9 10 11 13 14 14 15 15 16 17 17 18 20 18 13 16 6 5 5 6 6 7 7 7 7

GFSGL_con_lsi_090.txt.gz
Lid_Strength_Index
1 1 1 1 0 0 0 -0 -1 -1 -0 0 0 1 -0 -0 -0 -0 -0 -0 0 0 0 0 0 0 1 0 1 1 1 1 3 2 1 0 0 0 -0 -1 -1 -1 -1
1 1 1 1 0 1 0 0 -0 -0 -1 -0 0 0 0 -0 -0 0 0 0 1 1 1 0 1 0 1 0 1 1 1 1 2 3 1 1 1 0 0 0 -0 -0 -1
1 1 1 1 1 1 1 0 -0 0 0 -0 -0 0 0 0 0 0 0 0 0 0 0 1 1 1 1 1 1 1 1 1 1 2 2 1 1 0 1 0 0 -0 -1
1 1 1 1 1 1 0 0 0 -0 0 0 -0 0 0 0 0 0 0 0 0 0 0 0 0 1 1 1 1 1 1 1 1 2 2 2 1 1 1 2 2 1 1
2 2 2 1 1 0 -0 0 -0 -0 0 0 0 0 0 0 0 0 0 0 1 1 0 -0 0 0 1 1 1 1 1 1 2 2 2 2 2 2 2 1 2 1 1
3 3 2 2 1 1 1 0 -0 -0 0 0 0 0 1 0 2 3 1 0 0 1 1 0 0 0 1 3 3 2 1 1 2 2 2 3 2 2 1 2 2 3 4
3 3 3 2 2 2 1 1 1 1 0 1 0 0 1 0 3 4 3 0 1 1 1 1 1 0 1 0 2 3 3 3 2 1 2 2 2 1 1 2 2 2 2
3 3 3 3 3 3 2 2 2 1 1 1 1 0 1 0 5 5 5 0 0 0 0 0 1 1 0 0 0 1 1 0 0 1 1 1 0 0 0 1 1 1 1
1 1 2 2 3 3 4 3 2 2 1 1 1 1 1 1 6 7 5 0 1 1 0 0 0 0 2 4 1 1 1 1 3 4 4 3 3 3 2 0 2 2 3
1 1 0 0 1 2 2 3 2 1 1 1 1 0 2 1 4 7 6 1 1 1 1 0 3 1 4 5 1 1 2 1 1 1 0 2 3 2 5 2 1 3 3
0 0 0 0 0 0 0 1 1 2 1 1 1 1 0 1 1 7 8 1 1 1 1 1 0 5 7 7 7 1 1 1 1 1 1 1 0 0 0 -0 -0 1 2
0 1 0 0 0 0 0 0 1 1 1 1 1 1 1 0 4 4 8 8 4 1 1 1 1 8 10 10 8 6 6 4 1 1 1 2 1 1 0 0 -0 -0 -0
1 1 1 0 0 0 1 1 1 1 2 2 2 2 2 2 1 6 8 8 8 5 3 3 8 9 10 8 10 9 8 3 1 2 2 2 1 0 0 0 -0 -0 -0
1 1 1 1 1 1 1 1 1 1 2 2 2 2 2 2 1 2 4 5 6 5 5 3 5 7 7 5 4 2 5 2 1 2 2 1 1 1 1 1 1 1 1
3 2 1 2 1 1 1 1 1 0 1 1 2 2 3 4 3 8 9 6 5 7 9 6 3 2 2 2 1 1 1 2 1 1 1 2 2 1 1 1 1 1 2
4 3 2 2 2 2 2 1 3 6 7 7 7 6 2 6 9 10 13 14 14 12 8 6 4 2 2 2 2 2 1 2 1 1 1 2 2 2 2 1 1 2 2
5 4 4 4 2 2 2 2 3 2 6 8 9 8 9 7 9 11 13 14 14 12 6 4 2 2 2 2 2 2 2 1 1 1 2 2 2 2 2 2 2 2 2
3 4 4 3 3 3 2 2 2 3 2 2 4 7 8 9 10 11 13 12 3 6 4 3 2 2 2 2 2 2 2 1 1 1 1 2 1 2 2 2 2 2 3
3 4 4 4 4 4 3 2 2 2 2 2 1 3 4 9 9 11 12 2 2 2 2 2 1 1 1 1 1 1 1 1 1 2 2 2 1 2 2 2 2 6 4
4 4 4 5 4 4 4 4 4 3 3 3 2 1 1 1 1 1 1 1 1 1 2 2 2 2 2 2 1 1 1 2 2 2 2 2 2 2 2 2 2 3 2
5 5 5 5 5 5 5 4 4 5 4 4 4 2 6 2 1 1 1 1 1 2 4 5 5 5 5 5 5 3 1 2 1 1 2 2 1 2 2 2 2 2 2
6 6 6 6 6 6 6 5 5 5 5 5 5 4 6 3 1 1 1 1 3 4 5 6 6 7 5 6 7 8 6 3 3 2 2 3 2 2 2 2 2 2 2
6 6 6 7 7 7 7 6 6 6 6 5 5 5 4 4 3 3 2 3 4 5 6 7 8 8 7 7 7 8 9 8 7 5 5 4 4 2 2 2 2 2 3
5 6 7 7 7 7 7 7 7 7 7 7 6 5 5 5 5 4 4 4 5 6 7 8 9 10 10 11 11 12 12 11 12 11 8 5 4 4 3 3 3 3 4
4 5 6 6 7 7 8 8 8 8 8 7 7 7 6 6 6 6 5 6 7 8 8 9 9 10 11 12 14 14 16 19 18 15 9 6 5 3 3 3 4 5 5
3 4 5 6 7 8 9 9 9 9 9 9 8 8 8 8 7 7 7 7 8 9 9 10 10 11 12 13 14 17 19 20 17 17 11 6 5 6 5 6 6 6 6

GFSGL_con_lsi_093.txt.gz
Lid_Strength_Index
1 1 1 1 1 1 1 1 1 1 0 1 1 2 2 1 0 0 1 1 1 1 1 1 1 1 1 1 1 1 2 2 4 2 1 1 1 1 1 0 -1 0 0
2 2 1 1 1 1 1 1 0 1 1 1 3 3 3 0 0 1 1 1 1 1 1 1 1 1 1 1 1 1 2 2 3 4 3 2 2 2 1 0 0 -0 0
1 1 2 1 1 1 1 1 0 1 0 1 1 2 1 0 1 1 0 1 1 1 1 1 1 1 2 1 1 1 1 1 2 2 3 1 1 1 2 1 1 0 -1
1 1 1 2 2 2 1 1 1 0 1 1 0 0 0 0 0 0 1 1 1 1 0 1 1 1 1 1 1 1 1 2 2 2 2 2 2 1 1 2 3 2 1
2 1 1 1 1 2 1 1 0 0 0 0 1 1 0 1 0 1 1 1 1 1 1 0 0 0 1 1 1 1 1 2 2 3 3 3 4 3 3 2 2 2 2
3 2 1 1 2 1 1 2 1 1 1 1 1 1 1 0 3 3 1 1 1 1 1 1 0 1 1 2 3 3 1 2 2 3 3 3 3 3 2 2 3 3 4
4 4 3 3 3 2 2 2 3 3 1 1 1 1 1 1 4 4 4 2 1 1 1 1 1 0 1 0 3 4 4 4 3 2 3 2 2 2 2 2 2 3 3
4 4 3 3 3 3 3 3 3 3 3 2 1 1 1 1 4 6 5 3 3 2 1 1 1 1 1 1 1 1 2 2 2 3 3 2 2 2 2 1 1 1 1
4 4 3 3 4 3 4 4 3 3 3 2 2 1 1 1 5 6 6 3 3 2 2 1 1 1 3 5 2 2 1 1 3 4 4 5 5 5 3 2 2 3 3
3 3 2 2 3 3 3 4 3 3 3 2 2 1 2 1 4 6 6 3 2 2 1 2 4 2 4 5 2 2 2 2 2 1 2 4 5 3 5 3 1 3 3
2 2 1 2 1 2 1 2 3 4 3 3 2 1 1 1 2 8 8 3 1 1 1 1 1 7 9 10 9 2 2 2 1 1 1 1 1 1 1 2 2 1 2
3 3 3 2 2 1 1 1 1 1 2 2 2 2 1 2 7 8 9 9 7 5 3 2 2 10 11 10 9 8 8 7 3 2 1 2 2 1 1 1 0 0 0
4 3 3 3 3 2 2 2 3 2 3 2 2 3 3 2 2 7 7 7 7 5 4 5 8 10 9 7 9 9 9 7 5 4 3 2 1 1 0 1 2 2 0
6 6 5 4 4 4 3 2 3 3 3 3 3 3 3 4 5 2 4 4 6 5 5 4 6 7 7 6 6 4 2 2 2 3 3 3 2 1 1 1 1 1 2
7 7 6 6 6 5 4 4 4 3 5 6 5 3 3 4 4 6 8 7 5 5 9 6 4 3 2 2 2 1 1 2 4 3 2 2 2 2 2 1 1 2 2
7 7 7 7 6 6 5 5 5 6 7 8 9 8 4 5 7 8 10 12 12 11 7 5 5 3 2 2 2 2 1 2 1 3 2 2 2 2 2 2 1 2 3
7 6 7 6 6 6 6 5 5 5 6 7 8 8 10 9 9 9 9 12 12 10 6 4 4 3 3 2 2 2 2 1 1 1 2 2 2 2 3 2 2 2 3
6 5 7 7 7 7 6 6 6 6 5 5 5 6 7 9 10 10 10 10 4 8 4 3 2 2 2 2 2 2 2 1 1 1 2 2 2 2 2 3 2 3 3
7 8 7 8 7 6 6 6 6 6 6 5 5 5 5 7 8 9 11 7 4 2 2 2 2 2 2 2 2 2 2 2 3 1 2 2 2 2 2 4 4 7 5
7 5 5 8 7 7 7 7 6 6 7 6 5 5 5 5 6 5 4 3 1 2 3 3 2 3 5 6 6 6 5 3 3 2 2 2 2 2 2 2 2 3 3
8 8 6 8 9 9 8 8 8 8 7 7 6 6 7 6 6 6 4 3 3 4 5 6 5 6 6 6 7 7 6 5 4 3 3 2 2 2 2 2 2 2 2
9 9 9 10 9 9 10 9 9 9 9 8 8 7 8 6 5 5 5 4 4 4 4 5 6 7 7 7 7 8 8 6 5 5 4 4 2 2 2 2 2 2 3
9 9 10 10 10 9 10 10 10 10 10 9 9 9 8 8 7 7 6 5 4 5 6 6 7 7 7 8 8 8 9 9 8 7 7 8 6 5 2 2 2 2 3
7 8 9 9 9 8 9 10 10 10 10 10 10 9 9 8 7 7 6 5 6 6 6 7 8 8 8 9 9 9 10 9 9 10 10 10 9 7 5 4 2 2 2
7 7 8 8 8 9 8 9 10 10 9 9 9 9 9 8 8 7 7 6 6 6 6 7 8 8 9 10 10 10 12 14 15 15 14 11 9 7 5 4 3 3 4
6 6 7 7 7 8 9 8 9 9 9 9 10 10 9 8 8 7 7 7 7 7 7 7 8 9 10 10 11 12 14 15 15 16 15 11 9 8 5 5 4 5 6

GFSGL_con_lsi_096.txt.gz
Lid_Strength_Index
2 2 2 1 1 1 1 1 1 1 1 1 1 0 1 1 1 1 1 1 1 1 1 1 2 1 2 1 1 2 3 3 4 4 2 2 2 3 1 1 0 0 0
2 2 1 1 1 1 1 1 1 1 1 2 1 2 2 2 1 1 1 1 1 1 1 1 1 1 1 1 2 2 2 2 3 4 3 3 2 1 1 1 0 -0 -0
1 1 2 2 1 1 1 1 1 2 1 1 3 4 4 3 1 0 1 1 1 1 1 1 1 1 2 1 2 2 2 1 2 3 3 2 2 1 2 1 1 1 0
1 1 1 1 2 2 2 1 1 1 1 1 1 2 2 1 0 0 1 1 1 1 1 1 1 1 1 2 2 2 2 2 2 3 3 3 3 2 3 2 2 1 1
1 1 1 1 1 1 1 1 2 1 1 1 1 1 1 0 0 1 1 1 2 2 1 1 0 1 2 2 2 2 2 2 2 3 3 3 3 3 3 2 3 2 2
2 2 1 1 1 1 1 1 2 2 2 1 1 1 1 0 2 4 2 1 1 1 2 1 1 1 1 3 3 3 2 3 3 3 3 3 3 3 2 2 2 3 4
3 3 2 2 3 2 2 2 2 3 2 3 2 1 2 1 4 5 4 2 1 1 1 1 1 0 2 1 2 3 4 4 4 3 3 3 3 3 3 4 3 3 3
4 3 3 2 3 3 2 3 3 2 2 3 3 2 2 1 5 6 5 3 3 3 2 1 1 1 2 2 2 2 1 2 3 3 2 2 2 2 4 3 4 3 2
7 6 5 4 4 3 3 3 3 3 3 3 2 2 2 2 5 7 5 2 3 3 2 2 1 1 2 4 3 2 2 2 3 5 5 5 5 5 5 3 4 4 3
5 4 4 4 5 4 5 4 3 3 2 2 2 2 3 1 7 7 5 2 2 2 2 1 5 3 5 6 2 1 2 2 1 1 1 3 5 4 6 4 2 3 3
4 3 4 4 3 3 3 3 3 4 5 4 3 2 2 2 4 8 8 3 3 3 2 1 2 9 11 11 10 6 4 4 4 3 1 1 1 2 2 3 2 2 2
5 5 5 4 3 3 3 3 3 3 3 3 2 3 2 2 6 7 8 7 5 5 4 3 3 9 10 9 9 8 9 9 6 4 4 3 2 2 1 0 1 2 1
7 7 6 6 5 5 5 4 4 3 4 4 4 3 3 4 2 7 7 7 6 5 3 5 8 9 10 8 7 8 8 5 5 5 4 3 3 2 1 1 1 1 1
8 8 8 8 8 7 6 5 5 5 6 6 6 6 4 4 3 3 3 5 6 5 4 5 5 7 8 7 6 3 3 3 2 2 2 1 2 2 2 1 2 2 2
8 8 9 8 9 8 7 7 6 6 8 7 7 7 7 6 5 6 6 5 6 7 8 6 5 4 3 2 2 1 1 1 1 1 2 2 2 2 3 2 2 2 3
9 9 9 9 9 8 8 8 7 8 8 9 10 9 7 7 9 10 10 11 11 9 5 4 3 2 4 3 3 2 1 2 1 1 2 2 2 2 2 2 2 2 3
8 8 9 8 9 9 8 8 8 7 7 8 9 9 9 10 10 10 11 11 10 9 6 4 3 2 2 2 2 2 2 1 1 1 1 2 2 2 2 2 2 2 3
9 6 9 9 9 9 8 8 8 8 8 7 7 7 8 9 10 10 11 9 6 7 5 4 3 2 2 2 3 3 4 4 3 3 2 2 1 2 2 2 2 3 3
9 9 9 9 9 8 9 8 8 8 8 8 7 7 7 8 8 9 10 7 6 5 4 2 1 2 4 4 4 5 5 5 5 5 4 3 1 2 2 2 2 6 5
9 6 7 10 10 10 9 9 9 9 10 9 9 8 7 7 8 7 6 6 6 4 3 4 4 5 5 6 6 6 6 6 6 6 6 5 4 2 2 2 2 3 3
9 9 7 10 11 10 10 11 10 10 10 10 10 9 8 9 9 8 7 6 5 4 4 4 4 5 5 6 6 7 8 7 6 5 6 6 5 4 4 3 2 2 2
10 10 11 11 11 11 11 11 11 11 11 11 11 10 9 9 9 9 8 8 7 6 5 4 4 5 6 7 7 7 8 9 8 7 7 6 7 7 5 4 2 2 2
11 11 11 11 11 10 12 12 12 11 11 11 11 11 11 11 10 10 9 8 8 7 5 4 5 6 6 6 7 7 8 9 9 8 9 9 8 9 8 6 5 3 3
9 9 10 10 10 10 11 11 11 10 11 11 11 11 11 11 11 11 10 9 8 8 7 6 6 6 8 7 8 8 8 9 9 10 11 11 11 10 9 8 6 4 3
8 9 9 9 9 10 10 10 10 9 9 10 11 11 11 11 11 11 10 10 9 9 8 7 7 7 8 8 8 9 10 12 12 12 13 13 13 11 10 9 8 6 5
8 8 8 9 9 9 9 10 10 10 9 10 10 11 11 11 10 10 10 9 9 9 9 8 8 8 8 8 9 11 13 14 14 14 13 13 12 11 9 9 8 6 5

GFSGL_con_lsi_099.txt.gz
Lid_Strength_Index
1 2 1 1 1 1 1 1 0 1 1 1 1 1 1 1 1 1 1 2 1 2 1 2 1 2 2 2 2 2 2 3 4 3 3 2 2 2 1 1 0 0 0
2 2 1 1 1 1 1 1 0 1 1 1 1 1 1 1 1 1 2 1 1 2 2 2 2 1 2 2 1 2 2 2 3 4 3 2 2 2 2 1 1 0 1
1 2 2 1 2 2 2 2 0 1 2 1 2 2 2 2 2 1 1 1 1 1 1 2 2 2 2 2 2 2 2 2 2 3 3 2 2 2 3 2 1 1 -0
1 1 1 1 2 2 2 2 1 1 2 2 2 2 3 4 3 1 1 1 1 1 1 1 1 1 2 2 2 3 3 3 3 3 3 3 3 2 2 2 2 1 1
1 2 2 1 1 1 1 1 2 2 1 1 2 2 2 2 1 1 1 1 2 2 2 1 1 1 1 2 1 2 2 3 3 4 4 4 4 3 3 2 2 3 2
2 2 1 1 1 1 1 2 1 2 2 2 2 1 2 0 3 4 2 2 1 2 2 2 1 2 2 3 3 3 2 2 3 3 3 4 4 4 4 3 4 5 5
3 2 2 2 3 3 2 2 2 2 2 2 2 2 2 2 5 5 4 3 2 2 1 1 1 0 2 1 3 4 4 4 3 2 3 3 3 4 4 4 4 4 4
5 4 4 3 2 2 3 3 3 2 2 2 2 2 2 1 6 6 5 4 3 3 3 2 1 1 1 1 1 2 2 2 3 3 2 2 2 2 3 3 4 4 4
8 7 6 5 4 4 5 4 3 3 3 2 1 1 1 1 5 6 5 3 2 2 2 2 2 2 4 6 2 2 2 1 2 5 5 5 5 5 5 4 4 4 3
8 8 8 7 8 7 6 5 5 4 4 3 3 2 3 1 7 7 5 2 2 2 2 2 5 7 9 9 5 3 3 2 2 2 2 3 5 3 5 3 2 3 3
6 6 6 6 6 7 7 7 7 6 6 5 3 1 1 2 4 7 7 4 5 4 4 3 2 7 10 11 10 5 5 4 4 4 4 3 2 2 1 3 2 2 2
7 6 7 7 6 5 6 5 5 5 6 7 8 7 7 5 6 7 8 8 6 6 6 4 3 7 9 10 9 7 8 8 5 4 3 3 3 2 2 1 1 1 1
8 8 8 8 7 7 7 7 6 6 6 6 6 6 6 6 7 8 8 8 7 7 6 6 8 9 9 8 7 8 8 4 3 3 3 2 1 1 1 2 2 1 1
9 9 9 9 9 8 7 7 7 8 8 7 7 7 7 6 6 6 7 7 6 7 6 8 7 7 7 6 5 3 2 2 2 2 2 1 1 1 1 1 2 2 2
9 9 10 10 10 10 9 9 8 8 8 8 8 8 8 8 7 9 10 8 9 9 9 5 4 4 4 4 4 4 3 2 2 1 1 2 1 1 1 1 2 2 2
10 10 10 11 11 11 11 10 9 9 9 10 10 10 8 8 10 10 11 11 10 10 7 6 5 4 3 2 2 2 1 1 3 3 2 2 2 2 2 1 1 2 3
10 11 11 11 11 11 11 11 11 10 9 10 10 10 10 11 11 11 11 11 10 9 8 6 5 4 3 1 2 2 3 2 4 4 4 4 4 3 2 2 2 2 2
10 7 10 10 10 10 10 10 9 10 10 11 9 10 10 11 11 11 11 11 9 8 7 6 4 3 2 2 3 4 5 5 5 5 5 4 4 4 3 3 2 3 3
9 10 11 11 11 10 11 11 11 11 11 11 10 10 9 10 10 10 10 9 9 9 8 7 6 5 5 5 5 6 6 6 6 6 5 5 5 4 5 4 2 5 5
9 7 9 11 11 12 12 12 12 12 12 11 11 11 10 10 11 11 10 9 9 9 8 7 6 5 5 5 5 6 7 7 7 7 7 6 6 5 5 4 5 4 3
9 9 8 11 11 11 11 11 12 12 12 11 11 10 9 11 11 11 10 10 10 9 9 9 8 7 6 5 6 6 7 7 7 7 8 7 7 7 6 5 5 5 4
10 11 11 11 11 11 12 12 12 12 12 12 11 11 10 11 11 11 11 11 10 10 9 8 8 7 6 5 6 7 8 8 8 7 8 9 8 9 8 8 6 6 5
10 11 11 11 11 10 12 12 13 13 13 12 12 12 12 12 11 12 11 11 11 10 9 8 8 8 7 6 6 6 7 8 8 8 9 9 9 9 9 10 9 8 7
11 11 11 12 11 12 12 12 12 11 12 12 12 12 12 12 12 12 12 11 11 11 10 10 10 9 9 8 7 7 7 7 7 8 8 9 9 10 10 10 10 9 8
10 10 10 10 10 10 10 10 11 11 11 11 11 10 10 10 11 11 11 11 11 11 11 10 10 10 10 9 9 8 9 11 10 10 10 10 10 11 11 11 10 10 9
8 8 9 9 9 10 10 10 11 11 11 11 11 10 9 9 10 10 10 10 10 10 10 10 9 9 9 9 9 10 12 13 12 13 12 12 12 11 11 10 10 9 9

GFSGL_con_lsi_102.txt.gz
Lid_Strength_Index
1 1 1 1 1 0 1 0 -0 -0 -0 -0 -0 -0 -0 -0 -0 0 0 -0 0 0 -0 0 0 -0 0 0 -0 0 1 1 3 2 0 -0 -0 -0 -1 -1 -1 -2 -1
1 1 1 0 0 1 0 0 -0 0 -0 0 -0 -0 -0 -0 -0 0 0 0 1 1 0 0 1 0 0 -0 0 1 1 1 2 3 1 1 0 -1 -1 -1 -1 -1 -1
1 2 2 3 2 2 1 1 0 -0 -0 1 0 0 0 0 0 0 0 0 1 0 0 1 1 0 1 1 1 1 1 1 1 2 2 1 0 -0 0 -0 -0 -1 -1
1 1 1 2 1 1 1 1 1 0 0 0 0 1 1 1 0 0 -0 0 0 0 0 0 0 0 0 0 1 1 1 1 1 2 2 2 1 0 1 1 2 0 0
1 1 1 1 1 1 1 1 1 1 1 0 1 1 1 1 2 1 1 0 0 0 0 0 -0 0 2 1 0 0 1 1 1 2 2 2 2 2 2 1 1 1 0
1 2 1 1 1 1 1 1 1 1 1 1 1 1 1 0 4 4 3 0 0 1 1 0 -0 1 1 3 4 3 1 1 2 2 2 3 2 1 1 1 1 2 3
3 3 3 2 2 3 2 2 2 2 1 1 1 1 1 1 6 6 4 2 0 0 0 0 0 0 1 -0 2 4 4 5 3 0 2 2 2 1 1 1 1 2 2
6 5 4 3 4 4 4 3 3 3 2 1 1 1 0 0 6 6 5 1 1 1 1 1 1 0 0 1 0 0 0 -0 -0 1 1 0 -0 -0 -0 0 1 1 1
8 7 7 5 5 5 5 5 4 4 4 3 1 1 1 3 6 6 3 1 1 1 1 1 1 1 7 7 2 1 1 1 2 5 5 5 5 5 4 1 2 2 3
8 9 7 7 7 5 5 5 4 4 4 3 1 1 3 2 7 7 5 3 5 4 2 2 5 5 8 7 4 3 2 2 1 1 1 2 3 2 5 2 1 2 3
7 8 8 8 8 8 7 7 6 5 5 6 6 6 6 7 7 8 8 5 5 4 4 4 3 7 8 9 9 5 4 4 4 2 1 1 1 0 0 0 0 0 2
7 7 7 6 5 5 5 5 6 6 6 7 8 7 7 6 9 9 9 9 8 6 5 4 4 9 10 10 7 6 8 8 3 3 2 2 1 1 0 -0 -1 -1 -1
8 9 8 8 7 6 6 6 7 6 6 6 6 6 8 8 9 10 10 9 9 8 7 8 9 10 9 7 7 7 7 2 2 2 2 1 1 0 -0 -0 -1 -1 -1
9 9 9 9 9 8 7 7 7 7 7 7 7 7 7 6 7 7 7 8 8 8 8 8 7 7 7 6 5 3 2 2 1 1 1 1 0 0 1 0 1 1 1
10 10 10 10 9 9 9 9 8 8 8 8 8 8 8 8 8 9 10 9 8 8 8 4 4 3 3 3 2 2 1 1 3 4 4 4 4 3 3 1 1 1 2
10 10 10 10 10 10 10 10 9 9 10 11 11 10 9 10 11 11 12 11 11 10 6 5 4 4 3 2 2 1 1 2 3 3 3 4 4 4 4 4 2 1 2
10 10 10 10 10 11 11 11 12 11 10 11 11 11 11 12 12 12 12 12 10 9 7 6 5 4 4 3 2 3 3 3 4 4 4 4 4 4 4 3 3 4 3
9 9 10 10 11 11 11 11 11 12 12 12 11 11 12 12 12 12 12 11 10 9 9 9 8 6 5 4 4 4 5 4 4 5 5 5 4 4 4 4 4 4 3
9 10 10 10 10 10 10 10 10 11 11 11 11 11 11 12 12 12 11 11 11 11 10 10 9 9 8 8 6 5 5 5 6 6 6 6 6 6 6 5 4 6 5
8 8 9 10 10 10 10 10 11 11 11 11 11 11 10 10 11 11 11 11 11 11 10 10 10 9 9 8 8 7 6 7 7 7 7 7 7 7 7 6 6 6 5
8 7 8 10 10 10 10 10 11 11 11 11 11 10 10 11 11 11 11 11 11 11 12 11 10 9 9 9 8 7 7 8 8 8 8 8 8 8 8 8 8 8 7
8 8 9 9 9 9 9 9 9 9 10 10 10 10 10 10 10 11 10 10 10 10 10 10 10 9 9 9 8 8 8 9 8 8 9 9 9 9 9 9 9 9 9
8 9 9 9 9 9 9 9 9 9 10 10 10 10 10 11 11 11 11 11 10 11 10 10 10 9 9 9 8 9 10 10 9 8 9 9 9 10 10 10 10 10 10
9 9 9 10 10 9 9 9 9 10 10 10 10 10 10 10 10 10 10 10 10 10 10 10 10 10 10 10 10 10 9 9 8 8 8 8 9 10 10 10 10 10 10
8 8 9 9 9 8 9 9 9 9 9 9 9 9 9 9 9 9 9 9 9 10 10 10 11 11 10 10 10 9 10 12 11 11 11 10 10 10 10 10 10 10 10
6 7 7 8 8 8 8 7 7 7 8 8 8 8 9 8 8 8 8 8 9 9 10 10 10 10 10 10 10 10 12 13 12 13 12 12 12 12 11 11 11 10 10

GFSGL_con_lsi_105.txt.gz
Lid_Strength_Index
0 0 -0 0 -0 -0 -0 -0 -0 -1 -1 -1 -1 -1 -1 -0 -1 -1 -1 -1 -0 -0 -0 -0 -0 -1 -0 -0 -0 -0 0 1 2 1 0 -1 -1 -1 -1 -2 -2 -2 -2
1 0 0 -0 -0 0 0 -0 -1 -0 -1 -1 -1 -1 -1 -1 -1 -0 0 -0 -0 0 -0 -0 0 -0 -0 -0 0 -0 0 -0 1 2 0 0 -0 -1 -1 -1 -1 -1 -1
0 1 0 0 0 0 0 -0 -1 -0 -0 -1 -0 -0 -0 -0 -0 -0 -0 -0 -0 -0 -0 0 -0 -0 0 -0 -0 0 0 0 0 1 2 0 0 -0 -0 -1 -1 -1 -1
1 1 1 1 0 0 -0 -0 -0 -1 -0 -0 -0 -1 -1 -1 -1 -0 -0 -0 -0 -1 -0 -0 -0 -0 0 -0 0 -0 -0 0 0 1 1 1 1 -0 -0 1 1 -0 -0
1 1 1 1 0 -0 -0 -0 -0 -0 -0 -1 -0 -0 -1 -0 -0 -0 -0 -0 -0 0 -0 -1 -1 -0 1 0 -0 -0 -0 1 1 1 2 1 1 1 1 1 1 1 -0
1 2 1 1 0 0 -0 -0 -0 -0 -0 -0 -0 -0 0 -0 5 4 1 -0 -0 0 0 -0 -1 0 1 3 3 3 1 0 1 1 2 2 1 1 1 1 1 2 3
2 2 1 2 2 1 0 0 0 0 -0 0 -0 -0 0 0 6 6 4 -0 -0 0 -0 0 -0 -0 -0 -1 2 3 3 5 3 0 1 1 1 0 0 1 1 1 2
5 4 3 3 3 2 2 3 2 1 0 0 0 -0 1 4 7 6 4 -0 -0 -0 -0 -0 0 1 5 3 -0 0 -0 -0 -1 -0 -0 -0 -0 -1 -0 -0 0 0 0
7 6 5 4 4 3 4 3 3 3 2 0 0 1 3 5 8 7 3 1 1 1 1 2 2 4 6 6 1 1 0 0 2 4 5 6 6 6 4 0 1 2 2
8 7 6 5 4 4 3 2 2 2 3 5 4 5 7 7 9 8 5 3 3 3 2 2 5 5 8 8 3 3 3 1 1 0 -0 0 2 0 4 -1 0 2 2
8 8 8 6 6 6 5 4 4 4 5 5 6 6 7 8 10 10 9 5 4 4 4 3 3 7 9 10 9 2 3 4 2 1 1 0 -0 -1 -1 -1 -1 0 2
4 4 4 4 5 5 5 5 4 4 5 5 5 6 7 6 9 9 9 9 8 5 5 4 4 9 10 10 7 8 8 6 1 1 1 1 1 0 -0 -1 -1 -1 -1
5 5 5 4 4 4 4 4 4 3 4 4 3 4 7 7 7 9 10 9 9 7 7 8 8 9 8 6 7 7 6 1 1 1 2 2 1 1 -0 -1 -1 -2 -2
7 7 6 6 6 5 5 5 6 5 5 6 6 7 6 6 7 7 9 8 8 7 7 7 6 7 7 6 4 3 2 1 1 2 2 3 3 3 3 2 2 1 1
8 8 8 7 7 7 7 7 7 8 8 7 7 7 7 9 10 10 11 9 7 8 7 4 3 4 4 4 4 3 2 2 3 3 3 3 3 3 3 2 3 3 3
8 9 9 8 8 8 8 8 10 10 11 11 11 10 8 11 11 12 12 12 11 10 6 6 5 4 4 3 3 3 2 3 3 3 2 2 2 2 2 2 1 2 2
8 9 9 9 8 8 8 8 9 10 11 11 12 12 12 12 12 13 13 12 10 9 8 7 7 6 5 5 4 3 4 4 3 3 3 3 2 2 3 2 2 2 2
8 10 9 9 9 9 9 9 9 9 10 10 11 12 12 13 13 13 12 11 8 8 8 9 9 9 8 7 6 6 6 6 5 5 5 5 5 5 4 5 4 4 3
8 8 8 8 8 8 8 8 8 9 9 9 9 10 11 12 12 12 12 9 10 10 9 9 9 9 9 9 8 8 8 7 7 6 6 6 7 7 7 7 7 7 7
7 7 7 7 7 7 7 7 8 8 8 8 9 9 9 9 9 9 9 9 9 9 9 9 9 9 8 8 9 8 9 9 9 9 8 7 7 8 8 8 8 8 8
6 6 7 6 6 6 6 7 7 7 7 7 7 9 11 8 8 8 8 8 9 9 9 9 9 9 9 9 8 8 8 9 9 9 8 8 8 9 9 9 9 10 9
5 5 6 6 6 6 6 6 6 6 6 6 7 8 10 7 7 8 8 8 8 9 9 9 10 10 10 10 10 10 10 10 10 9 9 9 10 9 9 9 10 10 10
5 5 5 5 5 5 6 5 5 5 5 4 5 5 6 6 7 7 7 7 7 8 9 9 9 10 9 9 9 9 10 10 9 9 10 10 10 10 10 10 10 10 10
4 5 5 5 6 5 5 5 5 7 5 5 5 5 5 6 7 7 7 7 7 7 7 8 9 10 10 10 9 9 9 9 9 9 10 10 10 10 10 10 10 10 10
3 4 4 4 5 5 5 5 5 5 5 5 5 5 5 5 6 6 6 6 6 6 7 7 7 8 9 9 9 9 10 12 11 11 10 10 11 11 11 11 11 10 10
3 3 3 3 3 3 4 4 4 4 4 4 4 4 4 4 4 5 5 5 5 6 6 7 7 8 8 9 9 10 12 12 11 12 10 10 11 10 10 10 11 11 11

GFSGL_con_lsi_108.txt.gz
Lid_Strength_Index
0 -0 -0 -0 -0 -1 -1 -1 -1 -1 -1 -1 -1 -1 -1 -1 -1 -1 -1 -1 -0 -1 -1 -1 -1 -1 -0 -0 -0 -0 0 0 2 1 -0 -1 -1 -1 -1 -2 -2 -2 -2
0 -0 -0 -0 -0 -0 -0 -1 -1 -1 -1 -1 -1 -1 -1 -1 -1 -1 -0 -1 -0 -0 -0 -0 -0 -0 -0 -1 -0 -1 -0 -0 1 2 0 0 -1 -1 -1 -1 -1 -1 -2
0 0 0 -0 -0 -0 -0 -1 -1 -1 -1 -1 -1 -1 -1 -1 -1 -1 -1 -1 -0 -1 -1 -1 -0 -0 -0 0 -0 0 -0 -0 0 1 1 0 -0 -1 -1 -1 -1 -2 -1
1 1 0 0 -0 -0 -1 -1 -1 -1 -1 -1 -1 -1 -1 -1 -1 -1 -1 -1 -1 -1 -1 -1 -1 -0 -0 -0 -0 -0 -0 0 0 1 1 1 0 -1 -0 1 1 -0 -0
1 1 1 -0 -0 -0 -0 -0 -1 -1 -1 -1 -1 -1 -1 -1 -0 -1 -1 -1 -0 -0 -1 -1 -1 -1 1 0 0 -0 -0 1 1 1 1 1 1 1 1 0 1 0 -0
1 1 1 1 0 0 -0 -0 -0 -0 -1 -1 -0 -0 -0 -0 5 5 1 -0 -0 -0 -0 -1 -1 -0 0 3 3 3 1 0 1 1 1 2 1 1 0 1 1 2 3
1 1 1 1 1 1 1 0 0 0 -0 -0 -0 -0 0 0 6 5 4 -0 -0 -0 -0 -0 -0 -0 -0 -1 2 4 3 4 3 -0 1 1 1 0 0 1 1 1 2
3 2 1 1 1 2 1 1 0 -0 -0 -0 0 -0 0 3 7 6 4 -0 0 1 -0 0 1 2 3 3 -0 -0 -0 -1 -1 -0 -0 -0 -1 -1 -0 -0 0 0 0
4 4 3 3 2 1 2 1 1 1 0 1 1 1 3 5 8 8 2 -0 -0 -0 -0 2 1 2 7 7 0 0 0 -0 2 4 4 4 4 4 3 -0 1 2 2
7 4 3 3 2 2 2 1 -0 1 3 3 4 5 7 6 10 9 5 -0 0 0 -0 -0 6 5 8 8 1 1 1 0 0 0 -1 -0 1 0 4 -1 0 2 2
7 5 5 3 2 1 1 -0 0 3 4 5 5 5 7 6 8 10 10 5 3 2 2 2 2 7 8 9 7 0 2 3 1 -0 -0 -0 -1 -1 -1 -1 -1 0 1
6 6 5 4 4 4 2 2 3 3 4 4 4 4 4 5 9 10 10 10 9 5 4 4 4 9 9 8 6 7 7 5 -0 1 0 1 1 0 -0 -1 -2 -2 -1
4 4 4 4 3 2 1 1 1 1 1 2 3 3 3 2 3 9 9 9 8 6 6 7 8 9 8 6 6 6 6 2 1 2 2 1 1 1 0 0 -0 -2 -2
4 4 3 3 2 3 3 2 2 2 2 3 3 3 4 5 8 8 8 7 7 7 7 4 5 6 6 4 3 3 2 2 3 3 3 3 2 2 2 2 2 2 2
4 5 5 5 4 5 6 5 6 8 7 4 5 5 5 7 9 10 11 8 7 7 7 3 3 3 3 2 2 2 2 2 3 3 4 4 4 4 3 2 3 3 4
6 6 6 6 6 6 8 10 12 11 12 12 12 10 9 11 11 12 12 12 11 10 5 5 5 5 4 4 4 3 2 3 3 3 3 3 5 5 5 4 4 4 3
5 5 6 6 7 7 8 8 11 11 12 13 13 12 12 12 12 12 13 12 11 9 6 6 7 7 7 6 6 5 5 4 3 4 4 4 4 4 4 4 4 4 4
5 8 6 6 7 7 7 7 8 8 8 9 12 11 12 12 12 13 12 10 6 6 6 6 7 6 7 7 6 7 6 6 5 5 4 4 4 4 5 5 6 6 6
7 7 7 7 7 7 7 8 8 8 8 8 7 11 10 11 12 11 11 7 7 8 8 8 7 7 7 7 7 6 6 7 7 7 7 7 7 7 6 6 6 8 8
7 8 7 7 8 8 7 7 7 7 7 7 7 7 6 7 6 6 6 7 7 7 7 7 7 7 7 7 7 7 7 7 7 7 7 8 8 8 8 8 8 8 8
6 6 5 6 6 5 5 6 6 6 6 6 6 9 12 6 6 6 6 6 6 6 7 7 7 7 7 7 7 7 8 7 8 8 8 8 8 9 9 8 9 9 9
4 4 5 5 5 4 4 4 4 4 4 4 5 6 9 5 4 4 4 4 5 5 6 6 7 7 7 7 7 7 8 8 8 8 9 9 9 9 9 9 9 9 9
3 3 3 4 4 4 4 4 4 4 4 4 4 4 4 3 4 4 4 3 3 4 4 5 6 6 6 7 8 8 9 9 9 9 10 10 10 11 10 10 10 9 9
3 3 4 4 4 4 4 4 3 5 4 3 3 3 3 3 3 4 4 3 4 4 4 4 5 6 6 7 7 8 8 8 9 10 10 10 11 11 11 10 10 10 10
2 2 3 3 3 4 4 4 3 3 3 4 3 3 3 3 4 4 4 4 4 4 4 5 5 5 6 6 6 7 9 12 10 11 10 10 10 10 10 10 11 11 10
2 3 2 1 1 2 3 3 3 3 2 2 2 2 2 3 3 3 3 3 3 3 3 4 4 4 4 5 5 9 12 12 9 11 9 9 9 9 9 9 10 10 10

GFSGL_con_lsi_114.txt.gz
Lid_Strength_Index
1 1 1 0 0 -0 0 -0 -0 -0 -0 0 -1 -1 -0 -0 -1 -0 -1 -0 0 0 0 0 0 -0 0 0 0 1 1 1 3 2 1 0 0 0 -0 -1 -1 -1 -1
1 1 1 0 0 0 0 -0 -0 -0 -0 -0 -0 -0 -0 -1 -0 -1 0 -0 0 0 0 0 0 0 0 0 1 1 1 1 2 3 1 1 1 0 0 0 -0 -0 -1
1 1 1 1 1 0 0 0 -0 -0 -0 -0 -0 -0 0 -0 0 0 0 0 0 0 0 1 1 1 1 1 1 1 1 1 1 2 2 1 1 0 1 0 0 -0 -0
1 1 1 1 1 1 0 0 -0 -0 0 -0 -0 -0 -0 -0 -0 -0 0 0 0 0 0 -0 -0 0 1 0 1 1 1 1 1 2 2 2 1 1 1 2 2 0 1
1 1 1 1 1 1 1 0 -0 -0 -0 -0 -0 -0 -0 0 3 3 1 1 0 0 0 0 -0 0 1 1 0 1 1 1 2 2 2 2 2 2 2 1 2 1 1
2 1 1 0 0 1 1 1 0 -1 -0 -0 -0 0 1 4 6 5 2 0 -0 1 0 0 0 1 1 2 3 2 2 1 2 2 2 3 2 2 1 2 2 3 4
2 1 1 1 1 1 1 1 1 0 -0 0 1 1 4 6 8 7 4 -0 -0 0 1 0 1 3 4 2 2 1 3 4 3 1 2 2 2 1 1 2 2 2 2
2 1 1 1 2 2 2 2 2 1 1 2 2 2 4 7 9 7 5 0 0 0 1 0 2 4 6 5 2 0 0 0 -0 -0 0 0 0 -0 0 1 1 1 1
2 2 1 1 1 1 2 2 2 2 3 3 4 5 5 9 9 8 5 0 1 2 3 3 3 4 7 7 0 1 1 0 2 2 2 3 4 5 4 1 2 2 3
3 2 2 1 1 1 1 1 1 2 4 5 6 7 8 10 10 10 6 2 1 1 3 5 7 6 7 7 3 1 3 2 2 1 0 0 1 1 3 -1 0 2 3
5 4 2 2 2 1 1 1 1 2 4 4 6 7 9 9 11 10 10 7 4 5 3 3 5 8 9 9 8 2 3 4 3 1 1 0 0 1 1 1 -1 1 2
6 5 5 4 2 1 2 3 3 3 3 4 5 5 7 8 10 10 10 9 7 6 8 8 7 9 10 9 7 8 8 6 1 2 3 3 3 3 2 1 -1 -1 -1
5 5 5 4 3 2 2 2 3 3 4 4 4 4 5 5 6 9 8 8 7 6 6 7 8 9 9 6 6 6 5 3 3 4 4 4 3 2 2 3 3 3 4
5 5 5 5 8 10 8 3 6 7 3 2 2 2 3 6 8 8 7 5 6 5 5 3 4 6 6 5 4 4 4 5 5 6 5 4 4 4 5 4 5 5 4
5 5 6 5 7 10 14 13 11 13 13 5 5 6 5 6 10 11 11 9 9 8 9 3 2 2 3 3 3 3 4 4 5 5 5 5 5 5 5 5 5 5 6
5 5 5 4 5 6 9 12 14 13 14 14 13 9 10 11 11 12 12 12 12 11 5 5 5 5 5 5 5 5 5 5 4 5 6 6 6 6 6 5 5 6 6
4 3 5 5 6 6 8 10 12 12 13 13 13 13 13 12 12 13 13 12 11 9 5 5 5 6 5 5 5 5 6 5 5 6 6 6 6 7 7 7 7 7 8
4 7 7 6 5 6 6 7 9 10 10 11 12 12 13 13 13 13 13 12 6 7 6 7 7 6 7 6 7 7 7 7 7 7 7 7 7 8 8 9 8 9 9
4 4 4 5 5 5 4 6 7 6 8 8 10 12 12 12 12 13 13 5 6 7 7 7 6 7 7 7 7 6 6 7 7 7 8 8 8 8 9 9 9 10 9
5 6 6 5 6 5 5 5 6 5 6 6 7 7 8 9 8 5 4 4 6 6 7 7 7 6 6 6 6 6 7 7 8 8 8 8 9 9 10 10 10 10 10
5 6 5 6 7 6 6 6 6 5 6 6 8 10 13 8 6 6 6 6 7 7 7 7 5 5 6 6 6 6 7 7 7 8 8 9 9 10 10 10 10 10 10
4 5 6 6 6 5 4 4 5 5 5 6 8 10 11 9 6 6 4 4 5 5 5 4 5 6 6 6 6 7 8 8 8 8 9 9 9 10 10 10 10 10 10
3 3 4 4 3 3 4 4 4 4 5 4 5 6 7 6 5 4 4 4 4 4 3 3 3 4 3 4 4 5 7 7 7 8 9 9 9 9 10 10 10 11 11
2 3 3 3 3 3 3 3 3 4 3 2 2 3 3 3 3 3 3 2 2 2 2 2 3 4 3 4 4 4 5 5 6 7 8 9 9 9 9 10 10 9 9
2 2 2 2 3 3 3 3 3 3 3 3 3 3 3 3 3 3 3 3 3 3 3 3 3 3 3 4 4 5 10 11 8 10 8 7 8 8 8 8 8 8 8
2 3 3 2 2 2 3 3 2 3 3 2 3 2 2 1 2 2 1 1 1 1 1 1 1 1 2 3 3 8 11 11 8 11 8 8 8 7 7 7 7 8 8

GFSGL_con_lsi_117.txt.gz
Lid_Strength_Index
1 1 1 1 1 1 1 1 0 1 3 1 3 1 0 1 0 1 1 1 1 1 1 1 1 1 1 1 1 1 3 2 4 3 2 1 1 1 0 -0 -0 0 1
1 1 1 1 1 1 1 1 1 3 1 0 0 1 1 1 0 1 1 1 1 1 1 1 1 1 1 1 1 2 2 2 3 4 3 2 1 1 0 1 1 -0 1
1 1 1 1 1 1 1 1 0 1 0 0 0 1 1 1 1 1 1 1 1 1 1 1 1 1 1 1 1 2 1 1 1 2 3 2 2 1 2 1 1 0 -0
3 2 2 2 2 2 1 1 1 0 1 1 1 1 0 1 1 1 1 1 1 1 1 1 1 1 1 1 1 2 1 2 2 2 2 2 2 2 2 2 2 1 1
2 2 2 1 1 1 1 1 1 0 0 0 1 1 2 4 4 3 1 1 1 1 2 0 2 1 2 2 1 1 1 2 2 3 3 3 3 2 3 2 2 1 1
2 2 1 1 2 2 2 1 1 1 1 1 2 3 5 6 5 6 3 1 1 1 1 1 2 4 3 3 3 3 3 2 3 3 3 3 3 2 2 2 2 3 4
2 2 1 2 2 2 1 2 1 1 1 2 4 6 9 9 8 7 4 1 1 2 1 2 4 5 6 5 3 2 3 3 3 2 3 2 2 2 2 2 2 3 3
2 2 2 2 2 3 2 1 1 1 2 4 5 7 10 10 8 7 4 2 4 4 4 5 6 7 7 5 2 3 2 4 5 2 2 2 3 3 3 2 1 1 1
2 2 2 2 3 2 2 2 3 5 6 6 7 9 11 12 9 7 3 3 5 6 6 6 8 9 7 6 3 5 6 5 4 3 3 4 3 3 2 1 2 3 3
3 2 2 2 2 2 2 1 3 5 6 7 8 9 10 12 10 8 5 2 5 7 8 8 7 9 8 8 6 6 7 6 6 4 3 1 1 2 2 3 2 3 4
5 3 3 2 2 2 2 2 3 5 6 8 9 10 10 11 11 10 8 7 6 6 9 10 9 9 10 9 8 6 7 7 5 5 5 5 5 4 3 4 4 4 5
5 4 4 2 2 3 3 3 3 4 6 7 7 8 9 11 10 10 10 9 8 10 10 9 9 10 9 8 6 7 6 5 5 6 7 8 8 8 6 7 6 7 7
5 5 4 7 8 4 3 4 4 5 5 5 5 7 8 9 11 9 10 9 8 9 8 7 7 8 7 7 7 7 7 8 8 7 7 8 7 7 7 7 6 6 6
5 5 7 10 11 11 9 11 11 11 8 4 5 7 9 12 13 13 12 11 8 9 9 7 5 5 5 6 6 7 7 6 7 7 7 8 8 7 8 7 8 8 8
5 6 6 9 12 14 15 13 13 15 14 10 11 11 10 13 15 13 13 13 13 12 11 7 8 8 7 7 7 6 7 7 8 9 9 9 8 8 8 8 8 8 9
5 6 6 6 8 10 12 14 14 14 14 14 13 13 14 14 13 12 13 12 11 10 8 8 9 9 9 9 9 9 9 8 9 9 8 8 9 9 9 9 9 10 10
5 5 5 6 7 10 11 12 14 14 14 14 15 14 13 14 14 14 14 12 10 8 7 8 8 9 9 9 10 10 10 10 9 9 9 9 9 10 10 10 10 10 11
8 7 7 7 7 8 9 10 12 13 14 14 13 13 14 13 13 13 14 12 10 10 10 10 10 10 10 11 11 12 11 11 11 11 11 11 11 11 11 12 11 12 12
7 6 7 8 7 7 8 10 11 11 12 13 14 13 13 13 13 13 13 10 10 11 11 11 11 11 11 11 11 11 11 11 11 12 12 12 12 12 13 13 12 11 11
8 6 6 8 9 8 8 8 9 9 10 13 12 11 12 11 10 10 10 10 10 10 11 11 11 10 10 10 11 11 11 12 12 12 13 13 13 13 13 13 13 13 13
8 9 6 9 10 9 9 10 10 8 9 9 9 9 10 9 10 9 9 9 9 10 11 11 11 10 10 11 11 12 12 12 12 12 12 13 13 13 13 13 13 13 13
8 8 9 8 9 9 9 8 8 9 9 10 11 11 10 10 9 8 8 8 8 9 9 10 10 10 9 9 9 9 10 11 11 11 12 12 12 12 12 12 12 12 11
6 6 7 7 6 5 7 7 7 7 8 8 9 10 10 9 8 7 7 7 7 7 7 7 8 8 8 8 9 9 10 11 11 11 12 12 12 12 12 11 10 11 10
6 6 6 7 7 6 6 6 6 6 5 6 6 7 7 6 6 5 5 5 5 5 5 6 6 7 7 7 7 8 8 9 9 10 10 11 11 11 11 10 10 9 9
5 5 5 5 6 6 6 6 6 6 5 6 5 6 6 5 5 5 6 6 6 6 5 6 6 6 6 7 7 9 10 10 9 10 9 9 10 10 10 10 9 8 8
4 4 4 4 3 4 5 5 5 5 5 5 5 5 5 5 5 5 6 6 6 6 5 5 5 5 5 5 5 8 11 10 9 10 9 10 10 10 10 9 8 8 8

GFSGL_con_lsi_120.txt.gz
Lid_Strength_Index
1 2 2 1 1 1 1 2 0 1 3 3 3 2 1 1 1 1 1 1 1 1 1 1 1 2 2 2 1 2 2 3 4 3 3 2 2 2 1 0 -0 0 0
1 1 1 1 1 1 1 1 0 2 2 3 2 1 1 1 1 1 1 1 1 2 1 2 2 1 2 2 2 2 2 2 2 4 3 2 2 1 1 0 -0 -0 0
1 2 2 2 1 2 1 1 1 2 3 1 0 1 1 1 1 1 1 1 1 1 1 2 1 1 1 2 2 2 2 1 2 2 3 2 2 1 1 1 0 0 -0
2 2 2 2 1 2 1 1 1 1 1 1 1 1 1 1 2 1 1 1 1 1 1 1 1 1 2 2 1 2 2 2 2 2 3 2 2 1 2 2 2 1 2
2 3 3 2 2 1 2 2 1 1 1 1 2 3 3 4 4 3 1 1 2 2 1 2 3 3 3 3 1 2 2 2 2 3 3 3 3 3 3 2 2 2 2
2 2 1 1 2 1 1 1 1 1 2 2 4 5 5 5 5 6 3 2 2 2 1 2 4 5 4 4 4 3 3 3 3 3 3 4 3 3 2 2 2 3 4
2 2 2 2 2 2 2 2 2 2 2 5 7 8 9 8 7 7 4 2 1 2 1 3 5 5 4 3 3 3 5 5 3 3 4 3 3 3 3 3 3 3 3
2 2 2 2 3 2 2 1 1 2 4 5 7 8 9 8 8 7 4 3 3 4 6 7 8 7 6 4 6 7 7 6 6 4 4 4 3 3 3 2 2 2 2
2 2 3 2 2 2 3 4 5 4 6 7 8 9 9 9 8 5 4 5 7 8 8 8 9 9 7 5 7 8 8 6 4 3 4 4 5 4 3 3 4 4 5
3 2 2 2 2 2 3 4 5 6 9 10 10 10 10 10 8 6 5 6 8 9 9 9 8 9 8 8 7 8 7 8 6 6 6 5 5 6 5 6 6 8 6
3 2 2 2 1 2 1 3 4 6 8 9 9 10 11 11 10 8 6 5 6 8 10 9 9 9 9 9 8 8 8 7 7 7 8 8 7 7 8 8 8 9 8
4 4 3 2 2 3 3 4 5 6 9 9 10 11 11 10 9 10 9 7 8 9 10 9 8 10 10 9 9 9 8 8 8 8 8 8 8 8 8 8 9 9 7
5 7 7 7 8 5 4 4 5 6 6 7 8 9 10 12 11 10 9 8 8 9 8 8 9 10 10 9 9 9 8 10 9 11 11 9 9 9 9 9 9 9 8
8 9 10 11 11 10 11 11 10 9 5 5 7 10 12 13 14 12 12 12 11 11 9 7 7 6 7 7 8 8 7 8 9 10 10 9 9 8 8 8 9 9 10
6 8 10 12 13 14 14 13 13 14 13 9 8 10 12 15 15 14 14 14 14 12 8 8 8 8 9 9 9 10 10 10 9 9 10 10 10 10 10 10 10 11 12
5 6 8 9 11 12 13 14 13 13 13 14 14 12 14 14 13 14 15 14 12 10 9 9 10 9 9 9 10 10 10 9 10 10 11 11 12 12 12 12 12 12 13
7 6 6 7 9 10 11 13 14 13 13 14 14 14 15 14 15 15 14 13 12 10 10 10 10 10 10 10 10 11 11 11 11 11 12 12 12 13 13 13 13 13 13
7 6 5 6 8 9 10 11 13 13 12 12 13 14 14 14 14 14 14 12 11 11 11 11 11 12 12 12 12 12 12 12 12 12 13 13 13 14 14 14 14 14 14
9 9 8 7 7 9 11 12 12 12 14 13 13 13 13 14 14 14 13 12 12 12 12 12 12 12 12 12 12 12 13 13 14 14 14 14 14 14 14 14 14 13 14
9 5 7 9 8 9 9 11 11 12 14 14 13 13 11 11 11 10 10 11 11 12 12 12 11 12 12 12 12 12 13 14 15 15 15 15 15 15 15 15 15 15 15
7 8 6 10 10 9 9 10 10 10 11 12 11 11 11 11 11 11 11 11 11 11 11 11 11 11 12 11 12 12 12 13 14 14 15 15 14 15 15 14 14 14 13
7 8 9 9 10 10 9 9 9 8 9 10 10 10 11 10 10 9 10 9 9 10 10 10 11 11 11 11 12 12 13 13 13 13 13 13 14 14 14 14 14 13 13
6 7 8 8 8 7 8 8 8 8 8 8 9 10 11 11 10 8 8 8 8 9 9 8 8 9 9 9 9 10 11 11 11 11 12 12 13 13 13 13 13 12 11
6 7 7 8 9 9 8 8 7 7 7 7 8 9 9 9 8 7 7 6 6 7 7 7 7 7 7 7 8 8 8 9 10 10 11 11 12 12 12 12 12 11 10
6 6 6 7 7 8 8 7 7 7 7 7 6 7 8 7 7 6 6 5 5 5 6 6 6 6 7 7 8 8 9 10 9 10 10 10 10 10 10 11 11 10 9
6 7 7 6 6 6 6 6 5 5 6 6 6 6 7 6 6 6 6 6 6 6 6 6 6 7 7 7 7 8 10 10 9 10 9 10 10 11 11 11 11 10 10